Wetterdaten: Samstag, 27.01.2024
Datum Zeit Temp. I. Temp. A. Feuchte I. Feuchte A. Luftdruck Regen Wind Richtung Richtung Sonnenschein Solar Taupunkt Windchill Windböen
27.01.2024 00:00 21,7 °C 4,1 °C 51 % 83 % 1029,5 hPa 0,0 l/m² 5,8 km/h (2 Bft) S-SW 211 ° 0 min 0 W/m² 1,5 °C 4,1 °C 8,0 km/h (2 Bft)
27.01.2024 00:02 21,6 °C 4,1 °C 51 % 83 % 1029,6 hPa 0,0 l/m² 6,1 km/h (2 Bft) SW 221 ° 0 min 0 W/m² 1,5 °C 4,1 °C 9,7 km/h (2 Bft)
27.01.2024 00:03 21,7 °C 4,1 °C 51 % 84 % 1029,5 hPa 0,0 l/m² 4,8 km/h (1 Bft) SW 221 ° 0 min 0 W/m² 1,6 °C 4,1 °C 9,7 km/h (2 Bft)
27.01.2024 00:05 21,6 °C 4,0 °C 51 % 84 % 1029,6 hPa 0,0 l/m² 5,4 km/h (2 Bft) SW 221 ° 0 min 0 W/m² 1,5 °C 4,0 °C 8,0 km/h (2 Bft)
27.01.2024 00:06 21,6 °C 4,0 °C 51 % 84 % 1029,5 hPa 0,0 l/m² 7,1 km/h (2 Bft) SW 223 ° 0 min 0 W/m² 1,5 °C 3,4 °C 8,0 km/h (2 Bft)
27.01.2024 00:08 21,7 °C 4,0 °C 51 % 84 % 1029,5 hPa 0,0 l/m² 6,2 km/h (2 Bft) SW 219 ° 0 min 0 W/m² 1,5 °C 4,0 °C 11,3 km/h (2 Bft)
27.01.2024 00:10 21,6 °C 4,0 °C 51 % 84 % 1029,5 hPa 0,0 l/m² 8,2 km/h (2 Bft) SW 233 ° 0 min 0 W/m² 1,5 °C 2,4 °C 12,9 km/h (3 Bft)
27.01.2024 00:11 21,6 °C 3,9 °C 51 % 84 % 1029,6 hPa 0,0 l/m² 8,8 km/h (2 Bft) W-SW 244 ° 0 min 0 W/m² 1,4 °C 1,8 °C 11,3 km/h (2 Bft)
27.01.2024 00:13 21,7 °C 3,9 °C 51 % 85 % 1029,7 hPa 0,0 l/m² 11,1 km/h (2 Bft) W-SW 242 ° 0 min 0 W/m² 1,6 °C 0,1 °C 14,5 km/h (3 Bft)
27.01.2024 00:14 21,7 °C 3,9 °C 50 % 85 % 1029,7 hPa 0,0 l/m² 6,6 km/h (2 Bft) W-SW 255 ° 0 min 0 W/m² 1,6 °C 3,7 °C 8,0 km/h (2 Bft)
27.01.2024 00:15 21,7 °C 4,0 °C 50 % 85 % 1029,7 hPa 0,0 l/m² 8,4 km/h (2 Bft) W-SW 254 ° 0 min 0 W/m² 1,7 °C 2,2 °C 12,9 km/h (3 Bft)
27.01.2024 00:17 21,6 °C 4,0 °C 50 % 85 % 1029,7 hPa 0,0 l/m² 6,1 km/h (2 Bft) W-SW 242 ° 0 min 0 W/m² 1,7 °C 4,0 °C 9,7 km/h (2 Bft)
27.01.2024 00:19 21,6 °C 4,0 °C 50 % 85 % 1029,8 hPa 0,0 l/m² 9,9 km/h (2 Bft) SW 234 ° 0 min 0 W/m² 1,7 °C 1,0 °C 14,5 km/h (3 Bft)
27.01.2024 00:21 21,6 °C 3,9 °C 50 % 85 % 1029,6 hPa 0,0 l/m² 10,3 km/h (2 Bft) W-SW 242 ° 0 min 0 W/m² 1,6 °C 0,6 °C 20,9 km/h (4 Bft)
27.01.2024 00:22 21,6 °C 3,9 °C 50 % 85 % 1029,7 hPa 0,0 l/m² 9,0 km/h (2 Bft) SW 226 ° 0 min 0 W/m² 1,6 °C 1,6 °C 12,9 km/h (3 Bft)
27.01.2024 00:23 21,6 °C 3,9 °C 50 % 85 % 1029,7 hPa 0,0 l/m² 11,5 km/h (2 Bft) W-SW 237 ° 0 min 0 W/m² 1,6 °C -0,2 °C 16,1 km/h (3 Bft)
27.01.2024 00:25 21,6 °C 3,9 °C 50 % 85 % 1029,8 hPa 0,0 l/m² 8,7 km/h (2 Bft) SW 234 ° 0 min 0 W/m² 1,6 °C 1,9 °C 12,9 km/h (3 Bft)
27.01.2024 00:27 21,6 °C 3,9 °C 50 % 86 % 1029,8 hPa 0,0 l/m² 8,2 km/h (2 Bft) SW 224 ° 0 min 0 W/m² 1,8 °C 2,3 °C 12,9 km/h (3 Bft)
27.01.2024 00:29 21,6 °C 3,9 °C 50 % 85 % 1029,8 hPa 0,0 l/m² 12,2 km/h (2 Bft) SW 236 ° 0 min 0 W/m² 1,6 °C -0,6 °C 19,3 km/h (3 Bft)
27.01.2024 00:31 21,6 °C 3,8 °C 50 % 85 % 1029,8 hPa 0,0 l/m² 9,5 km/h (2 Bft) SW 226 ° 0 min 0 W/m² 1,5 °C 1,1 °C 12,9 km/h (3 Bft)
27.01.2024 00:33 21,6 °C 3,8 °C 50 % 85 % 1029,8 hPa 0,0 l/m² 10,6 km/h (2 Bft) SW 219 ° 0 min 0 W/m² 1,5 °C 0,3 °C 14,5 km/h (3 Bft)
27.01.2024 00:35 21,6 °C 3,8 °C 50 % 85 % 1029,8 hPa 0,0 l/m² 12,6 km/h (3 Bft) W-SW 251 ° 0 min 0 W/m² 1,5 °C -1,0 °C 16,1 km/h (3 Bft)
27.01.2024 00:37 21,6 °C 3,8 °C 50 % 85 % 1029,8 hPa 0,0 l/m² 10,2 km/h (2 Bft) SW 233 ° 0 min 0 W/m² 1,5 °C 0,6 °C 16,1 km/h (3 Bft)
27.01.2024 00:39 21,6 °C 3,8 °C 50 % 85 % 1029,9 hPa 0,0 l/m² 7,8 km/h (2 Bft) W-SW 238 ° 0 min 0 W/m² 1,5 °C 2,5 °C 11,3 km/h (2 Bft)
27.01.2024 00:42 21,6 °C 3,8 °C 50 % 85 % 1029,9 hPa 0,0 l/m² 8,2 km/h (2 Bft) SW 235 ° 0 min 0 W/m² 1,5 °C 2,2 °C 17,7 km/h (3 Bft)
27.01.2024 00:43 21,6 °C 3,8 °C 50 % 85 % 1029,9 hPa 0,0 l/m² 10,0 km/h (2 Bft) SW 228 ° 0 min 0 W/m² 1,5 °C 0,7 °C 14,5 km/h (3 Bft)
27.01.2024 00:44 21,6 °C 3,8 °C 50 % 85 % 1029,9 hPa 0,0 l/m² 9,7 km/h (2 Bft) SW 229 ° 0 min 0 W/m² 1,5 °C 1,0 °C 14,5 km/h (3 Bft)
27.01.2024 00:47 21,6 °C 3,8 °C 50 % 85 % 1030,0 hPa 0,0 l/m² 10,3 km/h (2 Bft) SW 235 ° 0 min 0 W/m² 1,5 °C 0,5 °C 14,5 km/h (3 Bft)
27.01.2024 00:49 21,6 °C 3,8 °C 50 % 85 % 1029,9 hPa 0,0 l/m² 8,7 km/h (2 Bft) W-SW 239 ° 0 min 0 W/m² 1,5 °C 1,8 °C 12,9 km/h (3 Bft)
27.01.2024 00:51 21,6 °C 3,7 °C 50 % 85 % 1030,0 hPa 0,0 l/m² 8,4 km/h (2 Bft) SW 230 ° 0 min 0 W/m² 1,4 °C 1,9 °C 11,3 km/h (2 Bft)
27.01.2024 00:52 21,6 °C 3,7 °C 50 % 85 % 1030,0 hPa 0,0 l/m² 8,5 km/h (2 Bft) W-SW 242 ° 0 min 0 W/m² 1,4 °C 1,8 °C 9,7 km/h (2 Bft)
27.01.2024 00:53 21,6 °C 3,7 °C 50 % 85 % 1030,0 hPa 0,0 l/m² 8,3 km/h (2 Bft) SW 236 ° 0 min 0 W/m² 1,4 °C 2,0 °C 9,7 km/h (2 Bft)
27.01.2024 00:55 21,6 °C 3,7 °C 50 % 85 % 1030,1 hPa 0,0 l/m² 7,5 km/h (2 Bft) SW 232 ° 0 min 0 W/m² 1,4 °C 2,7 °C 11,3 km/h (2 Bft)
27.01.2024 00:57 21,6 °C 3,7 °C 50 % 85 % 1030,0 hPa 0,0 l/m² 7,9 km/h (2 Bft) W-SW 244 ° 0 min 0 W/m² 1,4 °C 2,3 °C 12,9 km/h (3 Bft)
27.01.2024 00:59 21,6 °C 3,7 °C 50 % 85 % 1030,0 hPa 0,0 l/m² 8,5 km/h (2 Bft) W-SW 246 ° 0 min 0 W/m² 1,4 °C 1,8 °C 12,9 km/h (3 Bft)
27.01.2024 01:01 21,6 °C 3,7 °C 50 % 85 % 1030,0 hPa 0,0 l/m² 7,4 km/h (2 Bft) W-SW 244 ° 0 min 0 W/m² 1,4 °C 2,8 °C 11,3 km/h (2 Bft)
27.01.2024 01:02 21,6 °C 3,7 °C 50 % 85 % 1029,9 hPa 0,0 l/m² 7,7 km/h (2 Bft) SW 232 ° 0 min 0 W/m² 1,4 °C 2,5 °C 9,7 km/h (2 Bft)
27.01.2024 01:03 21,6 °C 3,7 °C 50 % 85 % 1029,9 hPa 0,0 l/m² 7,4 km/h (2 Bft) SW 223 ° 0 min 0 W/m² 1,4 °C 2,8 °C 9,7 km/h (2 Bft)
27.01.2024 01:04 21,6 °C 3,6 °C 50 % 85 % 1030,0 hPa 0,0 l/m² 6,6 km/h (2 Bft) SW 230 ° 0 min 0 W/m² 1,3 °C 3,4 °C 9,7 km/h (2 Bft)
27.01.2024 01:06 21,6 °C 3,6 °C 50 % 85 % 1030,0 hPa 0,0 l/m² 7,2 km/h (2 Bft) SW 236 ° 0 min 0 W/m² 1,3 °C 2,9 °C 8,0 km/h (2 Bft)
27.01.2024 01:08 21,6 °C 3,6 °C 50 % 85 % 1030,2 hPa 0,0 l/m² 6,5 km/h (2 Bft) W-SW 248 ° 0 min 0 W/m² 1,3 °C 3,5 °C 8,0 km/h (2 Bft)
27.01.2024 01:10 21,6 °C 3,6 °C 50 % 85 % 1030,2 hPa 0,0 l/m² 5,8 km/h (2 Bft) W-SW 250 ° 0 min 0 W/m² 1,3 °C 3,6 °C 8,0 km/h (2 Bft)
27.01.2024 01:13 21,6 °C 3,6 °C 50 % 86 % 1030,2 hPa 0,0 l/m² 5,3 km/h (1 Bft) W-SW 250 ° 0 min 0 W/m² 1,5 °C 3,6 °C 8,0 km/h (2 Bft)
27.01.2024 01:15 21,6 °C 3,6 °C 50 % 86 % 1030,3 hPa 0,0 l/m² 9,0 km/h (2 Bft) SW 232 ° 0 min 0 W/m² 1,5 °C 1,3 °C 14,5 km/h (3 Bft)
27.01.2024 01:17 21,6 °C 3,6 °C 50 % 86 % 1030,3 hPa 0,0 l/m² 8,8 km/h (2 Bft) SW 233 ° 0 min 0 W/m² 1,5 °C 1,5 °C 14,5 km/h (3 Bft)
27.01.2024 01:19 21,6 °C 3,6 °C 50 % 86 % 1030,3 hPa 0,0 l/m² 6,2 km/h (2 Bft) SW 230 ° 0 min 0 W/m² 1,5 °C 3,6 °C 8,0 km/h (2 Bft)
27.01.2024 01:22 21,5 °C 3,6 °C 50 % 86 % 1030,4 hPa 0,0 l/m² 6,4 km/h (2 Bft) SW 229 ° 0 min 0 W/m² 1,5 °C 3,6 °C 9,7 km/h (2 Bft)
27.01.2024 01:23 21,6 °C 3,6 °C 50 % 86 % 1030,4 hPa 0,0 l/m² 8,2 km/h (2 Bft) SW 222 ° 0 min 0 W/m² 1,5 °C 2,0 °C 11,3 km/h (2 Bft)
27.01.2024 01:24 21,6 °C 3,6 °C 50 % 86 % 1030,4 hPa 0,0 l/m² 10,1 km/h (2 Bft) SW 219 ° 0 min 0 W/m² 1,5 °C 0,5 °C 11,3 km/h (2 Bft)
27.01.2024 01:25 21,6 °C 3,6 °C 50 % 86 % 1030,4 hPa 0,0 l/m² 9,4 km/h (2 Bft) SW 217 ° 0 min 0 W/m² 1,5 °C 1,0 °C 11,3 km/h (2 Bft)
27.01.2024 01:27 21,6 °C 3,6 °C 50 % 86 % 1030,3 hPa 0,0 l/m² 9,5 km/h (2 Bft) SW 221 ° 0 min 0 W/m² 1,5 °C 0,9 °C 12,9 km/h (3 Bft)
27.01.2024 01:28 21,6 °C 3,6 °C 50 % 86 % 1030,3 hPa 0,0 l/m² 8,1 km/h (2 Bft) SW 222 ° 0 min 0 W/m² 1,5 °C 2,0 °C 9,7 km/h (2 Bft)
27.01.2024 01:29 21,5 °C 3,6 °C 50 % 86 % 1030,4 hPa 0,0 l/m² 7,6 km/h (2 Bft) SW 222 ° 0 min 0 W/m² 1,5 °C 2,5 °C 9,7 km/h (2 Bft)
27.01.2024 01:31 21,5 °C 3,6 °C 50 % 86 % 1030,4 hPa 0,0 l/m² 6,6 km/h (2 Bft) SW 230 ° 0 min 0 W/m² 1,5 °C 3,4 °C 8,0 km/h (2 Bft)
27.01.2024 01:33 21,5 °C 3,6 °C 50 % 86 % 1030,5 hPa 0,0 l/m² 7,9 km/h (2 Bft) W-SW 237 ° 0 min 0 W/m² 1,5 °C 2,2 °C 14,5 km/h (3 Bft)
27.01.2024 01:34 21,5 °C 3,6 °C 50 % 86 % 1030,5 hPa 0,0 l/m² 8,9 km/h (2 Bft) SW 234 ° 0 min 0 W/m² 1,5 °C 1,4 °C 9,7 km/h (2 Bft)
27.01.2024 01:35 21,5 °C 3,6 °C 50 % 86 % 1030,5 hPa 0,0 l/m² 9,6 km/h (2 Bft) W-SW 238 ° 0 min 0 W/m² 1,5 °C 0,8 °C 11,3 km/h (2 Bft)
27.01.2024 01:36 21,5 °C 3,6 °C 50 % 86 % 1030,5 hPa 0,0 l/m² 9,1 km/h (2 Bft) W-SW 238 ° 0 min 0 W/m² 1,5 °C 1,2 °C 12,9 km/h (3 Bft)
27.01.2024 01:37 21,5 °C 3,6 °C 50 % 86 % 1030,5 hPa 0,0 l/m² 9,3 km/h (2 Bft) SW 235 ° 0 min 0 W/m² 1,5 °C 1,1 °C 11,3 km/h (2 Bft)
27.01.2024 01:38 21,5 °C 3,6 °C 50 % 86 % 1030,5 hPa 0,0 l/m² 10,4 km/h (2 Bft) W-SW 241 ° 0 min 0 W/m² 1,5 °C 0,2 °C 14,5 km/h (3 Bft)
27.01.2024 01:39 21,5 °C 3,6 °C 50 % 86 % 1030,6 hPa 0,0 l/m² 9,4 km/h (2 Bft) W-SW 246 ° 0 min 0 W/m² 1,5 °C 1,0 °C 12,9 km/h (3 Bft)
27.01.2024 01:41 21,5 °C 3,6 °C 50 % 86 % 1030,6 hPa 0,0 l/m² 8,5 km/h (2 Bft) W-SW 242 ° 0 min 0 W/m² 1,5 °C 1,7 °C 11,3 km/h (2 Bft)
27.01.2024 01:43 21,5 °C 3,6 °C 50 % 86 % 1030,5 hPa 0,0 l/m² 8,4 km/h (2 Bft) SW 232 ° 0 min 0 W/m² 1,5 °C 1,8 °C 12,9 km/h (3 Bft)
27.01.2024 01:44 21,5 °C 3,6 °C 50 % 86 % 1030,5 hPa 0,0 l/m² 7,8 km/h (2 Bft) SW 228 ° 0 min 0 W/m² 1,5 °C 2,3 °C 9,7 km/h (2 Bft)
27.01.2024 01:45 21,5 °C 3,6 °C 50 % 86 % 1030,5 hPa 0,0 l/m² 6,9 km/h (2 Bft) SW 228 ° 0 min 0 W/m² 1,5 °C 3,1 °C 9,7 km/h (2 Bft)
27.01.2024 01:46 21,5 °C 3,6 °C 50 % 86 % 1030,5 hPa 0,0 l/m² 8,5 km/h (2 Bft) SW 217 ° 0 min 0 W/m² 1,5 °C 1,7 °C 11,3 km/h (2 Bft)
27.01.2024 01:47 21,4 °C 3,6 °C 50 % 86 % 1030,5 hPa 0,0 l/m² 5,1 km/h (1 Bft) SW 218 ° 0 min 0 W/m² 1,5 °C 3,6 °C 8,0 km/h (2 Bft)
27.01.2024 01:48 21,4 °C 3,6 °C 50 % 86 % 1030,5 hPa 0,0 l/m² 14,2 km/h (3 Bft) SW 231 ° 0 min 0 W/m² 1,5 °C -2,2 °C 20,9 km/h (4 Bft)
27.01.2024 01:49 21,4 °C 3,6 °C 50 % 86 % 1030,6 hPa 0,0 l/m² 7,0 km/h (2 Bft) SW 226 ° 0 min 0 W/m² 1,5 °C 3,0 °C 11,3 km/h (2 Bft)
27.01.2024 01:51 21,4 °C 3,6 °C 50 % 86 % 1030,6 hPa 0,0 l/m² 8,1 km/h (2 Bft) SW 223 ° 0 min 0 W/m² 1,5 °C 2,0 °C 12,9 km/h (3 Bft)
27.01.2024 01:53 21,4 °C 3,6 °C 50 % 86 % 1030,6 hPa 0,0 l/m² 10,6 km/h (2 Bft) SW 228 ° 0 min 0 W/m² 1,5 °C 0,1 °C 14,5 km/h (3 Bft)
27.01.2024 01:54 21,4 °C 3,6 °C 50 % 86 % 1030,6 hPa 0,0 l/m² 9,9 km/h (2 Bft) SW 235 ° 0 min 0 W/m² 1,5 °C 0,6 °C 12,9 km/h (3 Bft)
27.01.2024 01:55 21,4 °C 3,6 °C 50 % 86 % 1030,6 hPa 0,0 l/m² 11,2 km/h (2 Bft) SW 230 ° 0 min 0 W/m² 1,5 °C -0,3 °C 14,5 km/h (3 Bft)
27.01.2024 01:56 21,4 °C 3,6 °C 50 % 86 % 1030,5 hPa 0,0 l/m² 9,3 km/h (2 Bft) SW 227 ° 0 min 0 W/m² 1,5 °C 1,1 °C 11,3 km/h (2 Bft)
27.01.2024 01:57 21,4 °C 3,6 °C 50 % 86 % 1030,6 hPa 0,0 l/m² 6,5 km/h (2 Bft) W-SW 241 ° 0 min 0 W/m² 1,5 °C 3,5 °C 11,3 km/h (2 Bft)
27.01.2024 01:58 21,4 °C 3,6 °C 50 % 86 % 1030,7 hPa 0,0 l/m² 10,1 km/h (2 Bft) SW 235 ° 0 min 0 W/m² 1,5 °C 0,5 °C 14,5 km/h (3 Bft)
27.01.2024 01:59 21,4 °C 3,6 °C 50 % 86 % 1030,7 hPa 0,0 l/m² 8,5 km/h (2 Bft) SW 227 ° 0 min 0 W/m² 1,5 °C 1,7 °C 11,3 km/h (2 Bft)
27.01.2024 02:01 21,4 °C 3,6 °C 50 % 85 % 1030,7 hPa 0,0 l/m² 11,3 km/h (2 Bft) SW 233 ° 0 min 0 W/m² 1,3 °C -0,4 °C 16,1 km/h (3 Bft)
27.01.2024 02:03 21,4 °C 3,6 °C 50 % 85 % 1030,7 hPa 0,0 l/m² 10,5 km/h (2 Bft) SW 230 ° 0 min 0 W/m² 1,3 °C 0,2 °C 14,5 km/h (3 Bft)
27.01.2024 02:04 21,4 °C 3,6 °C 50 % 85 % 1030,6 hPa 0,0 l/m² 10,4 km/h (2 Bft) SW 236 ° 0 min 0 W/m² 1,3 °C 0,2 °C 14,5 km/h (3 Bft)
27.01.2024 02:05 21,4 °C 3,6 °C 50 % 85 % 1030,7 hPa 0,0 l/m² 11,2 km/h (2 Bft) W-SW 240 ° 0 min 0 W/m² 1,3 °C -0,3 °C 14,5 km/h (3 Bft)
27.01.2024 02:06 21,4 °C 3,6 °C 50 % 85 % 1030,7 hPa 0,0 l/m² 9,9 km/h (2 Bft) W-SW 247 ° 0 min 0 W/m² 1,3 °C 0,6 °C 14,5 km/h (3 Bft)
27.01.2024 02:07 21,4 °C 3,6 °C 50 % 85 % 1030,8 hPa 0,0 l/m² 8,4 km/h (2 Bft) W-SW 248 ° 0 min 0 W/m² 1,3 °C 1,8 °C 11,3 km/h (2 Bft)
27.01.2024 02:08 21,4 °C 3,6 °C 50 % 85 % 1030,7 hPa 0,0 l/m² 9,9 km/h (2 Bft) W-SW 256 ° 0 min 0 W/m² 1,3 °C 0,6 °C 12,9 km/h (3 Bft)
27.01.2024 02:09 21,4 °C 3,6 °C 50 % 85 % 1030,6 hPa 0,0 l/m² 8,7 km/h (2 Bft) W-SW 242 ° 0 min 0 W/m² 1,3 °C 1,5 °C 12,9 km/h (3 Bft)
27.01.2024 02:11 21,4 °C 3,6 °C 50 % 85 % 1030,7 hPa 0,0 l/m² 10,0 km/h (2 Bft) W-SW 252 ° 0 min 0 W/m² 1,3 °C 0,5 °C 12,9 km/h (3 Bft)
27.01.2024 02:13 21,4 °C 3,6 °C 50 % 85 % 1030,8 hPa 0,0 l/m² 7,7 km/h (2 Bft) W 260 ° 0 min 0 W/m² 1,3 °C 2,4 °C 12,9 km/h (3 Bft)
27.01.2024 02:14 21,4 °C 3,7 °C 50 % 85 % 1030,7 hPa 0,0 l/m² 5,2 km/h (1 Bft) W 261 ° 0 min 0 W/m² 1,4 °C 3,7 °C 6,4 km/h (2 Bft)
27.01.2024 02:15 21,4 °C 3,7 °C 50 % 85 % 1030,7 hPa 0,0 l/m² 6,6 km/h (2 Bft) W 261 ° 0 min 0 W/m² 1,4 °C 3,5 °C 9,7 km/h (2 Bft)
27.01.2024 02:16 21,4 °C 3,7 °C 50 % 85 % 1030,7 hPa 0,0 l/m² 6,9 km/h (2 Bft) W-SW 249 ° 0 min 0 W/m² 1,4 °C 3,2 °C 11,3 km/h (2 Bft)
27.01.2024 02:17 21,4 °C 3,7 °C 50 % 85 % 1030,6 hPa 0,0 l/m² 7,9 km/h (2 Bft) W-SW 250 ° 0 min 0 W/m² 1,4 °C 2,3 °C 11,3 km/h (2 Bft)
27.01.2024 02:18 21,4 °C 3,7 °C 50 % 85 % 1030,7 hPa 0,0 l/m² 12,0 km/h (2 Bft) W-SW 257 ° 0 min 0 W/m² 1,4 °C -0,7 °C 16,1 km/h (3 Bft)
27.01.2024 02:19 21,4 °C 3,7 °C 50 % 85 % 1030,7 hPa 0,0 l/m² 13,7 km/h (3 Bft) W-SW 246 ° 0 min 0 W/m² 1,4 °C -1,8 °C 17,7 km/h (3 Bft)
27.01.2024 02:21 21,4 °C 3,7 °C 50 % 85 % 1030,7 hPa 0,0 l/m² 12,5 km/h (2 Bft) W-SW 252 ° 0 min 0 W/m² 1,4 °C -1,1 °C 16,1 km/h (3 Bft)
27.01.2024 02:23 21,4 °C 3,7 °C 50 % 85 % 1030,7 hPa 0,0 l/m² 12,8 km/h (3 Bft) W-SW 251 ° 0 min 0 W/m² 1,4 °C -1,2 °C 17,7 km/h (3 Bft)
27.01.2024 02:24 21,4 °C 3,7 °C 50 % 85 % 1030,7 hPa 0,0 l/m² 13,4 km/h (3 Bft) W-SW 239 ° 0 min 0 W/m² 1,4 °C -1,6 °C 16,1 km/h (3 Bft)
27.01.2024 02:25 21,4 °C 3,7 °C 50 % 85 % 1030,7 hPa 0,0 l/m² 12,7 km/h (3 Bft) W-SW 252 ° 0 min 0 W/m² 1,4 °C -1,2 °C 14,5 km/h (3 Bft)
27.01.2024 02:26 21,4 °C 3,7 °C 50 % 85 % 1030,8 hPa 0,0 l/m² 10,8 km/h (2 Bft) W-SW 252 ° 0 min 0 W/m² 1,4 °C 0,1 °C 12,9 km/h (3 Bft)
27.01.2024 02:27 21,4 °C 3,7 °C 50 % 85 % 1030,8 hPa 0,0 l/m² 10,8 km/h (2 Bft) W-SW 243 ° 0 min 0 W/m² 1,4 °C 0,1 °C 14,5 km/h (3 Bft)
27.01.2024 02:28 21,4 °C 3,7 °C 50 % 85 % 1030,8 hPa 0,0 l/m² 10,9 km/h (2 Bft) W-SW 248 ° 0 min 0 W/m² 1,4 °C -0,0 °C 14,5 km/h (3 Bft)
27.01.2024 02:29 21,4 °C 3,7 °C 50 % 85 % 1030,7 hPa 0,0 l/m² 12,2 km/h (2 Bft) W 261 ° 0 min 0 W/m² 1,4 °C -0,9 °C 14,5 km/h (3 Bft)
27.01.2024 02:30 21,4 °C 3,7 °C 50 % 85 % 1030,8 hPa 0,0 l/m² 12,6 km/h (3 Bft) W-SW 246 ° 0 min 0 W/m² 1,4 °C -1,1 °C 16,1 km/h (3 Bft)
27.01.2024 02:32 21,4 °C 3,7 °C 50 % 85 % 1030,8 hPa 0,0 l/m² 12,1 km/h (2 Bft) W-SW 251 ° 0 min 0 W/m² 1,4 °C -0,8 °C 14,5 km/h (3 Bft)
27.01.2024 02:33 21,4 °C 3,7 °C 50 % 85 % 1030,8 hPa 0,0 l/m² 10,7 km/h (2 Bft) W-SW 250 ° 0 min 0 W/m² 1,4 °C 0,1 °C 12,9 km/h (3 Bft)
27.01.2024 02:34 21,4 °C 3,7 °C 50 % 85 % 1030,8 hPa 0,0 l/m² 10,7 km/h (2 Bft) W-SW 251 ° 0 min 0 W/m² 1,4 °C 0,1 °C 12,9 km/h (3 Bft)
27.01.2024 02:35 21,4 °C 3,7 °C 50 % 85 % 1030,8 hPa 0,0 l/m² 10,4 km/h (2 Bft) W 263 ° 0 min 0 W/m² 1,4 °C 0,3 °C 12,9 km/h (3 Bft)
27.01.2024 02:36 21,4 °C 3,7 °C 50 % 84 % 1030,8 hPa 0,0 l/m² 7,5 km/h (2 Bft) W-SW 258 ° 0 min 0 W/m² 1,3 °C 2,7 °C 11,3 km/h (2 Bft)
27.01.2024 02:37 21,4 °C 3,7 °C 50 % 84 % 1030,9 hPa 0,0 l/m² 10,2 km/h (2 Bft) W-SW 257 ° 0 min 0 W/m² 1,3 °C 0,5 °C 12,9 km/h (3 Bft)
27.01.2024 02:38 21,4 °C 3,7 °C 50 % 85 % 1030,9 hPa 0,0 l/m² 10,0 km/h (2 Bft) W-SW 253 ° 0 min 0 W/m² 1,4 °C 0,6 °C 12,9 km/h (3 Bft)
27.01.2024 02:39 21,4 °C 3,7 °C 50 % 85 % 1030,8 hPa 0,0 l/m² 10,1 km/h (2 Bft) W-SW 257 ° 0 min 0 W/m² 1,4 °C 0,6 °C 11,3 km/h (2 Bft)
27.01.2024 02:41 21,4 °C 3,7 °C 50 % 84 % 1030,8 hPa 0,0 l/m² 9,4 km/h (2 Bft) W-SW 257 ° 0 min 0 W/m² 1,3 °C 1,1 °C 12,9 km/h (3 Bft)
27.01.2024 02:43 21,4 °C 3,6 °C 50 % 84 % 1030,9 hPa 0,0 l/m² 9,7 km/h (2 Bft) W-SW 258 ° 0 min 0 W/m² 1,2 °C 0,8 °C 12,9 km/h (3 Bft)
27.01.2024 02:44 21,4 °C 3,6 °C 50 % 84 % 1030,9 hPa 0,0 l/m² 11,9 km/h (2 Bft) W-SW 250 ° 0 min 0 W/m² 1,2 °C -0,8 °C 14,5 km/h (3 Bft)
27.01.2024 02:45 21,4 °C 3,6 °C 50 % 84 % 1030,8 hPa 0,0 l/m² 11,9 km/h (2 Bft) W-SW 242 ° 0 min 0 W/m² 1,2 °C -0,8 °C 14,5 km/h (3 Bft)
27.01.2024 02:46 21,4 °C 3,6 °C 50 % 84 % 1030,7 hPa 0,0 l/m² 13,0 km/h (3 Bft) W-SW 238 ° 0 min 0 W/m² 1,2 °C -1,5 °C 16,1 km/h (3 Bft)
27.01.2024 02:47 21,4 °C 3,6 °C 50 % 84 % 1030,7 hPa 0,0 l/m² 12,6 km/h (3 Bft) SW 236 ° 0 min 0 W/m² 1,2 °C -1,2 °C 16,1 km/h (3 Bft)
27.01.2024 02:48 21,4 °C 3,6 °C 50 % 84 % 1030,8 hPa 0,0 l/m² 13,4 km/h (3 Bft) W-SW 239 ° 0 min 0 W/m² 1,2 °C -1,7 °C 16,1 km/h (3 Bft)
27.01.2024 02:49 21,4 °C 3,6 °C 50 % 84 % 1030,8 hPa 0,0 l/m² 11,2 km/h (2 Bft) W-SW 244 ° 0 min 0 W/m² 1,2 °C -0,3 °C 14,5 km/h (3 Bft)
27.01.2024 02:50 21,4 °C 3,6 °C 50 % 84 % 1030,9 hPa 0,0 l/m² 10,1 km/h (2 Bft) W-SW 249 ° 0 min 0 W/m² 1,2 °C 0,5 °C 12,9 km/h (3 Bft)
27.01.2024 02:52 21,4 °C 3,6 °C 50 % 84 % 1031,0 hPa 0,0 l/m² 9,5 km/h (2 Bft) W-SW 257 ° 0 min 0 W/m² 1,2 °C 0,9 °C 12,9 km/h (3 Bft)
27.01.2024 02:53 21,4 °C 3,6 °C 50 % 84 % 1030,9 hPa 0,0 l/m² 11,2 km/h (2 Bft) W-SW 257 ° 0 min 0 W/m² 1,2 °C -0,3 °C 14,5 km/h (3 Bft)
27.01.2024 02:54 21,4 °C 3,6 °C 50 % 84 % 1030,8 hPa 0,0 l/m² 9,4 km/h (2 Bft) W 260 ° 0 min 0 W/m² 1,2 °C 1,0 °C 11,3 km/h (2 Bft)
27.01.2024 02:55 21,4 °C 3,5 °C 50 % 84 % 1031,0 hPa 0,0 l/m² 9,7 km/h (2 Bft) W-SW 257 ° 0 min 0 W/m² 1,1 °C 0,6 °C 14,5 km/h (3 Bft)
27.01.2024 02:56 21,4 °C 3,5 °C 50 % 84 % 1031,0 hPa 0,0 l/m² 10,4 km/h (2 Bft) W-SW 251 ° 0 min 0 W/m² 1,1 °C 0,1 °C 16,1 km/h (3 Bft)
27.01.2024 02:57 21,4 °C 3,5 °C 50 % 84 % 1031,0 hPa 0,0 l/m² 11,3 km/h (2 Bft) W-SW 248 ° 0 min 0 W/m² 1,1 °C -0,5 °C 12,9 km/h (3 Bft)
27.01.2024 02:58 21,4 °C 3,5 °C 50 % 84 % 1031,0 hPa 0,0 l/m² 10,9 km/h (2 Bft) W 259 ° 0 min 0 W/m² 1,1 °C -0,2 °C 12,9 km/h (3 Bft)
27.01.2024 02:59 21,4 °C 3,5 °C 50 % 84 % 1031,0 hPa 0,0 l/m² 10,5 km/h (2 Bft) W-SW 254 ° 0 min 0 W/m² 1,1 °C 0,1 °C 12,9 km/h (3 Bft)
27.01.2024 03:00 21,4 °C 3,5 °C 50 % 84 % 1030,9 hPa 0,0 l/m² 9,7 km/h (2 Bft) W-SW 247 ° 0 min 0 W/m² 1,1 °C 0,6 °C 12,9 km/h (3 Bft)
27.01.2024 03:07 21,4 °C 3,4 °C 50 % 84 % 1030,9 hPa 0,0 l/m² 10,0 km/h (2 Bft) W-SW 251 ° 0 min 0 W/m² 1,0 °C 0,3 °C 12,9 km/h (3 Bft)
27.01.2024 03:08 21,4 °C 3,4 °C 50 % 84 % 1030,9 hPa 0,0 l/m² 10,3 km/h (2 Bft) W-SW 257 ° 0 min 0 W/m² 1,0 °C 0,1 °C 12,9 km/h (3 Bft)
27.01.2024 03:09 21,4 °C 3,4 °C 50 % 84 % 1030,9 hPa 0,0 l/m² 10,5 km/h (2 Bft) W-SW 250 ° 0 min 0 W/m² 1,0 °C -0,1 °C 12,9 km/h (3 Bft)
27.01.2024 03:11 21,4 °C 3,3 °C 50 % 84 % 1031,0 hPa 0,0 l/m² 10,2 km/h (2 Bft) W-SW 253 ° 0 min 0 W/m² 0,9 °C 0,0 °C 14,5 km/h (3 Bft)
27.01.2024 03:13 21,4 °C 3,3 °C 50 % 84 % 1031,0 hPa 0,0 l/m² 10,3 km/h (2 Bft) W-SW 249 ° 0 min 0 W/m² 0,9 °C -0,0 °C 12,9 km/h (3 Bft)
27.01.2024 03:14 21,4 °C 3,3 °C 50 % 84 % 1031,0 hPa 0,0 l/m² 10,2 km/h (2 Bft) W-SW 248 ° 0 min 0 W/m² 0,9 °C 0,0 °C 14,5 km/h (3 Bft)
27.01.2024 03:15 21,4 °C 3,2 °C 50 % 84 % 1031,0 hPa 0,0 l/m² 10,8 km/h (2 Bft) W-SW 248 ° 0 min 0 W/m² 0,8 °C -0,5 °C 14,5 km/h (3 Bft)
27.01.2024 03:17 21,4 °C 3,2 °C 50 % 84 % 1031,0 hPa 0,0 l/m² 9,7 km/h (2 Bft) W-SW 246 ° 0 min 0 W/m² 0,8 °C 0,3 °C 14,5 km/h (3 Bft)
27.01.2024 03:18 21,5 °C 3,2 °C 50 % 84 % 1031,0 hPa 0,0 l/m² 9,9 km/h (2 Bft) W-SW 250 ° 0 min 0 W/m² 0,8 °C 0,2 °C 12,9 km/h (3 Bft)
27.01.2024 03:19 21,4 °C 3,2 °C 50 % 84 % 1031,0 hPa 0,0 l/m² 8,4 km/h (2 Bft) W 269 ° 0 min 0 W/m² 0,8 °C 1,4 °C 11,3 km/h (2 Bft)
27.01.2024 03:21 21,4 °C 3,2 °C 50 % 84 % 1031,0 hPa 0,0 l/m² 9,2 km/h (2 Bft) W 265 ° 0 min 0 W/m² 0,8 °C 0,7 °C 12,9 km/h (3 Bft)
27.01.2024 03:22 21,5 °C 3,2 °C 50 % 84 % 1031,0 hPa 0,0 l/m² 9,8 km/h (2 Bft) W 259 ° 0 min 0 W/m² 0,8 °C 0,2 °C 12,9 km/h (3 Bft)
27.01.2024 03:24 21,5 °C 3,1 °C 50 % 84 % 1031,1 hPa 0,0 l/m² 11,7 km/h (2 Bft) W 261 ° 0 min 0 W/m² 0,7 °C -1,2 °C 16,1 km/h (3 Bft)
27.01.2024 03:25 21,5 °C 3,1 °C 50 % 84 % 1031,0 hPa 0,0 l/m² 12,9 km/h (3 Bft) W 263 ° 0 min 0 W/m² 0,7 °C -2,0 °C 16,1 km/h (3 Bft)
27.01.2024 03:27 21,4 °C 3,1 °C 50 % 84 % 1031,0 hPa 0,0 l/m² 13,2 km/h (3 Bft) W-SW 248 ° 0 min 0 W/m² 0,7 °C -2,2 °C 16,1 km/h (3 Bft)
27.01.2024 03:29 21,5 °C 3,1 °C 50 % 84 % 1031,0 hPa 0,0 l/m² 12,2 km/h (2 Bft) W-SW 250 ° 0 min 0 W/m² 0,7 °C -1,6 °C 16,1 km/h (3 Bft)
27.01.2024 03:30 21,4 °C 3,1 °C 50 % 84 % 1031,1 hPa 0,0 l/m² 12,7 km/h (3 Bft) W-SW 248 ° 0 min 0 W/m² 0,7 °C -1,9 °C 14,5 km/h (3 Bft)
27.01.2024 03:32 21,4 °C 3,1 °C 50 % 84 % 1031,1 hPa 0,0 l/m² 14,0 km/h (3 Bft) W-SW 239 ° 0 min 0 W/m² 0,7 °C -2,7 °C 19,3 km/h (3 Bft)
27.01.2024 03:33 21,4 °C 3,1 °C 50 % 84 % 1031,1 hPa 0,0 l/m² 16,2 km/h (3 Bft) SW 235 ° 0 min 0 W/m² 0,7 °C -3,9 °C 20,9 km/h (4 Bft)
27.01.2024 03:35 21,4 °C 3,1 °C 50 % 85 % 1031,1 hPa 0,0 l/m² 13,9 km/h (3 Bft) W 260 ° 0 min 0 W/m² 0,8 °C -2,6 °C 17,7 km/h (3 Bft)
27.01.2024 03:36 21,5 °C 3,1 °C 50 % 85 % 1031,1 hPa 0,0 l/m² 13,1 km/h (3 Bft) SW 236 ° 0 min 0 W/m² 0,8 °C -2,1 °C 16,1 km/h (3 Bft)
27.01.2024 03:38 21,4 °C 3,1 °C 50 % 84 % 1031,1 hPa 0,0 l/m² 13,6 km/h (3 Bft) W 260 ° 0 min 0 W/m² 0,7 °C -2,4 °C 17,7 km/h (3 Bft)
27.01.2024 03:40 21,4 °C 3,1 °C 50 % 84 % 1031,1 hPa 0,0 l/m² 14,1 km/h (3 Bft) W-SW 256 ° 0 min 0 W/m² 0,7 °C -2,7 °C 16,1 km/h (3 Bft)
27.01.2024 03:41 21,4 °C 3,2 °C 50 % 85 % 1031,1 hPa 0,0 l/m² 14,1 km/h (3 Bft) W-SW 247 ° 0 min 0 W/m² 0,9 °C -2,6 °C 16,1 km/h (3 Bft)
27.01.2024 03:42 21,5 °C 3,2 °C 50 % 85 % 1031,1 hPa 0,0 l/m² 12,7 km/h (3 Bft) W-SW 243 ° 0 min 0 W/m² 0,9 °C -1,8 °C 16,1 km/h (3 Bft)
27.01.2024 03:43 21,5 °C 3,2 °C 50 % 85 % 1031,1 hPa 0,0 l/m² 13,4 km/h (3 Bft) W 266 ° 0 min 0 W/m² 0,9 °C -2,2 °C 17,7 km/h (3 Bft)
27.01.2024 03:45 21,4 °C 3,2 °C 50 % 84 % 1031,2 hPa 0,0 l/m² 14,6 km/h (3 Bft) W-SW 258 ° 0 min 0 W/m² 0,8 °C -2,9 °C 20,9 km/h (4 Bft)
27.01.2024 03:47 21,4 °C 3,2 °C 50 % 84 % 1031,2 hPa 0,0 l/m² 14,3 km/h (3 Bft) W-SW 257 ° 0 min 0 W/m² 0,8 °C -2,7 °C 19,3 km/h (3 Bft)
27.01.2024 03:49 21,4 °C 3,2 °C 50 % 84 % 1031,3 hPa 0,0 l/m² 15,4 km/h (3 Bft) W-SW 257 ° 0 min 0 W/m² 0,8 °C -3,3 °C 19,3 km/h (3 Bft)
27.01.2024 03:50 21,4 °C 3,2 °C 50 % 84 % 1031,2 hPa 0,0 l/m² 14,4 km/h (3 Bft) W-SW 244 ° 0 min 0 W/m² 0,8 °C -2,8 °C 19,3 km/h (3 Bft)
27.01.2024 03:52 21,4 °C 3,2 °C 50 % 84 % 1031,3 hPa 0,0 l/m² 14,5 km/h (3 Bft) W-SW 250 ° 0 min 0 W/m² 0,8 °C -2,8 °C 19,3 km/h (3 Bft)
27.01.2024 03:53 21,4 °C 3,2 °C 50 % 84 % 1031,3 hPa 0,0 l/m² 14,0 km/h (3 Bft) W-SW 248 ° 0 min 0 W/m² 0,8 °C -2,5 °C 17,7 km/h (3 Bft)
27.01.2024 03:55 21,4 °C 3,3 °C 50 % 84 % 1031,4 hPa 0,0 l/m² 13,4 km/h (3 Bft) W-SW 252 ° 0 min 0 W/m² 0,9 °C -2,1 °C 17,7 km/h (3 Bft)
27.01.2024 03:56 21,4 °C 3,2 °C 50 % 84 % 1031,4 hPa 0,0 l/m² 13,9 km/h (3 Bft) W-SW 249 ° 0 min 0 W/m² 0,8 °C -2,5 °C 17,7 km/h (3 Bft)
27.01.2024 03:58 21,4 °C 3,2 °C 50 % 84 % 1031,4 hPa 0,0 l/m² 12,9 km/h (3 Bft) W 259 ° 0 min 0 W/m² 0,8 °C -1,9 °C 14,5 km/h (3 Bft)
27.01.2024 04:00 21,4 °C 3,2 °C 50 % 84 % 1031,4 hPa 0,0 l/m² 12,3 km/h (2 Bft) W-SW 256 ° 0 min 0 W/m² 0,8 °C -1,5 °C 16,1 km/h (3 Bft)
27.01.2024 04:01 21,4 °C 3,2 °C 50 % 84 % 1031,5 hPa 0,0 l/m² 12,7 km/h (3 Bft) W-SW 253 ° 0 min 0 W/m² 0,8 °C -1,8 °C 16,1 km/h (3 Bft)
27.01.2024 04:03 21,4 °C 3,2 °C 50 % 84 % 1031,5 hPa 0,0 l/m² 13,2 km/h (3 Bft) W 261 ° 0 min 0 W/m² 0,8 °C -2,1 °C 16,1 km/h (3 Bft)
27.01.2024 04:04 21,4 °C 3,2 °C 50 % 84 % 1031,4 hPa 0,0 l/m² 12,0 km/h (2 Bft) W-SW 254 ° 0 min 0 W/m² 0,8 °C -1,3 °C 17,7 km/h (3 Bft)
27.01.2024 04:05 21,4 °C 3,2 °C 50 % 84 % 1031,4 hPa 0,0 l/m² 12,6 km/h (3 Bft) W-SW 256 ° 0 min 0 W/m² 0,8 °C -1,7 °C 14,5 km/h (3 Bft)
27.01.2024 04:07 21,4 °C 3,2 °C 50 % 84 % 1031,4 hPa 0,0 l/m² 11,4 km/h (2 Bft) W-SW 246 ° 0 min 0 W/m² 0,8 °C -0,9 °C 16,1 km/h (3 Bft)
27.01.2024 04:09 21,4 °C 3,2 °C 50 % 84 % 1031,4 hPa 0,0 l/m² 10,5 km/h (2 Bft) W-SW 247 ° 0 min 0 W/m² 0,8 °C -0,3 °C 16,1 km/h (3 Bft)
27.01.2024 04:11 21,4 °C 3,2 °C 50 % 84 % 1031,5 hPa 0,0 l/m² 11,8 km/h (2 Bft) W-SW 241 ° 0 min 0 W/m² 0,8 °C -1,2 °C 16,1 km/h (3 Bft)
27.01.2024 04:12 21,4 °C 3,2 °C 50 % 84 % 1031,5 hPa 0,0 l/m² 12,3 km/h (2 Bft) W-SW 245 ° 0 min 0 W/m² 0,8 °C -1,5 °C 16,1 km/h (3 Bft)
27.01.2024 04:13 21,4 °C 3,2 °C 50 % 84 % 1031,5 hPa 0,0 l/m² 7,7 km/h (2 Bft) W-SW 249 ° 0 min 0 W/m² 0,8 °C 2,0 °C 11,3 km/h (2 Bft)
27.01.2024 04:14 21,4 °C 3,2 °C 50 % 84 % 1031,6 hPa 0,0 l/m² 7,6 km/h (2 Bft) W-SW 254 ° 0 min 0 W/m² 0,8 °C 2,1 °C 11,3 km/h (2 Bft)
27.01.2024 04:15 21,4 °C 3,2 °C 50 % 84 % 1031,6 hPa 0,0 l/m² 9,9 km/h (2 Bft) W-SW 240 ° 0 min 0 W/m² 0,8 °C 0,2 °C 16,1 km/h (3 Bft)
27.01.2024 04:17 21,4 °C 3,3 °C 50 % 84 % 1031,7 hPa 0,0 l/m² 7,2 km/h (2 Bft) W-SW 250 ° 0 min 0 W/m² 0,9 °C 2,5 °C 12,9 km/h (3 Bft)
27.01.2024 04:19 21,4 °C 3,3 °C 50 % 84 % 1031,7 hPa 0,0 l/m² 8,8 km/h (2 Bft) W-SW 250 ° 0 min 0 W/m² 0,9 °C 1,1 °C 14,5 km/h (3 Bft)
27.01.2024 04:20 21,4 °C 3,3 °C 50 % 84 % 1031,7 hPa 0,0 l/m² 10,5 km/h (2 Bft) W-SW 242 ° 0 min 0 W/m² 0,9 °C -0,2 °C 14,5 km/h (3 Bft)
27.01.2024 04:22 21,4 °C 3,3 °C 50 % 84 % 1031,7 hPa 0,0 l/m² 11,1 km/h (2 Bft) W-SW 238 ° 0 min 0 W/m² 0,9 °C -0,6 °C 14,5 km/h (3 Bft)
27.01.2024 04:23 21,4 °C 3,3 °C 50 % 84 % 1031,7 hPa 0,0 l/m² 12,4 km/h (2 Bft) W-SW 245 ° 0 min 0 W/m² 0,9 °C -1,5 °C 14,5 km/h (3 Bft)
27.01.2024 04:25 21,4 °C 3,3 °C 50 % 84 % 1031,7 hPa 0,0 l/m² 13,3 km/h (3 Bft) W-SW 248 ° 0 min 0 W/m² 0,9 °C -2,0 °C 16,1 km/h (3 Bft)
27.01.2024 04:27 21,4 °C 3,4 °C 50 % 84 % 1031,6 hPa 0,0 l/m² 11,6 km/h (2 Bft) W-SW 242 ° 0 min 0 W/m² 1,0 °C -0,8 °C 16,1 km/h (3 Bft)
27.01.2024 04:29 21,4 °C 3,4 °C 50 % 84 % 1031,7 hPa 0,0 l/m² 13,7 km/h (3 Bft) W-SW 244 ° 0 min 0 W/m² 1,0 °C -2,1 °C 19,3 km/h (3 Bft)
27.01.2024 04:30 21,4 °C 3,4 °C 50 % 84 % 1031,7 hPa 0,0 l/m² 12,9 km/h (3 Bft) W-SW 246 ° 0 min 0 W/m² 1,0 °C -1,7 °C 17,7 km/h (3 Bft)
27.01.2024 04:32 21,4 °C 3,4 °C 50 % 84 % 1031,7 hPa 0,0 l/m² 12,4 km/h (2 Bft) SW 230 ° 0 min 0 W/m² 1,0 °C -1,3 °C 19,3 km/h (3 Bft)
27.01.2024 04:33 21,4 °C 3,4 °C 50 % 84 % 1031,7 hPa 0,0 l/m² 15,3 km/h (3 Bft) SW 235 ° 0 min 0 W/m² 1,0 °C -3,0 °C 17,7 km/h (3 Bft)
27.01.2024 04:35 21,4 °C 3,5 °C 50 % 84 % 1031,6 hPa 0,0 l/m² 14,0 km/h (3 Bft) W-SW 241 ° 0 min 0 W/m² 1,1 °C -2,2 °C 17,7 km/h (3 Bft)
27.01.2024 04:37 21,4 °C 3,5 °C 50 % 84 % 1031,8 hPa 0,0 l/m² 14,5 km/h (3 Bft) W-SW 241 ° 0 min 0 W/m² 1,1 °C -2,5 °C 17,7 km/h (3 Bft)
27.01.2024 04:38 21,4 °C 3,5 °C 50 % 84 % 1031,7 hPa 0,0 l/m² 18,1 km/h (3 Bft) W-SW 240 ° 0 min 0 W/m² 1,1 °C -4,3 °C 19,3 km/h (3 Bft)
27.01.2024 04:40 21,4 °C 3,5 °C 50 % 84 % 1031,7 hPa 0,0 l/m² 14,9 km/h (3 Bft) SW 232 ° 0 min 0 W/m² 1,1 °C -2,7 °C 22,5 km/h (4 Bft)
27.01.2024 04:41 21,4 °C 3,5 °C 50 % 84 % 1031,7 hPa 0,0 l/m² 11,9 km/h (2 Bft) SW 236 ° 0 min 0 W/m² 1,1 °C -0,9 °C 14,5 km/h (3 Bft)
27.01.2024 04:43 21,4 °C 3,6 °C 50 % 84 % 1031,8 hPa 0,0 l/m² 12,5 km/h (2 Bft) W-SW 246 ° 0 min 0 W/m² 1,2 °C -1,2 °C 17,7 km/h (3 Bft)
27.01.2024 04:44 21,4 °C 3,6 °C 50 % 84 % 1031,8 hPa 0,0 l/m² 13,8 km/h (3 Bft) SW 223 ° 0 min 0 W/m² 1,2 °C -2,0 °C 19,3 km/h (3 Bft)
27.01.2024 04:46 21,4 °C 3,6 °C 50 % 84 % 1031,8 hPa 0,0 l/m² 16,4 km/h (3 Bft) SW 225 ° 0 min 0 W/m² 1,2 °C -3,3 °C 24,1 km/h (4 Bft)
27.01.2024 04:48 21,4 °C 3,6 °C 50 % 84 % 1031,8 hPa 0,0 l/m² 14,8 km/h (3 Bft) SW 228 ° 0 min 0 W/m² 1,2 °C -2,5 °C 19,3 km/h (3 Bft)
27.01.2024 04:50 21,4 °C 3,6 °C 50 % 83 % 1031,9 hPa 0,0 l/m² 14,9 km/h (3 Bft) SW 223 ° 0 min 0 W/m² 1,0 °C -2,6 °C 22,5 km/h (4 Bft)
27.01.2024 04:51 21,4 °C 3,6 °C 50 % 83 % 1031,9 hPa 0,0 l/m² 16,7 km/h (3 Bft) SW 231 ° 0 min 0 W/m² 1,0 °C -3,5 °C 22,5 km/h (4 Bft)
27.01.2024 04:53 21,4 °C 3,7 °C 50 % 83 % 1031,8 hPa 0,0 l/m² 17,5 km/h (3 Bft) SW 215 ° 0 min 0 W/m² 1,1 °C -3,8 °C 22,5 km/h (4 Bft)
27.01.2024 04:54 21,4 °C 3,7 °C 50 % 83 % 1031,8 hPa 0,0 l/m² 15,3 km/h (3 Bft) SW 227 ° 0 min 0 W/m² 1,1 °C -2,7 °C 19,3 km/h (3 Bft)
27.01.2024 04:56 21,4 °C 3,7 °C 50 % 83 % 1031,7 hPa 0,0 l/m² 14,8 km/h (3 Bft) SW 218 ° 0 min 0 W/m² 1,1 °C -2,4 °C 20,9 km/h (4 Bft)
27.01.2024 04:58 21,4 °C 3,7 °C 50 % 83 % 1031,8 hPa 0,0 l/m² 16,6 km/h (3 Bft) SW 216 ° 0 min 0 W/m² 1,1 °C -3,3 °C 24,1 km/h (4 Bft)
27.01.2024 05:00 21,4 °C 3,7 °C 50 % 83 % 1031,7 hPa 0,0 l/m² 14,5 km/h (3 Bft) W-SW 256 ° 0 min 0 W/m² 1,1 °C -2,2 °C 20,9 km/h (4 Bft)
27.01.2024 05:01 21,4 °C 3,8 °C 50 % 83 % 1031,7 hPa 0,0 l/m² 17,2 km/h (3 Bft) SW 219 ° 0 min 0 W/m² 1,2 °C -3,5 °C 24,1 km/h (4 Bft)
27.01.2024 05:03 21,4 °C 3,8 °C 50 % 83 % 1031,7 hPa 0,0 l/m² 18,7 km/h (3 Bft) SW 223 ° 0 min 0 W/m² 1,2 °C -4,2 °C 24,1 km/h (4 Bft)
27.01.2024 05:04 21,4 °C 3,8 °C 50 % 83 % 1031,7 hPa 0,0 l/m² 17,4 km/h (3 Bft) SW 227 ° 0 min 0 W/m² 1,2 °C -3,6 °C 20,9 km/h (4 Bft)
27.01.2024 05:06 21,4 °C 3,8 °C 50 % 83 % 1031,8 hPa 0,0 l/m² 16,4 km/h (3 Bft) SW 231 ° 0 min 0 W/m² 1,2 °C -3,1 °C 25,7 km/h (4 Bft)
27.01.2024 05:08 21,4 °C 3,8 °C 50 % 82 % 1031,8 hPa 0,0 l/m² 16,0 km/h (3 Bft) SW 229 ° 0 min 0 W/m² 1,0 °C -2,9 °C 22,5 km/h (4 Bft)
27.01.2024 05:10 21,4 °C 3,8 °C 50 % 83 % 1031,8 hPa 0,0 l/m² 12,8 km/h (3 Bft) SW 221 ° 0 min 0 W/m² 1,2 °C -1,1 °C 19,3 km/h (3 Bft)
27.01.2024 05:11 21,4 °C 3,8 °C 50 % 83 % 1031,9 hPa 0,0 l/m² 16,9 km/h (3 Bft) SW 223 ° 0 min 0 W/m² 1,2 °C -3,3 °C 20,9 km/h (4 Bft)
27.01.2024 05:13 21,4 °C 3,8 °C 50 % 83 % 1031,8 hPa 0,0 l/m² 12,9 km/h (3 Bft) SW 218 ° 0 min 0 W/m² 1,2 °C -1,2 °C 17,7 km/h (3 Bft)
27.01.2024 05:14 21,4 °C 3,8 °C 50 % 83 % 1031,8 hPa 0,0 l/m² 9,9 km/h (2 Bft) SW 219 ° 0 min 0 W/m² 1,2 °C 0,8 °C 14,5 km/h (3 Bft)
27.01.2024 05:16 21,4 °C 3,8 °C 50 % 83 % 1031,9 hPa 0,0 l/m² 12,7 km/h (3 Bft) W-SW 238 ° 0 min 0 W/m² 1,2 °C -1,1 °C 17,7 km/h (3 Bft)
27.01.2024 05:18 21,4 °C 3,8 °C 50 % 83 % 1032,0 hPa 0,0 l/m² 11,2 km/h (2 Bft) SW 226 ° 0 min 0 W/m² 1,2 °C -0,1 °C 16,1 km/h (3 Bft)
27.01.2024 05:20 21,4 °C 3,8 °C 50 % 83 % 1032,0 hPa 0,0 l/m² 11,9 km/h (2 Bft) SW 231 ° 0 min 0 W/m² 1,2 °C -0,6 °C 17,7 km/h (3 Bft)
27.01.2024 05:21 21,4 °C 3,8 °C 50 % 83 % 1032,0 hPa 0,0 l/m² 11,9 km/h (2 Bft) SW 227 ° 0 min 0 W/m² 1,2 °C -0,6 °C 17,7 km/h (3 Bft)
27.01.2024 05:23 21,4 °C 3,8 °C 50 % 83 % 1031,9 hPa 0,0 l/m² 10,6 km/h (2 Bft) W-SW 245 ° 0 min 0 W/m² 1,2 °C 0,3 °C 16,1 km/h (3 Bft)
27.01.2024 05:24 21,4 °C 3,8 °C 50 % 83 % 1031,9 hPa 0,0 l/m² 11,9 km/h (2 Bft) SW 223 ° 0 min 0 W/m² 1,2 °C -0,6 °C 16,1 km/h (3 Bft)
27.01.2024 05:25 21,4 °C 3,8 °C 50 % 83 % 1031,9 hPa 0,0 l/m² 10,1 km/h (2 Bft) SW 229 ° 0 min 0 W/m² 1,2 °C 0,7 °C 14,5 km/h (3 Bft)
27.01.2024 05:27 21,4 °C 3,7 °C 50 % 83 % 1031,9 hPa 0,0 l/m² 10,9 km/h (2 Bft) SW 226 ° 0 min 0 W/m² 1,1 °C -0,0 °C 16,1 km/h (3 Bft)
27.01.2024 05:29 21,4 °C 3,7 °C 50 % 83 % 1031,9 hPa 0,0 l/m² 12,3 km/h (2 Bft) SW 215 ° 0 min 0 W/m² 1,1 °C -0,9 °C 19,3 km/h (3 Bft)
27.01.2024 05:31 21,3 °C 3,7 °C 50 % 83 % 1031,9 hPa 0,0 l/m² 13,9 km/h (3 Bft) SW 221 ° 0 min 0 W/m² 1,1 °C -1,9 °C 20,9 km/h (4 Bft)
27.01.2024 05:32 21,4 °C 3,7 °C 50 % 83 % 1031,9 hPa 0,0 l/m² 13,5 km/h (3 Bft) SW 217 ° 0 min 0 W/m² 1,1 °C -1,7 °C 22,5 km/h (4 Bft)
27.01.2024 05:33 21,4 °C 3,7 °C 50 % 83 % 1031,9 hPa 0,0 l/m² 15,5 km/h (3 Bft) SW 218 ° 0 min 0 W/m² 1,1 °C -2,8 °C 20,9 km/h (4 Bft)
27.01.2024 05:34 21,4 °C 3,7 °C 50 % 83 % 1031,9 hPa 0,0 l/m² 15,0 km/h (3 Bft) SW 236 ° 0 min 0 W/m² 1,1 °C -2,5 °C 20,9 km/h (4 Bft)
27.01.2024 05:36 21,4 °C 3,7 °C 50 % 83 % 1031,8 hPa 0,0 l/m² 15,3 km/h (3 Bft) SW 229 ° 0 min 0 W/m² 1,1 °C -2,7 °C 20,9 km/h (4 Bft)
27.01.2024 05:38 21,3 °C 3,6 °C 50 % 83 % 1031,8 hPa 0,0 l/m² 12,6 km/h (3 Bft) S-SW 208 ° 0 min 0 W/m² 1,0 °C -1,2 °C 19,3 km/h (3 Bft)
27.01.2024 05:40 21,4 °C 3,6 °C 50 % 84 % 1031,8 hPa 0,0 l/m² 15,9 km/h (3 Bft) SW 229 ° 0 min 0 W/m² 1,2 °C -3,1 °C 20,9 km/h (4 Bft)
27.01.2024 05:41 21,4 °C 3,6 °C 50 % 84 % 1031,8 hPa 0,0 l/m² 13,4 km/h (3 Bft) SW 218 ° 0 min 0 W/m² 1,2 °C -1,7 °C 19,3 km/h (3 Bft)
27.01.2024 05:43 21,3 °C 3,6 °C 50 % 84 % 1031,9 hPa 0,0 l/m² 11,3 km/h (2 Bft) SW 229 ° 0 min 0 W/m² 1,2 °C -0,4 °C 16,1 km/h (3 Bft)
27.01.2024 05:44 21,4 °C 3,6 °C 50 % 84 % 1031,9 hPa 0,0 l/m² 11,6 km/h (2 Bft) SW 221 ° 0 min 0 W/m² 1,2 °C -0,6 °C 17,7 km/h (3 Bft)
27.01.2024 05:46 21,3 °C 3,5 °C 50 % 84 % 1031,9 hPa 0,0 l/m² 14,2 km/h (3 Bft) SW 221 ° 0 min 0 W/m² 1,1 °C -2,3 °C 22,5 km/h (4 Bft)
27.01.2024 05:48 21,3 °C 3,5 °C 50 % 84 % 1031,9 hPa 0,0 l/m² 14,6 km/h (3 Bft) SW 231 ° 0 min 0 W/m² 1,1 °C -2,5 °C 20,9 km/h (4 Bft)
27.01.2024 05:50 21,3 °C 3,5 °C 50 % 84 % 1031,9 hPa 0,0 l/m² 14,2 km/h (3 Bft) SW 229 ° 0 min 0 W/m² 1,1 °C -2,3 °C 22,5 km/h (4 Bft)
27.01.2024 05:51 21,3 °C 3,5 °C 50 % 84 % 1031,9 hPa 0,0 l/m² 16,5 km/h (3 Bft) SW 225 ° 0 min 0 W/m² 1,1 °C -3,5 °C 22,5 km/h (4 Bft)
27.01.2024 05:53 21,3 °C 3,5 °C 50 % 84 % 1032,0 hPa 0,0 l/m² 11,4 km/h (2 Bft) SW 225 ° 0 min 0 W/m² 1,1 °C -0,6 °C 17,7 km/h (3 Bft)
27.01.2024 05:54 21,3 °C 3,5 °C 50 % 84 % 1031,9 hPa 0,0 l/m² 13,9 km/h (3 Bft) SW 230 ° 0 min 0 W/m² 1,1 °C -2,1 °C 19,3 km/h (3 Bft)
27.01.2024 05:56 21,3 °C 3,5 °C 50 % 84 % 1031,9 hPa 0,0 l/m² 11,2 km/h (2 Bft) SW 227 ° 0 min 0 W/m² 1,1 °C -0,4 °C 16,1 km/h (3 Bft)
27.01.2024 05:58 21,3 °C 3,5 °C 50 % 84 % 1032,0 hPa 0,0 l/m² 14,0 km/h (3 Bft) SW 221 ° 0 min 0 W/m² 1,1 °C -2,2 °C 19,3 km/h (3 Bft)
27.01.2024 06:00 21,3 °C 3,5 °C 50 % 84 % 1032,0 hPa 0,0 l/m² 16,8 km/h (3 Bft) W-SW 257 ° 0 min 0 W/m² 1,1 °C -3,7 °C 24,1 km/h (4 Bft)
27.01.2024 06:01 21,3 °C 3,5 °C 50 % 85 % 1032,0 hPa 0,0 l/m² 12,6 km/h (3 Bft) W-SW 242 ° 0 min 0 W/m² 1,2 °C -1,4 °C 19,3 km/h (3 Bft)
27.01.2024 06:03 21,3 °C 3,5 °C 50 % 85 % 1032,0 hPa 0,0 l/m² 13,7 km/h (3 Bft) SW 234 ° 0 min 0 W/m² 1,2 °C -2,0 °C 19,3 km/h (3 Bft)
27.01.2024 06:05 21,3 °C 3,5 °C 50 % 85 % 1031,9 hPa 0,0 l/m² 13,7 km/h (3 Bft) SW 223 ° 0 min 0 W/m² 1,2 °C -2,0 °C 20,9 km/h (4 Bft)
27.01.2024 06:07 21,3 °C 3,6 °C 50 % 85 % 1032,0 hPa 0,0 l/m² 17,2 km/h (3 Bft) SW 229 ° 0 min 0 W/m² 1,3 °C -3,7 °C 24,1 km/h (4 Bft)
27.01.2024 06:09 21,3 °C 3,5 °C 50 % 85 % 1032,1 hPa 0,0 l/m² 13,5 km/h (3 Bft) SW 227 ° 0 min 0 W/m² 1,2 °C -1,9 °C 20,9 km/h (4 Bft)
27.01.2024 06:11 21,3 °C 3,6 °C 50 % 85 % 1032,1 hPa 0,0 l/m² 15,7 km/h (3 Bft) SW 231 ° 0 min 0 W/m² 1,3 °C -3,0 °C 24,1 km/h (4 Bft)
27.01.2024 06:13 21,3 °C 3,6 °C 50 % 85 % 1032,1 hPa 0,0 l/m² 18,2 km/h (3 Bft) W-SW 238 ° 0 min 0 W/m² 1,3 °C -4,2 °C 24,1 km/h (4 Bft)
27.01.2024 06:15 21,3 °C 3,6 °C 50 % 85 % 1032,1 hPa 0,0 l/m² 15,3 km/h (3 Bft) SW 228 ° 0 min 0 W/m² 1,3 °C -2,8 °C 24,1 km/h (4 Bft)
27.01.2024 06:17 21,3 °C 3,6 °C 50 % 85 % 1032,2 hPa 0,0 l/m² 15,7 km/h (3 Bft) S-SW 213 ° 0 min 0 W/m² 1,3 °C -3,0 °C 24,1 km/h (4 Bft)
27.01.2024 06:19 21,3 °C 3,6 °C 50 % 85 % 1032,1 hPa 0,0 l/m² 18,2 km/h (3 Bft) SW 218 ° 0 min 0 W/m² 1,3 °C -4,2 °C 24,1 km/h (4 Bft)
27.01.2024 06:21 21,3 °C 3,6 °C 50 % 85 % 1032,1 hPa 0,0 l/m² 17,8 km/h (3 Bft) W 260 ° 0 min 0 W/m² 1,3 °C -4,0 °C 22,5 km/h (4 Bft)
27.01.2024 06:23 21,3 °C 3,6 °C 50 % 85 % 1032,1 hPa 0,0 l/m² 16,3 km/h (3 Bft) SW 236 ° 0 min 0 W/m² 1,3 °C -3,3 °C 25,7 km/h (4 Bft)
27.01.2024 06:25 21,4 °C 3,6 °C 50 % 85 % 1032,1 hPa 0,0 l/m² 18,1 km/h (3 Bft) W-SW 250 ° 0 min 0 W/m² 1,3 °C -4,2 °C 25,7 km/h (4 Bft)
27.01.2024 06:27 21,3 °C 3,6 °C 50 % 85 % 1032,1 hPa 0,0 l/m² 16,3 km/h (3 Bft) W-SW 240 ° 0 min 0 W/m² 1,3 °C -3,3 °C 24,1 km/h (4 Bft)
27.01.2024 06:29 21,4 °C 3,6 °C 50 % 85 % 1032,1 hPa 0,0 l/m² 16,1 km/h (3 Bft) SW 233 ° 0 min 0 W/m² 1,3 °C -3,2 °C 25,7 km/h (4 Bft)
27.01.2024 06:31 21,3 °C 3,6 °C 50 % 85 % 1032,1 hPa 0,0 l/m² 16,2 km/h (3 Bft) SW 232 ° 0 min 0 W/m² 1,3 °C -3,2 °C 22,5 km/h (4 Bft)
27.01.2024 06:33 21,3 °C 3,6 °C 50 % 85 % 1032,0 hPa 0,0 l/m² 17,7 km/h (3 Bft) SW 224 ° 0 min 0 W/m² 1,3 °C -4,0 °C 24,1 km/h (4 Bft)
27.01.2024 06:35 21,4 °C 3,6 °C 50 % 85 % 1032,1 hPa 0,0 l/m² 16,3 km/h (3 Bft) SW 215 ° 0 min 0 W/m² 1,3 °C -3,3 °C 22,5 km/h (4 Bft)
27.01.2024 06:37 21,3 °C 3,6 °C 50 % 85 % 1032,1 hPa 0,0 l/m² 16,4 km/h (3 Bft) W-SW 245 ° 0 min 0 W/m² 1,3 °C -3,3 °C 25,7 km/h (4 Bft)
27.01.2024 06:39 21,4 °C 3,5 °C 50 % 85 % 1032,1 hPa 0,0 l/m² 16,0 km/h (3 Bft) SW 235 ° 0 min 0 W/m² 1,2 °C -3,3 °C 20,9 km/h (4 Bft)
27.01.2024 06:41 21,3 °C 3,5 °C 50 % 85 % 1032,2 hPa 0,0 l/m² 15,9 km/h (3 Bft) W-SW 248 ° 0 min 0 W/m² 1,2 °C -3,2 °C 25,7 km/h (4 Bft)
27.01.2024 06:43 21,4 °C 3,5 °C 50 % 85 % 1032,2 hPa 0,0 l/m² 12,8 km/h (3 Bft) W-SW 246 ° 0 min 0 W/m² 1,2 °C -1,5 °C 17,7 km/h (3 Bft)
27.01.2024 06:45 21,3 °C 3,5 °C 50 % 85 % 1032,2 hPa 0,0 l/m² 15,3 km/h (3 Bft) SW 229 ° 0 min 0 W/m² 1,2 °C -2,9 °C 19,3 km/h (3 Bft)
27.01.2024 06:46 21,4 °C 3,5 °C 50 % 85 % 1032,3 hPa 0,0 l/m² 13,8 km/h (3 Bft) SW 233 ° 0 min 0 W/m² 1,2 °C -2,1 °C 17,7 km/h (3 Bft)
27.01.2024 06:47 21,4 °C 3,4 °C 50 % 85 % 1032,3 hPa 0,0 l/m² 14,5 km/h (3 Bft) SW 236 ° 0 min 0 W/m² 1,1 °C -2,6 °C 17,7 km/h (3 Bft)
27.01.2024 06:49 21,4 °C 3,4 °C 50 % 85 % 1032,3 hPa 0,0 l/m² 14,8 km/h (3 Bft) SW 236 ° 0 min 0 W/m² 1,1 °C -2,8 °C 19,3 km/h (3 Bft)
27.01.2024 06:51 21,3 °C 3,4 °C 50 % 85 % 1032,3 hPa 0,0 l/m² 13,1 km/h (3 Bft) SW 226 ° 0 min 0 W/m² 1,1 °C -1,8 °C 19,3 km/h (3 Bft)
27.01.2024 06:53 21,4 °C 3,4 °C 50 % 85 % 1032,3 hPa 0,0 l/m² 15,7 km/h (3 Bft) W-SW 241 ° 0 min 0 W/m² 1,1 °C -3,2 °C 20,9 km/h (4 Bft)
27.01.2024 06:55 21,4 °C 3,4 °C 50 % 85 % 1032,3 hPa 0,0 l/m² 13,6 km/h (3 Bft) W-SW 254 ° 0 min 0 W/m² 1,1 °C -2,1 °C 17,7 km/h (3 Bft)
27.01.2024 06:57 21,4 °C 3,4 °C 50 % 85 % 1032,3 hPa 0,0 l/m² 14,3 km/h (3 Bft) W-SW 245 ° 0 min 0 W/m² 1,1 °C -2,5 °C 19,3 km/h (3 Bft)
27.01.2024 06:59 21,4 °C 3,4 °C 50 % 85 % 1032,4 hPa 0,0 l/m² 14,3 km/h (3 Bft) W-SW 240 ° 0 min 0 W/m² 1,1 °C -2,5 °C 19,3 km/h (3 Bft)
27.01.2024 07:01 21,3 °C 3,4 °C 50 % 85 % 1032,3 hPa 0,0 l/m² 12,6 km/h (3 Bft) W-SW 241 ° 0 min 0 W/m² 1,1 °C -1,5 °C 17,7 km/h (3 Bft)
27.01.2024 07:03 21,4 °C 3,4 °C 50 % 85 % 1032,3 hPa 0,0 l/m² 13,8 km/h (3 Bft) W-SW 244 ° 0 min 0 W/m² 1,1 °C -2,2 °C 17,7 km/h (3 Bft)
27.01.2024 07:05 21,4 °C 3,3 °C 50 % 85 % 1032,3 hPa 0,0 l/m² 11,8 km/h (2 Bft) SW 232 ° 0 min 0 W/m² 1,0 °C -1,1 °C 16,1 km/h (3 Bft)
27.01.2024 07:07 21,4 °C 3,3 °C 50 % 85 % 1032,3 hPa 0,0 l/m² 11,6 km/h (2 Bft) SW 229 ° 0 min 0 W/m² 1,0 °C -0,9 °C 17,7 km/h (3 Bft)
27.01.2024 07:09 21,3 °C 3,3 °C 50 % 85 % 1032,3 hPa 0,0 l/m² 11,1 km/h (2 Bft) W-SW 246 ° 0 min 0 W/m² 1,0 °C -0,6 °C 17,7 km/h (3 Bft)
27.01.2024 07:10 21,4 °C 3,3 °C 50 % 85 % 1032,3 hPa 0,0 l/m² 9,7 km/h (2 Bft) W-SW 240 ° 0 min 0 W/m² 1,0 °C 0,4 °C 14,5 km/h (3 Bft)
27.01.2024 07:12 21,4 °C 3,3 °C 50 % 85 % 1032,3 hPa 0,0 l/m² 9,7 km/h (2 Bft) SW 235 ° 0 min 0 W/m² 1,0 °C 0,4 °C 12,9 km/h (3 Bft)
27.01.2024 07:14 21,3 °C 3,2 °C 50 % 85 % 1032,3 hPa 0,0 l/m² 8,6 km/h (2 Bft) W-SW 237 ° 0 min 0 W/m² 0,9 °C 1,2 °C 11,3 km/h (2 Bft)
27.01.2024 07:16 21,3 °C 3,2 °C 50 % 85 % 1032,4 hPa 0,0 l/m² 8,4 km/h (2 Bft) W-SW 237 ° 0 min 0 W/m² 0,9 °C 1,4 °C 11,3 km/h (2 Bft)
27.01.2024 07:18 21,4 °C 3,2 °C 50 % 85 % 1032,4 hPa 0,0 l/m² 10,7 km/h (2 Bft) SW 232 ° 0 min 0 W/m² 0,9 °C -0,4 °C 14,5 km/h (3 Bft)
27.01.2024 07:20 21,4 °C 3,2 °C 50 % 86 % 1032,3 hPa 0,0 l/m² 10,3 km/h (2 Bft) SW 219 ° 0 min 0 W/m² 1,1 °C -0,1 °C 17,7 km/h (3 Bft)
27.01.2024 07:22 21,4 °C 3,2 °C 50 % 86 % 1032,5 hPa 0,0 l/m² 10,2 km/h (2 Bft) SW 232 ° 0 min 0 W/m² 1,1 °C -0,1 °C 16,1 km/h (3 Bft)
27.01.2024 07:24 21,4 °C 3,2 °C 50 % 86 % 1032,4 hPa 0,0 l/m² 10,4 km/h (2 Bft) W-SW 244 ° 0 min 0 W/m² 1,1 °C -0,2 °C 17,7 km/h (3 Bft)
27.01.2024 07:26 21,4 °C 3,1 °C 50 % 86 % 1032,4 hPa 0,0 l/m² 8,8 km/h (2 Bft) SW 232 ° 0 min 0 W/m² 1,0 °C 0,9 °C 14,5 km/h (3 Bft)
27.01.2024 07:28 21,4 °C 3,1 °C 50 % 86 % 1032,4 hPa 0,0 l/m² 9,6 km/h (2 Bft) SW 232 ° 0 min 0 W/m² 1,0 °C 0,3 °C 16,1 km/h (3 Bft)
27.01.2024 07:30 21,4 °C 3,1 °C 50 % 86 % 1032,4 hPa 0,0 l/m² 13,4 km/h (3 Bft) W-SW 241 ° 0 min 0 W/m² 1,0 °C -2,3 °C 19,3 km/h (3 Bft)
27.01.2024 07:31 21,3 °C 3,1 °C 50 % 86 % 1032,5 hPa 0,0 l/m² 12,9 km/h (3 Bft) W-SW 247 ° 0 min 0 W/m² 1,0 °C -2,0 °C 16,1 km/h (3 Bft)
27.01.2024 07:32 21,4 °C 3,1 °C 50 % 86 % 1032,4 hPa 0,0 l/m² 12,9 km/h (3 Bft) W-SW 247 ° 0 min 0 W/m² 1,0 °C -2,0 °C 16,1 km/h (3 Bft)
27.01.2024 07:33 21,3 °C 3,1 °C 50 % 86 % 1032,4 hPa 0,0 l/m² 12,9 km/h (3 Bft) W-SW 247 ° 0 min 0 W/m² 1,0 °C -2,0 °C 16,1 km/h (3 Bft)
27.01.2024 07:34 21,3 °C 3,1 °C 50 % 86 % 1032,4 hPa 0,0 l/m² 12,9 km/h (3 Bft) W-SW 247 ° 0 min 0 W/m² 1,0 °C -2,0 °C 14,5 km/h (3 Bft)
27.01.2024 07:35 21,3 °C 3,1 °C 50 % 86 % 1032,4 hPa 0,0 l/m² 12,9 km/h (3 Bft) W-SW 247 ° 0 min 0 W/m² 1,0 °C -2,0 °C 16,1 km/h (3 Bft)
27.01.2024 07:36 21,3 °C 3,1 °C 50 % 86 % 1032,4 hPa 0,0 l/m² 11,3 km/h (2 Bft) SW 225 ° 0 min 0 W/m² 1,0 °C -1,0 °C 16,1 km/h (3 Bft)
27.01.2024 07:37 21,3 °C 3,1 °C 50 % 86 % 1032,4 hPa 0,0 l/m² 12,9 km/h (3 Bft) SW 225 ° 0 min 0 W/m² 1,0 °C -2,0 °C 16,1 km/h (3 Bft)
27.01.2024 07:38 21,3 °C 3,1 °C 50 % 86 % 1032,5 hPa 0,0 l/m² 11,3 km/h (2 Bft) SW 225 ° 0 min 0 W/m² 1,0 °C -1,0 °C 16,1 km/h (3 Bft)
27.01.2024 07:39 21,3 °C 3,1 °C 50 % 86 % 1032,4 hPa 0,0 l/m² 12,9 km/h (3 Bft) W-SW 247 ° 0 min 0 W/m² 1,0 °C -2,0 °C 16,1 km/h (3 Bft)
27.01.2024 07:40 21,3 °C 3,1 °C 50 % 86 % 1032,5 hPa 0,0 l/m² 11,3 km/h (2 Bft) W-SW 247 ° 0 min 0 W/m² 1,0 °C -1,0 °C 12,9 km/h (3 Bft)
27.01.2024 07:41 21,3 °C 2,9 °C 50 % 86 % 1032,4 hPa 0,0 l/m² 11,3 km/h (2 Bft) W-SW 247 ° 0 min 0 W/m² 0,8 °C -1,2 °C 14,5 km/h (3 Bft)
27.01.2024 07:42 21,3 °C 2,9 °C 50 % 86 % 1032,5 hPa 0,0 l/m² 11,3 km/h (2 Bft) W-SW 247 ° 0 min 0 W/m² 0,8 °C -1,2 °C 17,7 km/h (3 Bft)
27.01.2024 07:43 21,3 °C 2,9 °C 50 % 86 % 1032,5 hPa 0,0 l/m² 9,7 km/h (2 Bft) W-SW 247 ° 0 min 0 W/m² 0,8 °C -0,0 °C 14,5 km/h (3 Bft)
27.01.2024 07:44 21,3 °C 2,9 °C 50 % 86 % 1032,5 hPa 0,0 l/m² 11,3 km/h (2 Bft) W-SW 247 ° 0 min 0 W/m² 0,8 °C -1,2 °C 14,5 km/h (3 Bft)
27.01.2024 07:45 21,3 °C 2,9 °C 50 % 86 % 1032,4 hPa 0,0 l/m² 11,3 km/h (2 Bft) W-SW 247 ° 0 min 0 W/m² 0,8 °C -1,2 °C 14,5 km/h (3 Bft)
27.01.2024 07:46 21,3 °C 2,8 °C 50 % 86 % 1032,4 hPa 0,0 l/m² 8,0 km/h (2 Bft) W-SW 247 ° 0 min 0 W/m² 0,7 °C 1,3 °C 14,5 km/h (3 Bft)
27.01.2024 07:47 21,2 °C 2,8 °C 50 % 86 % 1032,4 hPa 0,0 l/m² 9,7 km/h (2 Bft) W-SW 247 ° 0 min 0 W/m² 0,7 °C -0,1 °C 11,3 km/h (2 Bft)
27.01.2024 07:48 21,3 °C 2,8 °C 50 % 86 % 1032,4 hPa 0,0 l/m² 9,7 km/h (2 Bft) W-SW 247 ° 0 min 0 W/m² 0,7 °C -0,1 °C 12,9 km/h (3 Bft)
27.01.2024 07:49 21,2 °C 2,8 °C 50 % 86 % 1032,4 hPa 0,0 l/m² 8,0 km/h (2 Bft) W-SW 247 ° 0 min 0 W/m² 0,7 °C 1,3 °C 11,3 km/h (2 Bft)
27.01.2024 07:50 21,2 °C 2,8 °C 50 % 86 % 1032,4 hPa 0,0 l/m² 9,7 km/h (2 Bft) W-SW 247 ° 0 min 0 W/m² 0,7 °C -0,1 °C 14,5 km/h (3 Bft)
27.01.2024 07:51 21,2 °C 2,8 °C 50 % 86 % 1032,4 hPa 0,0 l/m² 9,7 km/h (2 Bft) W-SW 247 ° 0 min 0 W/m² 0,7 °C -0,1 °C 12,9 km/h (3 Bft)
27.01.2024 07:52 21,2 °C 2,7 °C 50 % 86 % 1032,5 hPa 0,0 l/m² 11,3 km/h (2 Bft) SW 225 ° 0 min 0 W/m² 0,6 °C -1,4 °C 16,1 km/h (3 Bft)
27.01.2024 07:53 21,2 °C 2,7 °C 50 % 86 % 1032,5 hPa 0,0 l/m² 9,7 km/h (2 Bft) W-SW 247 ° 0 min 0 W/m² 0,6 °C -0,2 °C 12,9 km/h (3 Bft)
27.01.2024 07:54 21,2 °C 2,7 °C 50 % 85 % 1032,5 hPa 0,0 l/m² 11,3 km/h (2 Bft) W-SW 247 ° 0 min 0 W/m² 0,4 °C -1,4 °C 14,5 km/h (3 Bft)
27.01.2024 07:55 21,2 °C 2,6 °C 50 % 85 % 1032,4 hPa 0,0 l/m² 11,3 km/h (2 Bft) W-SW 247 ° 0 min 0 W/m² 0,3 °C -1,5 °C 14,5 km/h (3 Bft)
27.01.2024 07:56 21,2 °C 2,6 °C 50 % 85 % 1032,5 hPa 0,0 l/m² 11,3 km/h (2 Bft) W-SW 247 ° 0 min 0 W/m² 0,3 °C -1,5 °C 14,5 km/h (3 Bft)
27.01.2024 07:57 21,2 °C 2,6 °C 50 % 85 % 1032,5 hPa 0,0 l/m² 9,7 km/h (2 Bft) W-SW 247 ° 0 min 5 W/m² 0,3 °C -0,3 °C 14,5 km/h (3 Bft)
27.01.2024 07:58 21,2 °C 2,6 °C 50 % 86 % 1032,6 hPa 0,0 l/m² 9,7 km/h (2 Bft) W-SW 247 ° 0 min 5 W/m² 0,5 °C -0,3 °C 14,5 km/h (3 Bft)
27.01.2024 07:59 21,2 °C 2,6 °C 50 % 86 % 1032,5 hPa 0,0 l/m² 11,3 km/h (2 Bft) W-SW 247 ° 0 min 5 W/m² 0,5 °C -1,5 °C 14,5 km/h (3 Bft)
27.01.2024 08:00 21,2 °C 2,5 °C 50 % 86 % 1032,6 hPa 0,0 l/m² 9,7 km/h (2 Bft) W-SW 247 ° 0 min 5 W/m² 0,4 °C -0,5 °C 14,5 km/h (3 Bft)
27.01.2024 08:01 21,2 °C 2,5 °C 50 % 86 % 1032,6 hPa 0,0 l/m² 9,7 km/h (2 Bft) W-SW 247 ° 0 min 5 W/m² 0,4 °C -0,5 °C 14,5 km/h (3 Bft)
27.01.2024 08:02 21,2 °C 2,4 °C 50 % 86 % 1032,6 hPa 0,0 l/m² 8,0 km/h (2 Bft) W-SW 247 ° 0 min 5 W/m² 0,3 °C 0,9 °C 12,9 km/h (3 Bft)
27.01.2024 08:03 21,2 °C 2,4 °C 50 % 86 % 1032,6 hPa 0,0 l/m² 6,4 km/h (2 Bft) W-SW 247 ° 0 min 7 W/m² 0,3 °C 2,4 °C 8,0 km/h (2 Bft)
27.01.2024 08:04 21,2 °C 2,4 °C 50 % 86 % 1032,6 hPa 0,0 l/m² 6,4 km/h (2 Bft) SW 225 ° 0 min 7 W/m² 0,3 °C 2,4 °C 8,0 km/h (2 Bft)
27.01.2024 08:05 21,2 °C 2,4 °C 50 % 86 % 1032,7 hPa 0,0 l/m² 4,8 km/h (1 Bft) SW 225 ° 0 min 7 W/m² 0,3 °C 2,4 °C 6,4 km/h (2 Bft)
27.01.2024 08:06 21,2 °C 2,4 °C 50 % 86 % 1032,7 hPa 0,0 l/m² 1,6 km/h (1 Bft) SW 225 ° 0 min 9 W/m² 0,3 °C 2,4 °C 4,8 km/h (1 Bft)
27.01.2024 08:07 21,2 °C 2,4 °C 50 % 86 % 1032,7 hPa 0,0 l/m² 3,2 km/h (1 Bft) SW 225 ° 0 min 9 W/m² 0,3 °C 2,4 °C 3,2 km/h (1 Bft)
27.01.2024 08:08 21,2 °C 2,3 °C 50 % 86 % 1032,8 hPa 0,0 l/m² 1,6 km/h (1 Bft) SW 225 ° 0 min 9 W/m² 0,2 °C 2,3 °C 3,2 km/h (1 Bft)
27.01.2024 08:09 21,2 °C 2,3 °C 50 % 86 % 1032,7 hPa 0,0 l/m² 1,6 km/h (1 Bft) SW 225 ° 0 min 11 W/m² 0,2 °C 2,3 °C 3,2 km/h (1 Bft)
27.01.2024 08:10 21,1 °C 2,3 °C 50 % 86 % 1032,8 hPa 0,0 l/m² 0,0 km/h (0 Bft) SW 225 ° 0 min 11 W/m² 0,2 °C 2,3 °C 1,6 km/h (1 Bft)
27.01.2024 08:11 21,2 °C 2,3 °C 50 % 86 % 1032,8 hPa 0,0 l/m² 3,2 km/h (1 Bft) SW 225 ° 0 min 11 W/m² 0,2 °C 2,3 °C 3,2 km/h (1 Bft)
27.01.2024 08:12 21,2 °C 2,3 °C 50 % 86 % 1032,7 hPa 0,0 l/m² 1,6 km/h (1 Bft) SW 225 ° 0 min 12 W/m² 0,2 °C 2,3 °C 3,2 km/h (1 Bft)
27.01.2024 08:13 21,1 °C 2,3 °C 50 % 86 % 1032,8 hPa 0,0 l/m² 3,2 km/h (1 Bft) SW 225 ° 0 min 12 W/m² 0,2 °C 2,3 °C 4,8 km/h (1 Bft)
27.01.2024 08:14 21,1 °C 2,3 °C 50 % 86 % 1032,7 hPa 0,0 l/m² 4,8 km/h (1 Bft) SW 225 ° 0 min 12 W/m² 0,2 °C 2,3 °C 6,4 km/h (2 Bft)
27.01.2024 08:15 21,1 °C 2,3 °C 50 % 86 % 1032,7 hPa 0,0 l/m² 6,4 km/h (2 Bft) SW 225 ° 0 min 14 W/m² 0,2 °C 2,3 °C 6,4 km/h (2 Bft)
27.01.2024 08:16 21,1 °C 2,2 °C 50 % 86 % 1032,8 hPa 0,0 l/m² 4,8 km/h (1 Bft) SW 225 ° 0 min 14 W/m² 0,1 °C 2,2 °C 6,4 km/h (2 Bft)
27.01.2024 08:17 21,2 °C 2,2 °C 50 % 86 % 1032,7 hPa 0,0 l/m² 4,8 km/h (1 Bft) SW 225 ° 0 min 14 W/m² 0,1 °C 2,2 °C 8,0 km/h (2 Bft)
27.01.2024 08:18 21,1 °C 2,2 °C 50 % 86 % 1032,8 hPa 0,0 l/m² 4,8 km/h (1 Bft) SW 225 ° 0 min 16 W/m² 0,1 °C 2,2 °C 6,4 km/h (2 Bft)
27.01.2024 08:19 21,1 °C 2,2 °C 50 % 86 % 1032,8 hPa 0,0 l/m² 4,8 km/h (1 Bft) SW 225 ° 0 min 16 W/m² 0,1 °C 2,2 °C 6,4 km/h (2 Bft)
27.01.2024 08:20 21,1 °C 2,1 °C 50 % 86 % 1032,8 hPa 0,0 l/m² 4,8 km/h (1 Bft) SW 225 ° 0 min 18 W/m² 0,0 °C 2,1 °C 6,4 km/h (2 Bft)
27.01.2024 08:21 21,1 °C 2,1 °C 50 % 86 % 1032,7 hPa 0,0 l/m² 4,8 km/h (1 Bft) SW 225 ° 0 min 18 W/m² 0,0 °C 2,1 °C 6,4 km/h (2 Bft)
27.01.2024 08:22 21,1 °C 2,1 °C 50 % 86 % 1032,8 hPa 0,0 l/m² 4,8 km/h (1 Bft) SW 225 ° 0 min 18 W/m² 0,0 °C 2,1 °C 6,4 km/h (2 Bft)
27.01.2024 08:23 21,1 °C 2,0 °C 50 % 86 % 1032,7 hPa 0,0 l/m² 4,8 km/h (1 Bft) SW 225 ° 0 min 19 W/m² -0,1 °C 2,0 °C 6,4 km/h (2 Bft)
27.01.2024 08:24 21,1 °C 2,0 °C 50 % 86 % 1032,8 hPa 0,0 l/m² 4,8 km/h (1 Bft) SW 225 ° 0 min 19 W/m² -0,1 °C 2,0 °C 6,4 km/h (2 Bft)
27.01.2024 08:25 21,1 °C 2,0 °C 50 % 86 % 1032,8 hPa 0,0 l/m² 1,6 km/h (1 Bft) SW 225 ° 0 min 21 W/m² -0,1 °C 2,0 °C 3,2 km/h (1 Bft)
27.01.2024 08:26 21,1 °C 2,0 °C 50 % 86 % 1032,7 hPa 0,0 l/m² 3,2 km/h (1 Bft) SW 225 ° 0 min 21 W/m² -0,1 °C 2,0 °C 6,4 km/h (2 Bft)
27.01.2024 08:27 21,1 °C 2,0 °C 50 % 86 % 1032,8 hPa 0,0 l/m² 3,2 km/h (1 Bft) SW 225 ° 0 min 21 W/m² -0,1 °C 2,0 °C 4,8 km/h (1 Bft)
27.01.2024 08:28 21,1 °C 2,0 °C 50 % 86 % 1032,7 hPa 0,0 l/m² 3,2 km/h (1 Bft) SW 225 ° 0 min 23 W/m² -0,1 °C 2,0 °C 6,4 km/h (2 Bft)
27.01.2024 08:29 21,1 °C 1,9 °C 50 % 86 % 1032,8 hPa 0,0 l/m² 4,8 km/h (1 Bft) SW 225 ° 0 min 23 W/m² -0,2 °C 1,9 °C 6,4 km/h (2 Bft)
27.01.2024 08:30 21,1 °C 1,9 °C 50 % 86 % 1032,8 hPa 0,0 l/m² 4,8 km/h (1 Bft) SW 225 ° 0 min 25 W/m² -0,2 °C 1,9 °C 6,4 km/h (2 Bft)
27.01.2024 08:31 21,1 °C 1,9 °C 50 % 87 % 1032,8 hPa 0,0 l/m² 6,4 km/h (2 Bft) SW 225 ° 0 min 26 W/m² -0,0 °C 1,9 °C 8,0 km/h (2 Bft)
27.01.2024 08:32 21,1 °C 1,9 °C 50 % 87 % 1032,8 hPa 0,0 l/m² 4,8 km/h (1 Bft) SW 225 ° 0 min 28 W/m² -0,0 °C 1,9 °C 8,0 km/h (2 Bft)
27.01.2024 08:33 21,1 °C 1,9 °C 50 % 87 % 1032,8 hPa 0,0 l/m² 4,8 km/h (1 Bft) SW 225 ° 0 min 30 W/m² -0,0 °C 1,9 °C 6,4 km/h (2 Bft)
27.01.2024 08:34 21,1 °C 1,9 °C 50 % 87 % 1032,8 hPa 0,0 l/m² 6,4 km/h (2 Bft) SW 225 ° 0 min 30 W/m² -0,0 °C 1,9 °C 8,0 km/h (2 Bft)
27.01.2024 08:35 21,1 °C 1,9 °C 49 % 87 % 1032,9 hPa 0,0 l/m² 4,8 km/h (1 Bft) SW 225 ° 0 min 32 W/m² -0,0 °C 1,9 °C 6,4 km/h (2 Bft)
27.01.2024 08:36 21,1 °C 1,9 °C 49 % 88 % 1032,8 hPa 0,0 l/m² 3,2 km/h (1 Bft) SW 225 ° 0 min 33 W/m² 0,1 °C 1,9 °C 4,8 km/h (1 Bft)
27.01.2024 08:37 21,1 °C 1,9 °C 48 % 88 % 1032,8 hPa 0,0 l/m² 4,8 km/h (1 Bft) SW 225 ° 0 min 35 W/m² 0,1 °C 1,9 °C 6,4 km/h (2 Bft)
27.01.2024 08:38 21,1 °C 2,0 °C 48 % 88 % 1032,8 hPa 0,0 l/m² 4,8 km/h (1 Bft) SW 225 ° 0 min 37 W/m² 0,2 °C 2,0 °C 8,0 km/h (2 Bft)
27.01.2024 08:39 21,1 °C 2,0 °C 48 % 88 % 1032,9 hPa 0,0 l/m² 4,8 km/h (1 Bft) SW 225 ° 0 min 39 W/m² 0,2 °C 2,0 °C 6,4 km/h (2 Bft)
27.01.2024 08:40 21,1 °C 2,1 °C 49 % 88 % 1032,9 hPa 0,0 l/m² 3,2 km/h (1 Bft) SW 225 ° 0 min 40 W/m² 0,3 °C 2,1 °C 4,8 km/h (1 Bft)
27.01.2024 08:41 21,1 °C 2,1 °C 49 % 88 % 1032,9 hPa 0,0 l/m² 4,8 km/h (1 Bft) SW 225 ° 0 min 42 W/m² 0,3 °C 2,1 °C 8,0 km/h (2 Bft)
27.01.2024 08:42 21,1 °C 2,1 °C 48 % 88 % 1033,1 hPa 0,0 l/m² 4,8 km/h (1 Bft) SW 225 ° 0 min 44 W/m² 0,3 °C 2,1 °C 6,4 km/h (2 Bft)
27.01.2024 08:43 21,1 °C 2,1 °C 48 % 88 % 1033,0 hPa 0,0 l/m² 4,8 km/h (1 Bft) SW 225 ° 0 min 44 W/m² 0,3 °C 2,1 °C 6,4 km/h (2 Bft)
27.01.2024 08:44 21,1 °C 2,2 °C 48 % 88 % 1033,0 hPa 0,0 l/m² 4,8 km/h (1 Bft) SW 225 ° 0 min 47 W/m² 0,4 °C 2,2 °C 6,4 km/h (2 Bft)
27.01.2024 08:45 21,1 °C 2,2 °C 49 % 88 % 1033,1 hPa 0,0 l/m² 4,8 km/h (1 Bft) SW 225 ° 0 min 47 W/m² 0,4 °C 2,2 °C 8,0 km/h (2 Bft)
27.01.2024 08:46 21,1 °C 2,2 °C 49 % 88 % 1033,0 hPa 0,0 l/m² 6,4 km/h (2 Bft) SW 225 ° 0 min 49 W/m² 0,4 °C 2,2 °C 9,7 km/h (2 Bft)
27.01.2024 08:47 21,1 °C 2,2 °C 49 % 88 % 1033,0 hPa 0,0 l/m² 8,0 km/h (2 Bft) SW 225 ° 0 min 51 W/m² 0,4 °C 0,7 °C 8,0 km/h (2 Bft)
27.01.2024 08:48 21,0 °C 2,2 °C 48 % 88 % 1033,1 hPa 0,0 l/m² 8,0 km/h (2 Bft) SW 225 ° 1 min 53 W/m² 0,4 °C 0,7 °C 11,3 km/h (2 Bft)
27.01.2024 08:49 21,1 °C 2,2 °C 48 % 88 % 1033,0 hPa 0,0 l/m² 8,0 km/h (2 Bft) W-SW 247 ° 1 min 53 W/m² 0,4 °C 0,7 °C 8,0 km/h (2 Bft)
27.01.2024 08:50 21,1 °C 2,2 °C 48 % 88 % 1033,0 hPa 0,0 l/m² 8,0 km/h (2 Bft) W-SW 247 ° 1 min 54 W/m² 0,4 °C 0,7 °C 11,3 km/h (2 Bft)
27.01.2024 08:51 21,1 °C 2,3 °C 48 % 88 % 1033,0 hPa 0,0 l/m² 8,0 km/h (2 Bft) W-SW 247 ° 1 min 54 W/m² 0,5 °C 0,8 °C 9,7 km/h (2 Bft)
27.01.2024 08:52 21,1 °C 2,2 °C 48 % 87 % 1033,1 hPa 0,0 l/m² 6,4 km/h (2 Bft) W-SW 247 ° 1 min 54 W/m² 0,3 °C 2,2 °C 8,0 km/h (2 Bft)
27.01.2024 08:53 21,1 °C 2,2 °C 48 % 87 % 1033,0 hPa 0,0 l/m² 8,0 km/h (2 Bft) W-SW 247 ° 1 min 56 W/m² 0,3 °C 0,7 °C 12,9 km/h (3 Bft)
27.01.2024 08:54 21,1 °C 2,2 °C 48 % 87 % 1032,9 hPa 0,0 l/m² 8,0 km/h (2 Bft) W-SW 247 ° 1 min 58 W/m² 0,3 °C 0,7 °C 11,3 km/h (2 Bft)
27.01.2024 08:55 21,0 °C 2,2 °C 48 % 87 % 1033,1 hPa 0,0 l/m² 8,0 km/h (2 Bft) W-SW 247 ° 1 min 60 W/m² 0,3 °C 0,7 °C 11,3 km/h (2 Bft)
27.01.2024 08:56 21,1 °C 2,2 °C 48 % 87 % 1033,1 hPa 0,0 l/m² 8,0 km/h (2 Bft) W-SW 247 ° 1 min 60 W/m² 0,3 °C 0,7 °C 11,3 km/h (2 Bft)
27.01.2024 08:57 21,1 °C 2,2 °C 48 % 88 % 1033,0 hPa 0,0 l/m² 6,4 km/h (2 Bft) W-SW 247 ° 1 min 62 W/m² 0,4 °C 2,2 °C 11,3 km/h (2 Bft)
27.01.2024 08:58 21,1 °C 2,2 °C 48 % 88 % 1033,0 hPa 0,0 l/m² 8,0 km/h (2 Bft) W-SW 247 ° 1 min 63 W/m² 0,4 °C 0,7 °C 12,9 km/h (3 Bft)
27.01.2024 08:59 21,1 °C 2,2 °C 48 % 88 % 1033,0 hPa 0,0 l/m² 8,0 km/h (2 Bft) W-SW 247 ° 1 min 67 W/m² 0,4 °C 0,7 °C 11,3 km/h (2 Bft)
27.01.2024 09:00 21,1 °C 2,3 °C 48 % 88 % 1033,1 hPa 0,0 l/m² 8,0 km/h (2 Bft) W-SW 247 ° 1 min 69 W/m² 0,5 °C 0,8 °C 11,3 km/h (2 Bft)
27.01.2024 09:01 21,1 °C 2,3 °C 48 % 88 % 1033,1 hPa 0,0 l/m² 6,4 km/h (2 Bft) W-SW 247 ° 1 min 70 W/m² 0,5 °C 2,3 °C 8,0 km/h (2 Bft)
27.01.2024 09:02 21,1 °C 2,4 °C 48 % 88 % 1033,0 hPa 0,0 l/m² 8,0 km/h (2 Bft) W-SW 247 ° 1 min 72 W/m² 0,6 °C 0,9 °C 12,9 km/h (3 Bft)
27.01.2024 09:03 21,1 °C 2,4 °C 49 % 88 % 1033,1 hPa 0,0 l/m² 8,0 km/h (2 Bft) W-SW 247 ° 1 min 74 W/m² 0,6 °C 0,9 °C 11,3 km/h (2 Bft)
27.01.2024 09:04 21,1 °C 2,5 °C 49 % 88 % 1033,1 hPa 0,0 l/m² 8,0 km/h (2 Bft) W-SW 247 ° 1 min 76 W/m² 0,7 °C 1,0 °C 11,3 km/h (2 Bft)
27.01.2024 09:05 21,1 °C 2,6 °C 49 % 88 % 1033,2 hPa 0,0 l/m² 6,4 km/h (2 Bft) W-SW 247 ° 1 min 79 W/m² 0,8 °C 2,6 °C 11,3 km/h (2 Bft)
27.01.2024 09:06 21,1 °C 2,6 °C 49 % 88 % 1033,2 hPa 0,0 l/m² 6,4 km/h (2 Bft) W-SW 247 ° 1 min 81 W/m² 0,8 °C 2,6 °C 8,0 km/h (2 Bft)
27.01.2024 09:07 21,1 °C 2,6 °C 49 % 87 % 1033,2 hPa 0,0 l/m² 6,4 km/h (2 Bft) W-SW 247 ° 1 min 83 W/m² 0,7 °C 2,6 °C 11,3 km/h (2 Bft)
27.01.2024 09:08 21,2 °C 2,6 °C 49 % 87 % 1033,3 hPa 0,0 l/m² 8,0 km/h (2 Bft) W-SW 247 ° 1 min 84 W/m² 0,7 °C 1,1 °C 11,3 km/h (2 Bft)
27.01.2024 09:09 21,2 °C 2,7 °C 49 % 87 % 1033,2 hPa 0,0 l/m² 9,7 km/h (2 Bft) W-SW 247 ° 1 min 86 W/m² 0,8 °C -0,2 °C 11,3 km/h (2 Bft)
27.01.2024 09:10 21,2 °C 2,8 °C 49 % 87 % 1033,3 hPa 0,0 l/m² 8,0 km/h (2 Bft) W-SW 247 ° 1 min 88 W/m² 0,9 °C 1,3 °C 11,3 km/h (2 Bft)
27.01.2024 09:11 21,2 °C 2,8 °C 49 % 87 % 1033,3 hPa 0,0 l/m² 9,7 km/h (2 Bft) W-SW 247 ° 1 min 91 W/m² 0,9 °C -0,1 °C 12,9 km/h (3 Bft)
27.01.2024 09:12 21,2 °C 2,8 °C 49 % 87 % 1033,3 hPa 0,0 l/m² 8,0 km/h (2 Bft) W-SW 247 ° 1 min 93 W/m² 0,9 °C 1,3 °C 11,3 km/h (2 Bft)
27.01.2024 09:13 21,2 °C 2,9 °C 49 % 87 % 1033,3 hPa 0,0 l/m² 9,7 km/h (2 Bft) W-SW 247 ° 1 min 95 W/m² 1,0 °C -0,0 °C 12,9 km/h (3 Bft)
27.01.2024 09:14 21,2 °C 2,9 °C 49 % 87 % 1033,4 hPa 0,0 l/m² 9,7 km/h (2 Bft) W-SW 247 ° 1 min 97 W/m² 1,0 °C -0,0 °C 14,5 km/h (3 Bft)
27.01.2024 09:15 21,2 °C 3,0 °C 49 % 87 % 1033,3 hPa 0,0 l/m² 8,0 km/h (2 Bft) W-SW 247 ° 1 min 98 W/m² 1,1 °C 1,5 °C 12,9 km/h (3 Bft)
27.01.2024 09:20 21,3 °C 3,3 °C 49 % 86 % 1033,4 hPa 0,0 l/m² 11,4 km/h (2 Bft) W-SW 240 ° 5 min 109 W/m² 1,2 °C -0,8 °C 12,9 km/h (3 Bft)
27.01.2024 09:22 21,3 °C 3,4 °C 49 % 87 % 1033,5 hPa 0,0 l/m² 8,9 km/h (2 Bft) W-SW 238 ° 2 min 114 W/m² 1,4 °C 1,2 °C 12,9 km/h (3 Bft)
27.01.2024 09:23 21,3 °C 3,4 °C 49 % 86 % 1033,5 hPa 0,0 l/m² 7,2 km/h (2 Bft) SW 230 ° 1 min 118 W/m² 1,3 °C 2,7 °C 11,3 km/h (2 Bft)
27.01.2024 09:24 21,3 °C 3,4 °C 49 % 86 % 1033,5 hPa 0,0 l/m² 10,5 km/h (2 Bft) W-SW 238 ° 1 min 120 W/m² 1,3 °C -0,1 °C 14,5 km/h (3 Bft)
27.01.2024 09:26 21,4 °C 3,6 °C 49 % 86 % 1033,4 hPa 0,0 l/m² 10,9 km/h (2 Bft) W-SW 239 ° 2 min 123 W/m² 1,5 °C -0,1 °C 14,5 km/h (3 Bft)
27.01.2024 09:28 21,4 °C 3,6 °C 49 % 86 % 1033,4 hPa 0,0 l/m² 10,8 km/h (2 Bft) W-SW 240 ° 2 min 128 W/m² 1,5 °C -0,1 °C 17,7 km/h (3 Bft)
27.01.2024 09:30 21,4 °C 3,7 °C 49 % 86 % 1033,4 hPa 0,0 l/m² 11,8 km/h (2 Bft) W-SW 238 ° 2 min 134 W/m² 1,6 °C -0,6 °C 16,1 km/h (3 Bft)
27.01.2024 09:31 21,4 °C 3,7 °C 49 % 86 % 1033,4 hPa 0,0 l/m² 12,3 km/h (2 Bft) W-SW 237 ° 1 min 135 W/m² 1,6 °C -0,9 °C 19,3 km/h (3 Bft)
27.01.2024 09:32 21,4 °C 3,8 °C 49 % 86 % 1033,4 hPa 0,0 l/m² 9,4 km/h (2 Bft) SW 232 ° 1 min 137 W/m² 1,7 °C 1,2 °C 12,9 km/h (3 Bft)
27.01.2024 09:33 21,4 °C 3,8 °C 49 % 86 % 1033,4 hPa 0,0 l/m² 11,6 km/h (2 Bft) SW 231 ° 1 min 139 W/m² 1,7 °C -0,4 °C 14,5 km/h (3 Bft)
27.01.2024 09:35 21,4 °C 3,9 °C 49 % 86 % 1033,5 hPa 0,0 l/m² 10,1 km/h (2 Bft) W-SW 238 ° 2 min 144 W/m² 1,8 °C 0,8 °C 14,5 km/h (3 Bft)
27.01.2024 09:37 21,5 °C 4,0 °C 49 % 85 % 1033,4 hPa 0,0 l/m² 10,7 km/h (2 Bft) W-SW 248 ° 2 min 148 W/m² 1,7 °C 0,5 °C 16,1 km/h (3 Bft)
27.01.2024 09:39 21,4 °C 4,1 °C 49 % 85 % 1033,5 hPa 0,0 l/m² 13,0 km/h (3 Bft) W-SW 257 ° 2 min 153 W/m² 1,8 °C -0,9 °C 19,3 km/h (3 Bft)
27.01.2024 09:40 21,5 °C 4,1 °C 49 % 85 % 1033,4 hPa 0,0 l/m² 14,2 km/h (3 Bft) SW 236 ° 1 min 156 W/m² 1,8 °C -1,6 °C 16,1 km/h (3 Bft)
27.01.2024 09:42 21,5 °C 4,2 °C 49 % 85 % 1033,4 hPa 0,0 l/m² 12,2 km/h (2 Bft) W 259 ° 2 min 160 W/m² 1,9 °C -0,3 °C 16,1 km/h (3 Bft)
27.01.2024 09:44 21,5 °C 4,3 °C 49 % 85 % 1033,5 hPa 0,0 l/m² 13,8 km/h (3 Bft) SW 226 ° 2 min 163 W/m² 2,0 °C -1,1 °C 17,7 km/h (3 Bft)
27.01.2024 09:46 21,6 °C 4,3 °C 50 % 85 % 1033,5 hPa 0,0 l/m² 13,6 km/h (3 Bft) SW 220 ° 2 min 171 W/m² 2,0 °C -1,0 °C 19,3 km/h (3 Bft)
27.01.2024 09:48 21,6 °C 4,4 °C 50 % 85 % 1033,5 hPa 0,0 l/m² 14,1 km/h (3 Bft) W-SW 247 ° 2 min 174 W/m² 2,1 °C -1,2 °C 20,9 km/h (4 Bft)
27.01.2024 09:49 21,6 °C 4,4 °C 50 % 85 % 1033,6 hPa 0,0 l/m² 13,3 km/h (3 Bft) SW 232 ° 1 min 176 W/m² 2,1 °C -0,7 °C 19,3 km/h (3 Bft)
27.01.2024 09:50 21,6 °C 4,5 °C 50 % 84 % 1033,6 hPa 0,0 l/m² 16,9 km/h (3 Bft) W-SW 238 ° 1 min 178 W/m² 2,0 °C -2,5 °C 22,5 km/h (4 Bft)
27.01.2024 09:53 21,6 °C 4,6 °C 50 % 84 % 1033,7 hPa 0,0 l/m² 15,4 km/h (3 Bft) SW 236 ° 3 min 186 W/m² 2,1 °C -1,6 °C 20,9 km/h (4 Bft)
27.01.2024 09:55 21,6 °C 4,7 °C 50 % 84 % 1033,7 hPa 0,0 l/m² 15,8 km/h (3 Bft) SW 236 ° 2 min 190 W/m² 2,2 °C -1,7 °C 20,9 km/h (4 Bft)
27.01.2024 09:57 21,6 °C 4,7 °C 50 % 84 % 1033,7 hPa 0,0 l/m² 14,7 km/h (3 Bft) W-SW 238 ° 2 min 193 W/m² 2,2 °C -1,1 °C 19,3 km/h (3 Bft)
27.01.2024 09:59 21,7 °C 4,7 °C 50 % 84 % 1033,7 hPa 0,0 l/m² 12,0 km/h (2 Bft) W-SW 245 ° 2 min 199 W/m² 2,2 °C 0,4 °C 16,1 km/h (3 Bft)
27.01.2024 10:00 21,7 °C 4,8 °C 50 % 84 % 1033,8 hPa 0,0 l/m² 10,3 km/h (2 Bft) W-SW 240 ° 1 min 200 W/m² 2,3 °C 1,6 °C 14,5 km/h (3 Bft)
27.01.2024 10:02 21,7 °C 4,9 °C 50 % 84 % 1033,9 hPa 0,0 l/m² 12,4 km/h (2 Bft) W-SW 252 ° 2 min 206 W/m² 2,4 °C 0,4 °C 19,3 km/h (3 Bft)
27.01.2024 10:04 21,7 °C 4,9 °C 50 % 84 % 1033,9 hPa 0,0 l/m² 9,4 km/h (2 Bft) SW 227 ° 2 min 209 W/m² 2,4 °C 2,4 °C 12,9 km/h (3 Bft)
27.01.2024 10:06 21,7 °C 5,0 °C 49 % 83 % 1033,8 hPa 0,0 l/m² 11,9 km/h (2 Bft) W-SW 244 ° 2 min 214 W/m² 2,4 °C 0,8 °C 17,7 km/h (3 Bft)
27.01.2024 10:08 21,7 °C 5,1 °C 49 % 83 % 1033,9 hPa 0,0 l/m² 11,0 km/h (2 Bft) W-SW 252 ° 2 min 218 W/m² 2,5 °C 1,5 °C 17,7 km/h (3 Bft)
27.01.2024 10:10 21,7 °C 5,2 °C 49 % 83 % 1033,8 hPa 0,0 l/m² 12,3 km/h (2 Bft) W-SW 246 ° 2 min 223 W/m² 2,6 °C 0,8 °C 17,7 km/h (3 Bft)
27.01.2024 10:11 21,7 °C 5,2 °C 49 % 83 % 1033,9 hPa 0,0 l/m² 16,5 km/h (3 Bft) W-SW 252 ° 1 min 225 W/m² 2,6 °C -1,4 °C 20,9 km/h (4 Bft)
27.01.2024 10:13 21,7 °C 5,2 °C 49 % 83 % 1033,9 hPa 0,0 l/m² 12,7 km/h (3 Bft) SW 221 ° 2 min 229 W/m² 2,6 °C 0,6 °C 16,1 km/h (3 Bft)
27.01.2024 10:15 21,7 °C 5,3 °C 49 % 83 % 1033,9 hPa 0,0 l/m² 9,7 km/h (2 Bft) SW 236 ° 2 min 234 W/m² 2,7 °C 2,6 °C 16,1 km/h (3 Bft)
27.01.2024 10:17 21,7 °C 5,3 °C 49 % 83 % 1033,9 hPa 0,0 l/m² 11,1 km/h (2 Bft) SW 230 ° 2 min 237 W/m² 2,7 °C 1,7 °C 19,3 km/h (3 Bft)
27.01.2024 10:19 21,7 °C 5,4 °C 49 % 83 % 1034,0 hPa 0,0 l/m² 11,6 km/h (2 Bft) SW 230 ° 2 min 239 W/m² 2,7 °C 1,5 °C 16,1 km/h (3 Bft)
27.01.2024 10:20 21,7 °C 5,4 °C 49 % 82 % 1034,0 hPa 0,0 l/m² 13,5 km/h (3 Bft) W-SW 237 ° 1 min 243 W/m² 2,6 °C 0,4 °C 19,3 km/h (3 Bft)
27.01.2024 10:22 21,8 °C 5,4 °C 49 % 82 % 1033,9 hPa 0,0 l/m² 13,4 km/h (3 Bft) SW 231 ° 2 min 248 W/m² 2,6 °C 0,4 °C 17,7 km/h (3 Bft)
27.01.2024 10:24 21,8 °C 5,4 °C 49 % 82 % 1033,9 hPa 0,0 l/m² 13,9 km/h (3 Bft) SW 225 ° 2 min 251 W/m² 2,6 °C 0,1 °C 20,9 km/h (4 Bft)
27.01.2024 10:26 21,8 °C 5,4 °C 49 % 81 % 1034,0 hPa 0,0 l/m² 14,4 km/h (3 Bft) S-SW 213 ° 2 min 253 W/m² 2,4 °C -0,1 °C 19,3 km/h (3 Bft)
27.01.2024 10:28 21,8 °C 5,4 °C 49 % 82 % 1033,9 hPa 0,0 l/m² 13,7 km/h (3 Bft) SW 223 ° 2 min 258 W/m² 2,6 °C 0,2 °C 20,9 km/h (4 Bft)
27.01.2024 10:30 21,8 °C 5,5 °C 49 % 82 % 1033,9 hPa 0,0 l/m² 12,9 km/h (3 Bft) SW 230 ° 2 min 264 W/m² 2,7 °C 0,8 °C 17,7 km/h (3 Bft)
27.01.2024 10:31 21,8 °C 5,6 °C 49 % 82 % 1034,0 hPa 0,0 l/m² 12,7 km/h (3 Bft) W-SW 238 ° 1 min 264 W/m² 2,8 °C 1,0 °C 16,1 km/h (3 Bft)
27.01.2024 10:32 21,8 °C 5,6 °C 49 % 82 % 1034,0 hPa 0,0 l/m² 10,7 km/h (2 Bft) W-SW 244 ° 1 min 265 W/m² 2,8 °C 2,3 °C 16,1 km/h (3 Bft)
27.01.2024 10:33 21,8 °C 5,7 °C 49 % 82 % 1034,0 hPa 0,0 l/m² 12,2 km/h (2 Bft) SW 231 ° 1 min 267 W/m² 2,9 °C 1,4 °C 16,1 km/h (3 Bft)
27.01.2024 10:35 21,8 °C 5,7 °C 49 % 81 % 1034,0 hPa 0,0 l/m² 10,7 km/h (2 Bft) W-SW 237 ° 2 min 271 W/m² 2,7 °C 2,4 °C 14,5 km/h (3 Bft)
27.01.2024 10:37 21,8 °C 5,7 °C 48 % 82 % 1034,0 hPa 0,0 l/m² 7,8 km/h (2 Bft) SW 229 ° 2 min 272 W/m² 2,9 °C 4,5 °C 14,5 km/h (3 Bft)
27.01.2024 10:39 21,8 °C 5,8 °C 48 % 82 % 1034,0 hPa 0,0 l/m² 11,4 km/h (2 Bft) W-SW 250 ° 2 min 278 W/m² 3,0 °C 2,0 °C 19,3 km/h (3 Bft)
27.01.2024 10:40 21,8 °C 5,8 °C 48 % 81 % 1034,1 hPa 0,0 l/m² 16,3 km/h (3 Bft) W-SW 239 ° 1 min 278 W/m² 2,8 °C -0,6 °C 20,9 km/h (4 Bft)
27.01.2024 10:41 21,8 °C 5,8 °C 48 % 81 % 1034,1 hPa 0,0 l/m² 14,8 km/h (3 Bft) SW 227 ° 1 min 281 W/m² 2,8 °C 0,1 °C 19,3 km/h (3 Bft)
27.01.2024 10:42 21,8 °C 5,8 °C 48 % 81 % 1034,1 hPa 0,0 l/m² 13,8 km/h (3 Bft) W-SW 238 ° 1 min 281 W/m² 2,8 °C 0,7 °C 17,7 km/h (3 Bft)
27.01.2024 10:44 21,8 °C 5,8 °C 48 % 81 % 1034,0 hPa 0,0 l/m² 11,9 km/h (2 Bft) SW 224 ° 2 min 285 W/m² 2,8 °C 1,7 °C 19,3 km/h (3 Bft)
27.01.2024 10:46 21,8 °C 5,9 °C 48 % 81 % 1034,0 hPa 0,0 l/m² 13,4 km/h (3 Bft) W-SW 243 ° 2 min 288 W/m² 2,9 °C 1,0 °C 20,9 km/h (4 Bft)
27.01.2024 10:48 21,9 °C 6,0 °C 48 % 80 % 1034,1 hPa 0,0 l/m² 11,8 km/h (2 Bft) SW 232 ° 2 min 290 W/m² 2,8 °C 2,0 °C 20,9 km/h (4 Bft)
27.01.2024 10:50 21,9 °C 6,1 °C 48 % 81 % 1034,1 hPa 0,0 l/m² 11,8 km/h (2 Bft) W-SW 241 ° 2 min 295 W/m² 3,1 °C 2,1 °C 17,7 km/h (3 Bft)
27.01.2024 10:51 21,9 °C 6,1 °C 48 % 81 % 1034,0 hPa 0,0 l/m² 15,9 km/h (3 Bft) SW 232 ° 1 min 295 W/m² 3,1 °C -0,0 °C 20,9 km/h (4 Bft)
27.01.2024 10:53 21,9 °C 6,2 °C 48 % 81 % 1034,0 hPa 0,0 l/m² 14,2 km/h (3 Bft) SW 234 ° 2 min 297 W/m² 3,2 °C 0,9 °C 20,9 km/h (4 Bft)
27.01.2024 10:55 21,9 °C 6,3 °C 48 % 81 % 1034,1 hPa 0,0 l/m² 11,9 km/h (2 Bft) SW 234 ° 2 min 301 W/m² 3,3 °C 2,3 °C 17,7 km/h (3 Bft)
27.01.2024 10:57 21,9 °C 6,3 °C 48 % 80 % 1034,0 hPa 0,0 l/m² 14,3 km/h (3 Bft) SW 234 ° 2 min 302 W/m² 3,1 °C 1,0 °C 19,3 km/h (3 Bft)
27.01.2024 10:59 21,9 °C 6,3 °C 48 % 80 % 1034,1 hPa 0,0 l/m² 13,8 km/h (3 Bft) W-SW 239 ° 2 min 306 W/m² 3,1 °C 1,3 °C 17,7 km/h (3 Bft)
27.01.2024 11:00 21,9 °C 6,3 °C 48 % 80 % 1034,1 hPa 0,0 l/m² 15,2 km/h (3 Bft) SW 234 ° 1 min 306 W/m² 3,1 °C 0,6 °C 19,3 km/h (3 Bft)
27.01.2024 11:03 21,9 °C 6,4 °C 47 % 80 % 1034,1 hPa 0,0 l/m² 12,6 km/h (3 Bft) W-SW 244 ° 3 min 311 W/m² 3,2 °C 2,0 °C 19,3 km/h (3 Bft)
27.01.2024 11:05 21,9 °C 6,4 °C 47 % 80 % 1034,0 hPa 0,0 l/m² 11,1 km/h (2 Bft) SW 229 ° 2 min 311 W/m² 3,2 °C 2,9 °C 14,5 km/h (3 Bft)
27.01.2024 11:06 21,9 °C 6,4 °C 47 % 80 % 1034,0 hPa 0,0 l/m² 15,2 km/h (3 Bft) W-SW 242 ° 1 min 313 W/m² 3,2 °C 0,7 °C 19,3 km/h (3 Bft)
27.01.2024 11:07 21,9 °C 6,5 °C 47 % 80 % 1034,0 hPa 0,0 l/m² 12,0 km/h (2 Bft) W-SW 246 ° 1 min 315 W/m² 3,3 °C 2,5 °C 16,1 km/h (3 Bft)
27.01.2024 11:09 21,9 °C 6,5 °C 47 % 80 % 1034,1 hPa 0,0 l/m² 14,7 km/h (3 Bft) SW 221 ° 2 min 316 W/m² 3,3 °C 1,0 °C 19,3 km/h (3 Bft)
27.01.2024 11:10 21,9 °C 6,4 °C 47 % 80 % 1034,0 hPa 0,0 l/m² 11,6 km/h (2 Bft) W-SW 238 ° 1 min 318 W/m² 3,2 °C 2,6 °C 16,1 km/h (3 Bft)
27.01.2024 11:12 21,9 °C 6,4 °C 47 % 81 % 1034,0 hPa 0,0 l/m² 12,9 km/h (3 Bft) SW 229 ° 2 min 320 W/m² 3,4 °C 1,9 °C 19,3 km/h (3 Bft)
27.01.2024 11:14 21,9 °C 6,4 °C 47 % 80 % 1034,0 hPa 0,0 l/m² 14,2 km/h (3 Bft) SW 236 ° 2 min 323 W/m² 3,2 °C 1,2 °C 20,9 km/h (4 Bft)
27.01.2024 11:16 21,9 °C 6,5 °C 47 % 81 % 1034,0 hPa 0,0 l/m² 12,7 km/h (3 Bft) W-SW 246 ° 2 min 323 W/m² 3,5 °C 2,1 °C 17,7 km/h (3 Bft)
27.01.2024 11:18 21,9 °C 6,5 °C 47 % 80 % 1034,1 hPa 0,0 l/m² 17,5 km/h (3 Bft) W-SW 244 ° 2 min 325 W/m² 3,3 °C -0,2 °C 22,5 km/h (4 Bft)
27.01.2024 11:20 21,9 °C 6,6 °C 47 % 81 % 1034,0 hPa 0,0 l/m² 14,0 km/h (3 Bft) SW 236 ° 2 min 327 W/m² 3,6 °C 1,5 °C 19,3 km/h (3 Bft)
27.01.2024 11:21 21,9 °C 6,6 °C 47 % 81 % 1034,1 hPa 0,0 l/m² 13,9 km/h (3 Bft) W-SW 240 ° 1 min 330 W/m² 3,6 °C 1,6 °C 17,7 km/h (3 Bft)
27.01.2024 11:23 21,9 °C 6,6 °C 47 % 81 % 1034,1 hPa 0,0 l/m² 12,5 km/h (2 Bft) SW 234 ° 2 min 330 W/m² 3,6 °C 2,3 °C 17,7 km/h (3 Bft)
27.01.2024 11:25 21,9 °C 6,6 °C 46 % 80 % 1034,0 hPa 0,0 l/m² 14,1 km/h (3 Bft) SW 236 ° 2 min 332 W/m² 3,4 °C 1,5 °C 19,3 km/h (3 Bft)
27.01.2024 11:27 21,9 °C 6,8 °C 46 % 80 % 1034,1 hPa 0,0 l/m² 10,1 km/h (2 Bft) SW 226 ° 2 min 332 W/m² 3,6 °C 4,0 °C 14,5 km/h (3 Bft)
27.01.2024 11:29 21,9 °C 6,7 °C 46 % 80 % 1034,2 hPa 0,0 l/m² 13,0 km/h (3 Bft) SW 225 ° 2 min 330 W/m² 3,5 °C 2,2 °C 17,7 km/h (3 Bft)
27.01.2024 11:30 21,9 °C 6,8 °C 46 % 81 % 1034,3 hPa 0,0 l/m² 9,2 km/h (2 Bft) SW 225 ° 1 min 336 W/m² 3,8 °C 4,6 °C 12,9 km/h (3 Bft)
27.01.2024 11:32 21,9 °C 6,8 °C 46 % 80 % 1034,2 hPa 0,0 l/m² 13,9 km/h (3 Bft) SW 223 ° 2 min 336 W/m² 3,6 °C 1,8 °C 16,1 km/h (3 Bft)
27.01.2024 11:34 21,9 °C 6,7 °C 46 % 80 % 1034,2 hPa 0,0 l/m² 11,3 km/h (2 Bft) SW 218 ° 2 min 338 W/m² 3,5 °C 3,1 °C 17,7 km/h (3 Bft)
27.01.2024 11:36 21,9 °C 6,7 °C 46 % 80 % 1034,2 hPa 0,0 l/m² 12,8 km/h (3 Bft) SW 234 ° 2 min 339 W/m² 3,5 °C 2,3 °C 17,7 km/h (3 Bft)
27.01.2024 11:38 22,0 °C 6,7 °C 46 % 80 % 1034,2 hPa 0,0 l/m² 15,0 km/h (3 Bft) SW 228 ° 2 min 339 W/m² 3,5 °C 1,1 °C 22,5 km/h (4 Bft)
27.01.2024 11:40 22,0 °C 6,7 °C 46 % 80 % 1034,2 hPa 0,0 l/m² 13,7 km/h (3 Bft) SW 234 ° 2 min 341 W/m² 3,5 °C 1,8 °C 17,7 km/h (3 Bft)
27.01.2024 11:41 22,0 °C 6,7 °C 46 % 80 % 1034,2 hPa 0,0 l/m² 11,8 km/h (2 Bft) SW 236 ° 1 min 343 W/m² 3,5 °C 2,8 °C 17,7 km/h (3 Bft)
27.01.2024 11:42 22,0 °C 6,7 °C 46 % 80 % 1034,2 hPa 0,0 l/m² 11,7 km/h (2 Bft) SW 222 ° 1 min 345 W/m² 3,5 °C 2,9 °C 17,7 km/h (3 Bft)
27.01.2024 11:43 22,0 °C 6,8 °C 46 % 80 % 1034,2 hPa 0,0 l/m² 11,5 km/h (2 Bft) SW 221 ° 1 min 346 W/m² 3,6 °C 3,1 °C 17,7 km/h (3 Bft)
27.01.2024 11:45 22,0 °C 6,8 °C 46 % 80 % 1034,2 hPa 0,0 l/m² 14,6 km/h (3 Bft) SW 219 ° 2 min 346 W/m² 3,6 °C 1,5 °C 19,3 km/h (3 Bft)
27.01.2024 11:47 22,0 °C 6,9 °C 46 % 80 % 1034,2 hPa 0,0 l/m² 9,7 km/h (2 Bft) SW 232 ° 2 min 345 W/m² 3,7 °C 4,4 °C 16,1 km/h (3 Bft)
27.01.2024 11:49 22,0 °C 6,9 °C 46 % 80 % 1034,2 hPa 0,0 l/m² 12,4 km/h (2 Bft) SW 217 ° 2 min 350 W/m² 3,7 °C 2,7 °C 19,3 km/h (3 Bft)
27.01.2024 11:51 22,0 °C 7,0 °C 45 % 80 % 1034,2 hPa 0,0 l/m² 12,4 km/h (2 Bft) W-SW 252 ° 2 min 350 W/m² 3,8 °C 2,8 °C 17,7 km/h (3 Bft)
27.01.2024 11:52 22,0 °C 7,0 °C 45 % 80 % 1034,2 hPa 0,0 l/m² 11,4 km/h (2 Bft) W-SW 242 ° 1 min 348 W/m² 3,8 °C 3,4 °C 16,1 km/h (3 Bft)
27.01.2024 11:54 22,0 °C 7,1 °C 45 % 80 % 1034,1 hPa 0,0 l/m² 12,6 km/h (3 Bft) SW 229 ° 2 min 348 W/m² 3,9 °C 2,8 °C 19,3 km/h (3 Bft)
27.01.2024 11:56 22,0 °C 7,1 °C 45 % 79 % 1034,2 hPa 0,0 l/m² 14,6 km/h (3 Bft) SW 230 ° 2 min 352 W/m² 3,7 °C 1,8 °C 22,5 km/h (4 Bft)
27.01.2024 11:58 22,0 °C 7,2 °C 45 % 79 % 1034,2 hPa 0,0 l/m² 14,3 km/h (3 Bft) SW 224 ° 2 min 353 W/m² 3,8 °C 2,1 °C 20,9 km/h (4 Bft)
27.01.2024 12:00 22,0 °C 7,2 °C 45 % 79 % 1034,2 hPa 0,0 l/m² 13,2 km/h (3 Bft) W-SW 238 ° 2 min 355 W/m² 3,8 °C 2,6 °C 17,7 km/h (3 Bft)
27.01.2024 12:01 22,0 °C 7,2 °C 44 % 79 % 1034,3 hPa 0,0 l/m² 15,7 km/h (3 Bft) W-SW 244 ° 1 min 352 W/m² 3,8 °C 1,4 °C 24,1 km/h (4 Bft)
27.01.2024 12:02 22,0 °C 7,2 °C 44 % 79 % 1034,2 hPa 0,0 l/m² 18,1 km/h (3 Bft) SW 227 ° 1 min 352 W/m² 3,8 °C 0,4 °C 20,9 km/h (4 Bft)
27.01.2024 12:03 22,0 °C 7,2 °C 44 % 79 % 1034,2 hPa 0,0 l/m² 14,3 km/h (3 Bft) SW 221 ° 1 min 355 W/m² 3,8 °C 2,1 °C 17,7 km/h (3 Bft)
27.01.2024 12:04 22,0 °C 7,2 °C 44 % 79 % 1034,2 hPa 0,0 l/m² 17,3 km/h (3 Bft) SW 232 ° 1 min 357 W/m² 3,8 °C 0,7 °C 20,9 km/h (4 Bft)
27.01.2024 12:06 21,9 °C 7,2 °C 44 % 79 % 1034,3 hPa 0,0 l/m² 16,7 km/h (3 Bft) W-SW 249 ° 2 min 357 W/m² 3,8 °C 1,0 °C 22,5 km/h (4 Bft)
27.01.2024 12:08 21,9 °C 7,2 °C 44 % 79 % 1034,2 hPa 0,0 l/m² 13,7 km/h (3 Bft) SW 227 ° 2 min 355 W/m² 3,8 °C 2,4 °C 20,9 km/h (4 Bft)
27.01.2024 12:10 21,9 °C 7,3 °C 44 % 79 % 1034,2 hPa 0,0 l/m² 14,7 km/h (3 Bft) W-SW 243 ° 2 min 357 W/m² 3,9 °C 2,0 °C 22,5 km/h (4 Bft)
27.01.2024 12:11 21,9 °C 7,4 °C 44 % 79 % 1034,3 hPa 0,0 l/m² 12,6 km/h (3 Bft) SW 231 ° 1 min 357 W/m² 4,0 °C 3,2 °C 16,1 km/h (3 Bft)
27.01.2024 12:12 21,9 °C 7,5 °C 44 % 79 % 1034,3 hPa 0,0 l/m² 12,2 km/h (2 Bft) SW 225 ° 1 min 359 W/m² 4,1 °C 3,5 °C 17,7 km/h (3 Bft)
27.01.2024 12:13 21,9 °C 7,6 °C 44 % 79 % 1034,2 hPa 0,0 l/m² 12,7 km/h (3 Bft) SW 234 ° 1 min 357 W/m² 4,2 °C 3,4 °C 17,7 km/h (3 Bft)
27.01.2024 12:15 21,9 °C 7,7 °C 44 % 78 % 1034,2 hPa 0,0 l/m² 12,1 km/h (2 Bft) W-SW 239 ° 2 min 355 W/m² 4,1 °C 3,8 °C 17,7 km/h (3 Bft)
27.01.2024 12:17 21,9 °C 7,7 °C 44 % 79 % 1034,3 hPa 0,0 l/m² 12,1 km/h (2 Bft) SW 223 ° 2 min 359 W/m² 4,3 °C 3,8 °C 16,1 km/h (3 Bft)
27.01.2024 12:19 21,9 °C 7,6 °C 44 % 78 % 1034,3 hPa 0,0 l/m² 14,9 km/h (3 Bft) SW 229 ° 2 min 360 W/m² 4,0 °C 2,3 °C 19,3 km/h (3 Bft)
27.01.2024 12:22 21,9 °C 7,6 °C 45 % 78 % 1034,3 hPa 0,0 l/m² 12,6 km/h (3 Bft) SW 223 ° 3 min 360 W/m² 4,0 °C 3,4 °C 16,1 km/h (3 Bft)
27.01.2024 12:23 21,9 °C 7,6 °C 45 % 77 % 1034,3 hPa 0,0 l/m² 13,0 km/h (3 Bft) W-SW 238 ° 1 min 360 W/m² 3,8 °C 3,2 °C 17,7 km/h (3 Bft)
27.01.2024 12:24 21,9 °C 7,7 °C 45 % 78 % 1034,3 hPa 0,0 l/m² 12,7 km/h (3 Bft) SW 221 ° 1 min 357 W/m² 4,1 °C 3,5 °C 16,1 km/h (3 Bft)
27.01.2024 12:25 21,9 °C 7,7 °C 44 % 77 % 1034,3 hPa 0,0 l/m² 17,2 km/h (3 Bft) SW 232 ° 1 min 362 W/m² 3,9 °C 1,4 °C 19,3 km/h (3 Bft)
27.01.2024 12:27 21,9 °C 7,8 °C 44 % 78 % 1034,4 hPa 0,0 l/m² 11,7 km/h (2 Bft) SW 220 ° 2 min 360 W/m² 4,2 °C 4,1 °C 17,7 km/h (3 Bft)
27.01.2024 12:29 21,9 °C 7,7 °C 44 % 77 % 1034,3 hPa 0,0 l/m² 16,8 km/h (3 Bft) S-SW 205 ° 2 min 362 W/m² 3,9 °C 1,6 °C 22,5 km/h (4 Bft)
27.01.2024 12:31 21,9 °C 7,9 °C 44 % 78 % 1034,3 hPa 0,0 l/m² 10,7 km/h (2 Bft) W-SW 256 ° 2 min 362 W/m² 4,3 °C 4,8 °C 16,1 km/h (3 Bft)
27.01.2024 12:32 21,8 °C 7,9 °C 44 % 78 % 1034,3 hPa 0,0 l/m² 12,1 km/h (2 Bft) S-SW 213 ° 1 min 360 W/m² 4,3 °C 4,0 °C 16,1 km/h (3 Bft)
27.01.2024 12:33 21,8 °C 7,9 °C 44 % 77 % 1034,3 hPa 0,0 l/m² 11,1 km/h (2 Bft) SW 228 ° 1 min 359 W/m² 4,1 °C 4,6 °C 12,9 km/h (3 Bft)
27.01.2024 12:35 21,9 °C 7,9 °C 45 % 78 % 1034,2 hPa 0,0 l/m² 10,4 km/h (2 Bft) SW 220 ° 2 min 364 W/m² 4,3 °C 5,0 °C 16,1 km/h (3 Bft)
27.01.2024 12:36 21,8 °C 7,9 °C 45 % 78 % 1034,3 hPa 0,0 l/m² 13,1 km/h (3 Bft) SW 231 ° 1 min 364 W/m² 4,3 °C 3,5 °C 16,1 km/h (3 Bft)
27.01.2024 12:37 21,9 °C 8,0 °C 45 % 78 % 1034,2 hPa 0,0 l/m² 10,9 km/h (2 Bft) S-SW 211 ° 1 min 362 W/m² 4,4 °C 4,8 °C 14,5 km/h (3 Bft)
27.01.2024 12:38 21,9 °C 8,0 °C 45 % 78 % 1034,2 hPa 0,0 l/m² 11,4 km/h (2 Bft) W-SW 245 ° 1 min 362 W/m² 4,4 °C 4,5 °C 12,9 km/h (3 Bft)
27.01.2024 12:40 21,8 °C 8,2 °C 45 % 76 % 1034,3 hPa 0,0 l/m² 11,0 km/h (2 Bft) W-SW 244 ° 2 min 360 W/m² 4,2 °C 5,0 °C 16,1 km/h (3 Bft)
27.01.2024 12:43 21,9 °C 8,3 °C 45 % 75 % 1034,2 hPa 0,0 l/m² 14,5 km/h (3 Bft) SW 229 ° 3 min 360 W/m² 4,1 °C 3,3 °C 19,3 km/h (3 Bft)
27.01.2024 12:46 21,8 °C 8,3 °C 45 % 75 % 1034,2 hPa 0,0 l/m² 12,3 km/h (2 Bft) SW 223 ° 3 min 360 W/m² 4,1 °C 4,4 °C 17,7 km/h (3 Bft)
27.01.2024 12:48 21,8 °C 8,4 °C 45 % 74 % 1034,2 hPa 0,0 l/m² 10,9 km/h (2 Bft) W-SW 248 ° 2 min 355 W/m² 4,0 °C 5,3 °C 14,5 km/h (3 Bft)
27.01.2024 12:50 21,9 °C 8,5 °C 45 % 72 % 1034,2 hPa 0,0 l/m² 13,1 km/h (3 Bft) W 259 ° 2 min 357 W/m² 3,7 °C 4,2 °C 17,7 km/h (3 Bft)
27.01.2024 12:52 21,8 °C 8,6 °C 45 % 72 % 1034,2 hPa 0,0 l/m² 13,6 km/h (3 Bft) W-SW 242 ° 2 min 353 W/m² 3,8 °C 4,1 °C 19,3 km/h (3 Bft)
27.01.2024 12:53 21,9 °C 8,5 °C 45 % 72 % 1034,3 hPa 0,0 l/m² 11,9 km/h (2 Bft) W-SW 246 ° 1 min 352 W/m² 3,7 °C 4,8 °C 16,1 km/h (3 Bft)
27.01.2024 12:54 21,9 °C 8,6 °C 45 % 72 % 1034,2 hPa 0,0 l/m² 9,7 km/h (2 Bft) SW 231 ° 1 min 352 W/m² 3,8 °C 6,2 °C 16,1 km/h (3 Bft)
27.01.2024 12:55 21,8 °C 8,6 °C 45 % 73 % 1034,2 hPa 0,0 l/m² 11,8 km/h (2 Bft) W-SW 242 ° 1 min 350 W/m² 4,0 °C 5,0 °C 17,7 km/h (3 Bft)
27.01.2024 12:56 21,8 °C 8,6 °C 45 % 73 % 1034,2 hPa 0,0 l/m² 13,1 km/h (3 Bft) SW 236 ° 1 min 350 W/m² 4,0 °C 4,3 °C 16,1 km/h (3 Bft)
27.01.2024 12:58 21,9 °C 8,7 °C 45 % 73 % 1034,2 hPa 0,0 l/m² 10,8 km/h (2 Bft) W-SW 254 ° 2 min 350 W/m² 4,1 °C 5,7 °C 14,5 km/h (3 Bft)
27.01.2024 13:00 21,8 °C 8,8 °C 45 % 72 % 1034,2 hPa 0,0 l/m² 9,9 km/h (2 Bft) W 259 ° 2 min 352 W/m² 4,0 °C 6,3 °C 14,5 km/h (3 Bft)
27.01.2024 13:02 21,9 °C 8,8 °C 45 % 73 % 1034,2 hPa 0,0 l/m² 8,9 km/h (2 Bft) W-SW 251 ° 2 min 350 W/m² 4,2 °C 7,0 °C 14,5 km/h (3 Bft)
27.01.2024 13:03 21,9 °C 8,8 °C 45 % 72 % 1034,2 hPa 0,0 l/m² 12,9 km/h (3 Bft) W 267 ° 1 min 350 W/m² 4,0 °C 4,7 °C 16,1 km/h (3 Bft)
27.01.2024 13:04 21,9 °C 8,8 °C 45 % 71 % 1034,2 hPa 0,0 l/m² 11,4 km/h (2 Bft) W 273 ° 1 min 350 W/m² 3,8 °C 5,5 °C 14,5 km/h (3 Bft)
27.01.2024 13:05 21,9 °C 8,8 °C 45 % 71 % 1034,1 hPa 0,0 l/m² 8,1 km/h (2 Bft) W-SW 248 ° 1 min 346 W/m² 3,8 °C 7,5 °C 12,9 km/h (3 Bft)
27.01.2024 13:07 21,8 °C 8,9 °C 45 % 72 % 1034,2 hPa 0,0 l/m² 12,0 km/h (2 Bft) W-SW 240 ° 2 min 348 W/m² 4,1 °C 5,2 °C 16,1 km/h (3 Bft)
27.01.2024 13:09 21,9 °C 8,9 °C 45 % 70 % 1034,2 hPa 0,0 l/m² 10,7 km/h (2 Bft) W-SW 255 ° 2 min 346 W/m² 3,7 °C 6,0 °C 16,1 km/h (3 Bft)
27.01.2024 13:11 21,8 °C 8,9 °C 46 % 70 % 1034,2 hPa 0,0 l/m² 10,0 km/h (2 Bft) SW 232 ° 2 min 343 W/m² 3,7 °C 6,4 °C 14,5 km/h (3 Bft)
27.01.2024 13:12 21,8 °C 8,9 °C 46 % 71 % 1034,2 hPa 0,0 l/m² 12,3 km/h (2 Bft) SW 227 ° 1 min 341 W/m² 3,9 °C 5,1 °C 16,1 km/h (3 Bft)
27.01.2024 13:13 21,8 °C 8,9 °C 46 % 69 % 1034,2 hPa 0,0 l/m² 11,1 km/h (2 Bft) W-SW 243 ° 1 min 341 W/m² 3,5 °C 5,7 °C 14,5 km/h (3 Bft)
27.01.2024 13:14 21,8 °C 8,9 °C 46 % 70 % 1034,2 hPa 0,0 l/m² 12,4 km/h (2 Bft) W-SW 241 ° 1 min 339 W/m² 3,7 °C 5,0 °C 14,5 km/h (3 Bft)
27.01.2024 13:16 21,8 °C 9,0 °C 46 % 71 % 1034,1 hPa 0,0 l/m² 8,7 km/h (2 Bft) W 266 ° 2 min 338 W/m² 4,0 °C 7,3 °C 12,9 km/h (3 Bft)
27.01.2024 13:18 21,8 °C 9,1 °C 46 % 72 % 1034,2 hPa 0,0 l/m² 6,3 km/h (2 Bft) W-SW 253 ° 2 min 339 W/m² 4,3 °C 9,1 °C 11,3 km/h (2 Bft)
27.01.2024 13:20 21,9 °C 9,1 °C 46 % 73 % 1034,3 hPa 0,0 l/m² 7,7 km/h (2 Bft) SW 227 ° 2 min 336 W/m² 4,5 °C 8,1 °C 11,3 km/h (2 Bft)
27.01.2024 13:21 21,9 °C 9,1 °C 46 % 74 % 1034,3 hPa 0,0 l/m² 9,9 km/h (2 Bft) W-SW 242 ° 1 min 334 W/m² 4,7 °C 6,7 °C 12,9 km/h (3 Bft)
27.01.2024 13:22 21,8 °C 9,1 °C 46 % 72 % 1034,3 hPa 0,0 l/m² 7,9 km/h (2 Bft) W-SW 242 ° 1 min 334 W/m² 4,3 °C 8,0 °C 9,7 km/h (2 Bft)
27.01.2024 13:23 21,8 °C 9,0 °C 46 % 72 % 1034,3 hPa 0,0 l/m² 9,1 km/h (2 Bft) SW 219 ° 1 min 336 W/m² 4,2 °C 7,1 °C 11,3 km/h (2 Bft)
27.01.2024 13:25 21,9 °C 8,9 °C 46 % 74 % 1034,3 hPa 0,0 l/m² 8,2 km/h (2 Bft) S-SW 209 ° 2 min 329 W/m² 4,5 °C 7,6 °C 12,9 km/h (3 Bft)
27.01.2024 13:26 21,9 °C 8,8 °C 46 % 75 % 1034,3 hPa 0,0 l/m² 8,9 km/h (2 Bft) SW 219 ° 1 min 329 W/m² 4,6 °C 7,0 °C 11,3 km/h (2 Bft)
27.01.2024 13:27 21,9 °C 8,8 °C 46 % 75 % 1034,3 hPa 0,0 l/m² 7,0 km/h (2 Bft) SW 222 ° 1 min 329 W/m² 4,6 °C 8,3 °C 9,7 km/h (2 Bft)
27.01.2024 13:29 21,9 °C 8,8 °C 46 % 75 % 1034,3 hPa 0,0 l/m² 9,8 km/h (2 Bft) SW 215 ° 2 min 334 W/m² 4,6 °C 6,4 °C 12,9 km/h (3 Bft)
27.01.2024 13:31 21,9 °C 8,7 °C 46 % 74 % 1034,3 hPa 0,0 l/m² 7,5 km/h (2 Bft) SW 231 ° 2 min 332 W/m² 4,3 °C 7,9 °C 11,3 km/h (2 Bft)
27.01.2024 13:32 21,9 °C 8,8 °C 46 % 75 % 1034,3 hPa 0,0 l/m² 6,0 km/h (2 Bft) SW 227 ° 1 min 329 W/m² 4,6 °C 8,8 °C 8,0 km/h (2 Bft)
27.01.2024 13:33 21,9 °C 8,9 °C 46 % 74 % 1034,3 hPa 0,0 l/m² 4,6 km/h (1 Bft) SW 227 ° 1 min 329 W/m² 4,5 °C 8,9 °C 6,4 km/h (2 Bft)
27.01.2024 13:34 21,9 °C 8,9 °C 46 % 74 % 1034,4 hPa 0,0 l/m² 3,7 km/h (1 Bft) W-SW 242 ° 1 min 325 W/m² 4,5 °C 8,9 °C 6,4 km/h (2 Bft)
27.01.2024 13:36 21,9 °C 9,2 °C 46 % 71 % 1034,3 hPa 0,0 l/m² 3,4 km/h (1 Bft) W 272 ° 2 min 322 W/m² 4,2 °C 9,2 °C 9,7 km/h (2 Bft)
27.01.2024 13:38 21,9 °C 9,4 °C 46 % 72 % 1034,3 hPa 0,0 l/m² 8,8 km/h (2 Bft) SW 223 ° 2 min 325 W/m² 4,6 °C 7,7 °C 16,1 km/h (3 Bft)
27.01.2024 13:40 21,9 °C 9,1 °C 46 % 73 % 1034,3 hPa 0,0 l/m² 11,4 km/h (2 Bft) W-SW 253 ° 2 min 323 W/m² 4,5 °C 5,8 °C 14,5 km/h (3 Bft)
27.01.2024 13:41 21,9 °C 9,1 °C 46 % 72 % 1034,3 hPa 0,0 l/m² 9,4 km/h (2 Bft) W 264 ° 1 min 323 W/m² 4,3 °C 7,0 °C 12,9 km/h (3 Bft)
27.01.2024 13:42 21,9 °C 9,2 °C 46 % 71 % 1034,3 hPa 0,0 l/m² 9,3 km/h (2 Bft) W-SW 252 ° 1 min 320 W/m² 4,2 °C 7,1 °C 11,3 km/h (2 Bft)
27.01.2024 13:43 21,9 °C 9,3 °C 46 % 69 % 1034,3 hPa 0,0 l/m² 6,1 km/h (2 Bft) W 260 ° 1 min 318 W/m² 3,9 °C 9,3 °C 9,7 km/h (2 Bft)
27.01.2024 13:45 21,9 °C 9,4 °C 46 % 68 % 1034,4 hPa 0,0 l/m² 9,8 km/h (2 Bft) W-SW 254 ° 2 min 315 W/m² 3,8 °C 7,1 °C 16,1 km/h (3 Bft)
27.01.2024 13:46 21,9 °C 9,4 °C 46 % 67 % 1034,4 hPa 0,0 l/m² 10,7 km/h (2 Bft) W 260 ° 1 min 309 W/m² 3,6 °C 6,5 °C 12,9 km/h (3 Bft)
27.01.2024 13:47 21,9 °C 9,4 °C 46 % 68 % 1034,3 hPa 0,0 l/m² 13,5 km/h (3 Bft) SW 234 ° 1 min 315 W/m² 3,8 °C 5,1 °C 17,7 km/h (3 Bft)
27.01.2024 13:48 21,9 °C 9,3 °C 46 % 68 % 1034,3 hPa 0,0 l/m² 9,1 km/h (2 Bft) NW 306 ° 1 min 315 W/m² 3,7 °C 7,4 °C 14,5 km/h (3 Bft)
27.01.2024 13:50 21,9 °C 9,4 °C 46 % 61 % 1034,4 hPa 0,0 l/m² 13,8 km/h (3 Bft) W 268 ° 2 min 316 W/m² 2,3 °C 4,9 °C 25,7 km/h (4 Bft)
27.01.2024 13:52 21,9 °C 9,3 °C 46 % 59 % 1034,4 hPa 0,0 l/m² 16,8 km/h (3 Bft) W 279 ° 2 min 315 W/m² 1,7 °C 3,5 °C 24,1 km/h (4 Bft)
27.01.2024 13:53 21,9 °C 9,2 °C 46 % 59 % 1034,3 hPa 0,0 l/m² 15,0 km/h (3 Bft) W 276 ° 1 min 313 W/m² 1,6 °C 4,2 °C 17,7 km/h (3 Bft)
27.01.2024 13:54 21,9 °C 9,2 °C 46 % 61 % 1034,3 hPa 0,0 l/m² 14,7 km/h (3 Bft) W-NW 291 ° 1 min 311 W/m² 2,1 °C 4,3 °C 22,5 km/h (4 Bft)
27.01.2024 13:55 21,9 °C 9,2 °C 46 % 60 % 1034,3 hPa 0,0 l/m² 10,3 km/h (2 Bft) NW 305 ° 1 min 311 W/m² 1,8 °C 6,5 °C 17,7 km/h (3 Bft)
27.01.2024 13:57 21,9 °C 9,2 °C 47 % 61 % 1034,3 hPa 0,0 l/m² 11,9 km/h (2 Bft) W-NW 284 ° 2 min 308 W/m² 2,1 °C 5,6 °C 19,3 km/h (3 Bft)
27.01.2024 13:58 21,9 °C 9,3 °C 47 % 61 % 1034,3 hPa 0,0 l/m² 14,5 km/h (3 Bft) W 275 ° 1 min 306 W/m² 2,2 °C 4,5 °C 19,3 km/h (3 Bft)
27.01.2024 13:59 21,9 °C 9,3 °C 47 % 61 % 1034,3 hPa 0,0 l/m² 13,8 km/h (3 Bft) W-NW 287 ° 1 min 306 W/m² 2,2 °C 4,8 °C 19,3 km/h (3 Bft)
27.01.2024 14:01 21,9 °C 9,2 °C 47 % 61 % 1034,3 hPa 0,0 l/m² 13,7 km/h (3 Bft) W-NW 292 ° 2 min 304 W/m² 2,1 °C 4,8 °C 19,3 km/h (3 Bft)
27.01.2024 14:02 21,9 °C 9,2 °C 47 % 61 % 1034,3 hPa 0,0 l/m² 15,3 km/h (3 Bft) W 281 ° 1 min 301 W/m² 2,1 °C 4,0 °C 24,1 km/h (4 Bft)
27.01.2024 14:03 21,9 °C 9,2 °C 47 % 59 % 1034,3 hPa 0,0 l/m² 17,3 km/h (3 Bft) W-NW 288 ° 1 min 301 W/m² 1,6 °C 3,2 °C 25,7 km/h (4 Bft)
27.01.2024 14:05 21,9 °C 9,3 °C 47 % 61 % 1034,4 hPa 0,0 l/m² 9,6 km/h (2 Bft) W-SW 255 ° 2 min 297 W/m² 2,2 °C 7,1 °C 19,3 km/h (3 Bft)
27.01.2024 14:07 21,9 °C 9,2 °C 47 % 60 % 1034,4 hPa 0,0 l/m² 12,3 km/h (2 Bft) W 270 ° 2 min 295 W/m² 1,8 °C 5,4 °C 19,3 km/h (3 Bft)
27.01.2024 14:08 21,9 °C 9,3 °C 47 % 59 % 1034,3 hPa 0,0 l/m² 15,1 km/h (3 Bft) W 266 ° 1 min 292 W/m² 1,7 °C 4,2 °C 19,3 km/h (3 Bft)
27.01.2024 14:09 21,9 °C 9,2 °C 47 % 59 % 1034,3 hPa 0,0 l/m² 17,6 km/h (3 Bft) W 269 ° 1 min 292 W/m² 1,6 °C 3,1 °C 22,5 km/h (4 Bft)
27.01.2024 14:12 21,9 °C 9,2 °C 47 % 61 % 1034,4 hPa 0,0 l/m² 11,4 km/h (2 Bft) W 277 ° 3 min 287 W/m² 2,1 °C 5,9 °C 19,3 km/h (3 Bft)
27.01.2024 14:14 21,9 °C 9,2 °C 47 % 60 % 1034,3 hPa 0,0 l/m² 13,2 km/h (3 Bft) W 277 ° 2 min 283 W/m² 1,8 °C 5,0 °C 19,3 km/h (3 Bft)
27.01.2024 14:15 21,9 °C 9,2 °C 47 % 60 % 1034,4 hPa 0,0 l/m² 13,7 km/h (3 Bft) W-NW 292 ° 1 min 281 W/m² 1,8 °C 4,8 °C 17,7 km/h (3 Bft)
27.01.2024 14:16 21,9 °C 9,2 °C 47 % 60 % 1034,4 hPa 0,0 l/m² 14,0 km/h (3 Bft) W 272 ° 1 min 276 W/m² 1,8 °C 4,6 °C 17,7 km/h (3 Bft)
27.01.2024 14:17 22,0 °C 9,2 °C 47 % 61 % 1034,3 hPa 0,0 l/m² 14,1 km/h (3 Bft) W-NW 298 ° 1 min 276 W/m² 2,1 °C 4,6 °C 19,3 km/h (3 Bft)
27.01.2024 14:19 22,0 °C 9,2 °C 47 % 60 % 1034,4 hPa 0,0 l/m² 11,1 km/h (2 Bft) W 268 ° 2 min 272 W/m² 1,8 °C 6,1 °C 19,3 km/h (3 Bft)
27.01.2024 14:20 22,0 °C 9,2 °C 47 % 61 % 1034,4 hPa 0,0 l/m² 18,6 km/h (3 Bft) W 269 ° 1 min 267 W/m² 2,1 °C 2,7 °C 24,1 km/h (4 Bft)
27.01.2024 14:21 22,0 °C 9,1 °C 47 % 61 % 1034,4 hPa 0,0 l/m² 17,4 km/h (3 Bft) W 270 ° 1 min 265 W/m² 2,0 °C 3,1 °C 22,5 km/h (4 Bft)
27.01.2024 14:22 22,0 °C 9,1 °C 47 % 61 % 1034,4 hPa 0,0 l/m² 17,7 km/h (3 Bft) W 270 ° 1 min 262 W/m² 2,0 °C 2,9 °C 20,9 km/h (4 Bft)
27.01.2024 14:23 21,9 °C 9,1 °C 47 % 61 % 1034,4 hPa 0,0 l/m² 19,3 km/h (3 Bft) W 270 ° 1 min 258 W/m² 2,0 °C 2,4 °C 25,7 km/h (4 Bft)
27.01.2024 14:28 22,0 °C 8,9 °C 47 % 67 % 1034,5 hPa 0,0 l/m² 13,0 km/h (3 Bft) W 261 ° 5 min 248 W/m² 3,1 °C 4,7 °C 16,1 km/h (3 Bft)
27.01.2024 14:30 22,0 °C 8,8 °C 47 % 71 % 1034,5 hPa 0,0 l/m² 12,0 km/h (2 Bft) W-SW 249 ° 2 min 246 W/m² 3,8 °C 5,1 °C 16,1 km/h (3 Bft)
27.01.2024 14:31 22,0 °C 8,8 °C 47 % 71 % 1034,5 hPa 0,0 l/m² 13,7 km/h (3 Bft) W-SW 246 ° 1 min 246 W/m² 3,8 °C 4,3 °C 17,7 km/h (3 Bft)
27.01.2024 14:33 22,0 °C 8,7 °C 47 % 72 % 1034,4 hPa 0,0 l/m² 13,1 km/h (3 Bft) W-SW 257 ° 2 min 244 W/m² 3,9 °C 4,5 °C 16,1 km/h (3 Bft)
27.01.2024 14:35 21,9 °C 8,6 °C 47 % 72 % 1034,4 hPa 0,0 l/m² 13,1 km/h (3 Bft) W-SW 239 ° 2 min 241 W/m² 3,8 °C 4,3 °C 19,3 km/h (3 Bft)
27.01.2024 14:37 21,9 °C 8,5 °C 47 % 73 % 1034,4 hPa 0,0 l/m² 12,7 km/h (3 Bft) SW 226 ° 2 min 236 W/m² 3,9 °C 4,4 °C 19,3 km/h (3 Bft)
27.01.2024 14:39 22,0 °C 8,3 °C 47 % 73 % 1034,4 hPa 0,0 l/m² 17,4 km/h (3 Bft) W-SW 239 ° 2 min 234 W/m² 3,8 °C 2,1 °C 22,5 km/h (4 Bft)
27.01.2024 14:40 21,9 °C 8,3 °C 47 % 73 % 1034,4 hPa 0,0 l/m² 14,6 km/h (3 Bft) W-SW 238 ° 1 min 232 W/m² 3,8 °C 3,3 °C 19,3 km/h (3 Bft)
27.01.2024 14:42 21,9 °C 8,3 °C 47 % 74 % 1034,4 hPa 0,0 l/m² 14,8 km/h (3 Bft) W-SW 244 ° 2 min 230 W/m² 3,9 °C 3,2 °C 19,3 km/h (3 Bft)
27.01.2024 14:43 21,9 °C 8,3 °C 47 % 73 % 1034,4 hPa 0,0 l/m² 20,2 km/h (4 Bft) W-SW 249 ° 1 min 229 W/m² 3,8 °C 1,0 °C 24,1 km/h (4 Bft)
27.01.2024 14:45 21,9 °C 8,3 °C 47 % 73 % 1034,5 hPa 0,0 l/m² 15,4 km/h (3 Bft) W-SW 238 ° 2 min 223 W/m² 3,8 °C 2,9 °C 20,9 km/h (4 Bft)
27.01.2024 14:47 21,9 °C 8,2 °C 46 % 73 % 1034,4 hPa 0,0 l/m² 16,8 km/h (3 Bft) SW 232 ° 2 min 214 W/m² 3,7 °C 2,2 °C 24,1 km/h (4 Bft)
27.01.2024 14:49 21,9 °C 8,2 °C 46 % 74 % 1034,5 hPa 0,0 l/m² 15,8 km/h (3 Bft) W-SW 254 ° 2 min 213 W/m² 3,8 °C 2,6 °C 19,3 km/h (3 Bft)
27.01.2024 14:50 21,9 °C 8,3 °C 46 % 74 % 1034,5 hPa 0,0 l/m² 14,8 km/h (3 Bft) W-SW 258 ° 1 min 204 W/m² 3,9 °C 3,2 °C 17,7 km/h (3 Bft)
27.01.2024 14:52 21,9 °C 8,3 °C 46 % 73 % 1034,6 hPa 0,0 l/m² 14,7 km/h (3 Bft) W-SW 243 ° 2 min 202 W/m² 3,8 °C 3,2 °C 19,3 km/h (3 Bft)
27.01.2024 14:53 21,9 °C 8,2 °C 46 % 74 % 1034,5 hPa 0,0 l/m² 14,2 km/h (3 Bft) SW 232 ° 1 min 200 W/m² 3,8 °C 3,3 °C 17,7 km/h (3 Bft)
27.01.2024 14:55 21,9 °C 8,2 °C 46 % 74 % 1034,6 hPa 0,0 l/m² 15,6 km/h (3 Bft) W-SW 244 ° 2 min 199 W/m² 3,8 °C 2,7 °C 19,3 km/h (3 Bft)
27.01.2024 14:57 21,9 °C 8,2 °C 46 % 73 % 1034,6 hPa 0,0 l/m² 18,0 km/h (3 Bft) W-SW 244 ° 2 min 197 W/m² 3,7 °C 1,7 °C 22,5 km/h (4 Bft)
27.01.2024 14:59 21,9 °C 8,2 °C 46 % 73 % 1034,7 hPa 0,0 l/m² 18,6 km/h (3 Bft) W-SW 238 ° 2 min 190 W/m² 3,7 °C 1,5 °C 22,5 km/h (4 Bft)
27.01.2024 15:00 21,9 °C 8,2 °C 46 % 73 % 1034,8 hPa 0,0 l/m² 13,4 km/h (3 Bft) W 259 ° 1 min 186 W/m² 3,7 °C 3,7 °C 17,7 km/h (3 Bft)
27.01.2024 15:02 21,9 °C 8,2 °C 47 % 73 % 1034,8 hPa 0,0 l/m² 15,9 km/h (3 Bft) W-SW 249 ° 2 min 183 W/m² 3,7 °C 2,6 °C 22,5 km/h (4 Bft)
27.01.2024 15:03 21,8 °C 8,2 °C 46 % 73 % 1034,7 hPa 0,0 l/m² 12,2 km/h (2 Bft) W-SW 254 ° 1 min 179 W/m² 3,7 °C 4,3 °C 14,5 km/h (3 Bft)
27.01.2024 15:05 21,8 °C 8,2 °C 47 % 74 % 1034,7 hPa 0,0 l/m² 14,2 km/h (3 Bft) W 263 ° 2 min 174 W/m² 3,8 °C 3,3 °C 19,3 km/h (3 Bft)
27.01.2024 15:06 21,8 °C 8,2 °C 47 % 73 % 1034,7 hPa 0,0 l/m² 12,4 km/h (2 Bft) W-SW 251 ° 1 min 172 W/m² 3,7 °C 4,2 °C 16,1 km/h (3 Bft)
27.01.2024 15:08 21,8 °C 8,2 °C 47 % 73 % 1034,7 hPa 0,0 l/m² 15,2 km/h (3 Bft) W-SW 254 ° 2 min 167 W/m² 3,7 °C 2,9 °C 19,3 km/h (3 Bft)
27.01.2024 15:10 21,8 °C 8,2 °C 47 % 74 % 1034,7 hPa 0,0 l/m² 15,0 km/h (3 Bft) W-SW 241 ° 2 min 162 W/m² 3,8 °C 3,0 °C 19,3 km/h (3 Bft)
27.01.2024 15:11 21,8 °C 8,1 °C 47 % 73 % 1034,6 hPa 0,0 l/m² 14,2 km/h (3 Bft) W-SW 257 ° 1 min 160 W/m² 3,6 °C 3,2 °C 17,7 km/h (3 Bft)
27.01.2024 15:12 21,8 °C 8,1 °C 47 % 74 % 1034,6 hPa 0,0 l/m² 13,4 km/h (3 Bft) W-SW 240 ° 1 min 158 W/m² 3,8 °C 3,6 °C 19,3 km/h (3 Bft)
27.01.2024 15:14 21,8 °C 8,1 °C 47 % 74 % 1034,7 hPa 0,0 l/m² 11,6 km/h (2 Bft) W-SW 255 ° 2 min 151 W/m² 3,8 °C 4,5 °C 16,1 km/h (3 Bft)
27.01.2024 15:16 21,8 °C 8,1 °C 47 % 74 % 1034,7 hPa 0,0 l/m² 11,2 km/h (2 Bft) W-SW 241 ° 2 min 146 W/m² 3,8 °C 4,8 °C 16,1 km/h (3 Bft)
27.01.2024 15:18 21,8 °C 8,1 °C 47 % 74 % 1034,8 hPa 0,0 l/m² 11,0 km/h (2 Bft) W-SW 241 ° 2 min 142 W/m² 3,8 °C 4,9 °C 17,7 km/h (3 Bft)
27.01.2024 15:20 21,8 °C 8,0 °C 47 % 74 % 1034,8 hPa 0,0 l/m² 13,8 km/h (3 Bft) SW 234 ° 2 min 137 W/m² 3,7 °C 3,3 °C 20,9 km/h (4 Bft)
27.01.2024 15:21 21,8 °C 8,0 °C 47 % 74 % 1034,8 hPa 0,0 l/m² 10,6 km/h (2 Bft) W-SW 242 ° 1 min 135 W/m² 3,7 °C 5,0 °C 16,1 km/h (3 Bft)
27.01.2024 15:22 21,8 °C 8,0 °C 47 % 74 % 1034,8 hPa 0,0 l/m² 8,4 km/h (2 Bft) SW 229 ° 1 min 132 W/m² 3,7 °C 6,5 °C 9,7 km/h (2 Bft)
27.01.2024 15:24 21,8 °C 7,9 °C 47 % 75 % 1034,9 hPa 0,0 l/m² 8,9 km/h (2 Bft) W-SW 238 ° 2 min 127 W/m² 3,7 °C 6,0 °C 12,9 km/h (3 Bft)
27.01.2024 15:26 21,8 °C 7,9 °C 47 % 74 % 1035,0 hPa 0,0 l/m² 8,5 km/h (2 Bft) SW 229 ° 2 min 121 W/m² 3,6 °C 6,3 °C 12,9 km/h (3 Bft)
27.01.2024 15:28 21,8 °C 7,9 °C 47 % 75 % 1035,1 hPa 0,0 l/m² 7,9 km/h (2 Bft) SW 232 ° 2 min 120 W/m² 3,7 °C 6,7 °C 12,9 km/h (3 Bft)
27.01.2024 15:30 21,8 °C 7,9 °C 47 % 75 % 1035,2 hPa 0,0 l/m² 6,1 km/h (2 Bft) W-SW 253 ° 2 min 118 W/m² 3,7 °C 7,9 °C 8,0 km/h (2 Bft)
27.01.2024 15:31 21,8 °C 7,9 °C 47 % 75 % 1035,2 hPa 0,0 l/m² 6,5 km/h (2 Bft) W-SW 242 ° 1 min 114 W/m² 3,7 °C 7,8 °C 8,0 km/h (2 Bft)
27.01.2024 15:32 21,8 °C 7,9 °C 47 % 75 % 1035,2 hPa 0,0 l/m² 7,8 km/h (2 Bft) W-SW 240 ° 1 min 113 W/m² 3,7 °C 6,8 °C 9,7 km/h (2 Bft)
27.01.2024 15:33 21,8 °C 7,9 °C 47 % 75 % 1035,2 hPa 0,0 l/m² 5,6 km/h (2 Bft) W-SW 239 ° 1 min 111 W/m² 3,7 °C 7,9 °C 6,4 km/h (2 Bft)
27.01.2024 15:34 21,8 °C 7,9 °C 47 % 75 % 1035,1 hPa 0,0 l/m² 4,9 km/h (1 Bft) W-SW 237 ° 1 min 109 W/m² 3,7 °C 7,9 °C 8,0 km/h (2 Bft)
27.01.2024 15:36 21,8 °C 7,9 °C 47 % 75 % 1035,2 hPa 0,0 l/m² 5,7 km/h (2 Bft) W-SW 240 ° 2 min 105 W/m² 3,7 °C 7,9 °C 8,0 km/h (2 Bft)
27.01.2024 15:38 21,8 °C 7,9 °C 47 % 75 % 1035,1 hPa 0,0 l/m² 5,7 km/h (2 Bft) SW 229 ° 2 min 100 W/m² 3,7 °C 7,9 °C 9,7 km/h (2 Bft)
27.01.2024 15:40 21,8 °C 7,8 °C 47 % 75 % 1035,1 hPa 0,0 l/m² 4,8 km/h (1 Bft) SW 230 ° 2 min 98 W/m² 3,7 °C 7,8 °C 6,4 km/h (2 Bft)
27.01.2024 15:41 21,8 °C 7,7 °C 48 % 76 % 1035,1 hPa 0,0 l/m² 5,4 km/h (2 Bft) SW 230 ° 1 min 97 W/m² 3,7 °C 7,7 °C 8,0 km/h (2 Bft)
27.01.2024 15:42 21,8 °C 7,7 °C 48 % 76 % 1035,1 hPa 0,0 l/m² 7,8 km/h (2 Bft) SW 221 ° 1 min 95 W/m² 3,7 °C 6,6 °C 9,7 km/h (2 Bft)
27.01.2024 15:44 21,8 °C 7,5 °C 48 % 76 % 1035,2 hPa 0,0 l/m² 8,0 km/h (2 Bft) SW 220 ° 2 min 91 W/m² 3,5 °C 6,2 °C 9,7 km/h (2 Bft)
27.01.2024 15:46 21,8 °C 7,5 °C 48 % 76 % 1035,2 hPa 0,0 l/m² 7,7 km/h (2 Bft) SW 232 ° 2 min 88 W/m² 3,5 °C 6,5 °C 11,3 km/h (2 Bft)
27.01.2024 15:48 21,8 °C 7,6 °C 48 % 75 % 1035,2 hPa 0,0 l/m² 6,7 km/h (2 Bft) W-SW 238 ° 2 min 84 W/m² 3,5 °C 7,4 °C 9,7 km/h (2 Bft)
27.01.2024 15:50 21,8 °C 7,7 °C 48 % 75 % 1035,2 hPa 0,0 l/m² 8,8 km/h (2 Bft) SW 230 ° 2 min 77 W/m² 3,6 °C 5,9 °C 12,9 km/h (3 Bft)
27.01.2024 15:51 21,8 °C 7,7 °C 48 % 75 % 1035,3 hPa 0,0 l/m² 6,1 km/h (2 Bft) SW 231 ° 1 min 77 W/m² 3,6 °C 7,7 °C 11,3 km/h (2 Bft)
27.01.2024 15:52 21,8 °C 7,7 °C 48 % 75 % 1035,3 hPa 0,0 l/m² 8,6 km/h (2 Bft) SW 232 ° 1 min 74 W/m² 3,6 °C 6,0 °C 11,3 km/h (2 Bft)
27.01.2024 15:54 21,8 °C 7,6 °C 48 % 75 % 1035,3 hPa 0,0 l/m² 9,6 km/h (2 Bft) SW 234 ° 2 min 72 W/m² 3,5 °C 5,2 °C 14,5 km/h (3 Bft)
27.01.2024 15:56 21,8 °C 7,6 °C 48 % 75 % 1035,3 hPa 0,0 l/m² 11,2 km/h (2 Bft) W-SW 238 ° 2 min 67 W/m² 3,5 °C 4,2 °C 16,1 km/h (3 Bft)
27.01.2024 15:58 21,8 °C 7,5 °C 48 % 75 % 1035,5 hPa 0,0 l/m² 8,6 km/h (2 Bft) W-SW 239 ° 2 min 63 W/m² 3,4 °C 5,8 °C 11,3 km/h (2 Bft)
27.01.2024 16:00 21,9 °C 7,4 °C 48 % 75 % 1035,5 hPa 0,0 l/m² 9,8 km/h (2 Bft) W-SW 242 ° 2 min 60 W/m² 3,3 °C 4,9 °C 14,5 km/h (3 Bft)
27.01.2024 16:01 21,8 °C 7,4 °C 48 % 75 % 1035,5 hPa 0,0 l/m² 10,3 km/h (2 Bft) SW 236 ° 1 min 58 W/m² 3,3 °C 4,5 °C 12,9 km/h (3 Bft)
27.01.2024 16:02 21,8 °C 7,4 °C 48 % 75 % 1035,5 hPa 0,0 l/m² 9,8 km/h (2 Bft) W-SW 248 ° 1 min 56 W/m² 3,3 °C 4,9 °C 14,5 km/h (3 Bft)
27.01.2024 16:04 21,9 °C 7,3 °C 48 % 76 % 1035,5 hPa 0,0 l/m² 10,4 km/h (2 Bft) W-SW 246 ° 2 min 53 W/m² 3,4 °C 4,4 °C 14,5 km/h (3 Bft)
27.01.2024 16:06 21,9 °C 7,2 °C 48 % 76 % 1035,4 hPa 0,0 l/m² 8,4 km/h (2 Bft) W-SW 247 ° 0 min 47 W/m² 3,3 °C 5,6 °C 12,9 km/h (3 Bft)
27.01.2024 16:08 21,9 °C 7,1 °C 49 % 77 % 1035,4 hPa 0,0 l/m² 7,7 km/h (2 Bft) W-SW 248 ° 0 min 42 W/m² 3,3 °C 6,0 °C 12,9 km/h (3 Bft)
27.01.2024 16:10 21,9 °C 6,9 °C 49 % 77 % 1035,3 hPa 0,0 l/m² 5,1 km/h (1 Bft) W-SW 248 ° 0 min 37 W/m² 3,2 °C 6,9 °C 8,0 km/h (2 Bft)
27.01.2024 16:11 21,9 °C 6,9 °C 49 % 77 % 1035,2 hPa 0,0 l/m² 5,3 km/h (1 Bft) W-SW 247 ° 0 min 35 W/m² 3,2 °C 6,9 °C 8,0 km/h (2 Bft)
27.01.2024 16:12 21,9 °C 6,8 °C 49 % 78 % 1035,2 hPa 0,0 l/m² 5,7 km/h (2 Bft) W-SW 241 ° 0 min 35 W/m² 3,2 °C 6,8 °C 8,0 km/h (2 Bft)
27.01.2024 16:13 21,9 °C 6,7 °C 49 % 78 % 1035,2 hPa 0,0 l/m² 7,1 km/h (2 Bft) SW 225 ° 0 min 35 W/m² 3,1 °C 6,1 °C 9,7 km/h (2 Bft)
27.01.2024 16:14 21,9 °C 6,6 °C 49 % 78 % 1035,2 hPa 0,0 l/m² 7,5 km/h (2 Bft) SW 231 ° 0 min 33 W/m² 3,0 °C 5,7 °C 9,7 km/h (2 Bft)
27.01.2024 16:16 21,9 °C 6,6 °C 49 % 78 % 1035,2 hPa 0,0 l/m² 6,6 km/h (2 Bft) SW 236 ° 0 min 30 W/m² 3,0 °C 6,5 °C 9,7 km/h (2 Bft)
27.01.2024 16:18 21,9 °C 6,6 °C 49 % 78 % 1035,2 hPa 0,0 l/m² 6,8 km/h (2 Bft) SW 234 ° 0 min 28 W/m² 3,0 °C 6,3 °C 9,7 km/h (2 Bft)
27.01.2024 16:20 21,9 °C 6,6 °C 49 % 78 % 1035,2 hPa 0,0 l/m² 5,7 km/h (2 Bft) SW 234 ° 0 min 25 W/m² 3,0 °C 6,6 °C 8,0 km/h (2 Bft)
27.01.2024 16:21 21,9 °C 6,6 °C 49 % 78 % 1035,2 hPa 0,0 l/m² 6,8 km/h (2 Bft) W-SW 248 ° 0 min 25 W/m² 3,0 °C 6,3 °C 9,7 km/h (2 Bft)
27.01.2024 16:22 21,9 °C 6,5 °C 49 % 78 % 1035,2 hPa 0,0 l/m² 5,0 km/h (1 Bft) W-SW 248 ° 0 min 23 W/m² 2,9 °C 6,5 °C 6,4 km/h (2 Bft)
27.01.2024 16:24 21,9 °C 6,4 °C 49 % 78 % 1035,2 hPa 0,0 l/m² 6,7 km/h (2 Bft) W-SW 249 ° 0 min 19 W/m² 2,8 °C 6,2 °C 8,0 km/h (2 Bft)
27.01.2024 16:26 21,9 °C 6,3 °C 49 % 78 % 1035,3 hPa 0,0 l/m² 6,7 km/h (2 Bft) W-SW 252 ° 0 min 18 W/m² 2,8 °C 6,1 °C 8,0 km/h (2 Bft)
27.01.2024 16:28 21,9 °C 6,2 °C 49 % 78 % 1035,2 hPa 0,0 l/m² 6,5 km/h (2 Bft) W-SW 252 ° 0 min 16 W/m² 2,7 °C 6,1 °C 8,0 km/h (2 Bft)
27.01.2024 16:30 21,9 °C 6,0 °C 49 % 78 % 1035,2 hPa 0,0 l/m² 6,0 km/h (2 Bft) W-SW 250 ° 0 min 14 W/m² 2,5 °C 6,0 °C 8,0 km/h (2 Bft)
27.01.2024 16:31 21,9 °C 5,9 °C 49 % 79 % 1035,1 hPa 0,0 l/m² 6,3 km/h (2 Bft) W-SW 249 ° 0 min 14 W/m² 2,5 °C 5,9 °C 8,0 km/h (2 Bft)
27.01.2024 16:32 21,9 °C 5,8 °C 49 % 79 % 1035,1 hPa 0,0 l/m² 6,8 km/h (2 Bft) W-SW 250 ° 0 min 14 W/m² 2,4 °C 5,5 °C 8,0 km/h (2 Bft)
27.01.2024 16:34 21,9 °C 5,7 °C 49 % 79 % 1035,2 hPa 0,0 l/m² 6,3 km/h (2 Bft) W-SW 253 ° 0 min 14 W/m² 2,3 °C 5,7 °C 8,0 km/h (2 Bft)
27.01.2024 16:36 21,9 °C 5,7 °C 49 % 79 % 1035,2 hPa 0,0 l/m² 5,3 km/h (1 Bft) W-SW 254 ° 0 min 12 W/m² 2,3 °C 5,7 °C 8,0 km/h (2 Bft)
27.01.2024 16:38 21,9 °C 5,6 °C 49 % 79 % 1035,2 hPa 0,0 l/m² 5,2 km/h (1 Bft) W-SW 254 ° 0 min 11 W/m² 2,3 °C 5,6 °C 8,0 km/h (2 Bft)
27.01.2024 16:40 21,9 °C 5,4 °C 49 % 80 % 1035,2 hPa 0,0 l/m² 5,0 km/h (1 Bft) W-SW 254 ° 0 min 11 W/m² 2,2 °C 5,4 °C 6,4 km/h (2 Bft)
27.01.2024 16:41 21,9 °C 5,3 °C 49 % 80 % 1035,3 hPa 0,0 l/m² 6,9 km/h (2 Bft) W-SW 254 ° 0 min 9 W/m² 2,1 °C 4,9 °C 8,0 km/h (2 Bft)
27.01.2024 16:42 21,9 °C 5,3 °C 49 % 80 % 1035,3 hPa 0,0 l/m² 6,2 km/h (2 Bft) W-SW 254 ° 0 min 7 W/m² 2,1 °C 5,3 °C 6,4 km/h (2 Bft)
27.01.2024 16:44 21,9 °C 5,2 °C 49 % 80 % 1035,2 hPa 0,0 l/m² 4,6 km/h (1 Bft) W-SW 254 ° 0 min 7 W/m² 2,0 °C 5,2 °C 8,0 km/h (2 Bft)
27.01.2024 16:46 21,9 °C 5,1 °C 49 % 81 % 1035,2 hPa 0,0 l/m² 3,9 km/h (1 Bft) W-SW 254 ° 0 min 7 W/m² 2,1 °C 5,1 °C 4,8 km/h (1 Bft)
27.01.2024 16:48 21,9 °C 4,9 °C 49 % 81 % 1035,3 hPa 0,0 l/m² 3,8 km/h (1 Bft) W-SW 254 ° 0 min 5 W/m² 1,9 °C 4,9 °C 4,8 km/h (1 Bft)
27.01.2024 16:50 21,9 °C 4,8 °C 49 % 81 % 1035,3 hPa 0,0 l/m² 3,3 km/h (1 Bft) W-SW 254 ° 0 min 5 W/m² 1,8 °C 4,8 °C 4,8 km/h (1 Bft)
27.01.2024 16:51 21,8 °C 4,7 °C 49 % 82 % 1035,5 hPa 0,0 l/m² 2,9 km/h (1 Bft) W-SW 254 ° 0 min 5 W/m² 1,9 °C 4,7 °C 3,2 km/h (1 Bft)
27.01.2024 16:52 21,8 °C 4,7 °C 49 % 82 % 1035,5 hPa 0,0 l/m² 2,8 km/h (1 Bft) W-SW 254 ° 0 min 0 W/m² 1,9 °C 4,7 °C 3,2 km/h (1 Bft)
27.01.2024 16:53 21,8 °C 4,7 °C 49 % 82 % 1035,4 hPa 0,0 l/m² 2,0 km/h (1 Bft) W-SW 254 ° 0 min 0 W/m² 1,9 °C 4,7 °C 3,2 km/h (1 Bft)
27.01.2024 16:54 21,8 °C 4,6 °C 49 % 82 % 1035,5 hPa 0,0 l/m² 2,8 km/h (1 Bft) W-SW 254 ° 0 min 0 W/m² 1,8 °C 4,6 °C 3,2 km/h (1 Bft)
27.01.2024 16:56 21,8 °C 4,6 °C 49 % 82 % 1035,6 hPa 0,0 l/m² 1,8 km/h (1 Bft) W-SW 254 ° 0 min 0 W/m² 1,8 °C 4,6 °C 3,2 km/h (1 Bft)
27.01.2024 16:58 21,8 °C 4,7 °C 49 % 83 % 1035,6 hPa 0,0 l/m² 0,6 km/h (0 Bft) W-SW 254 ° 0 min 0 W/m² 2,1 °C 4,7 °C 1,6 km/h (1 Bft)
27.01.2024 17:00 21,8 °C 4,6 °C 49 % 82 % 1035,6 hPa 0,0 l/m² 0,0 km/h (0 Bft) W-SW 254 ° 0 min 0 W/m² 1,8 °C 4,6 °C 1,6 km/h (1 Bft)
27.01.2024 17:01 21,8 °C 4,6 °C 49 % 82 % 1035,6 hPa 0,0 l/m² 0,1 km/h (0 Bft) W-SW 254 ° 0 min 0 W/m² 1,8 °C 4,6 °C 1,6 km/h (1 Bft)
27.01.2024 17:02 21,8 °C 4,5 °C 49 % 82 % 1035,6 hPa 0,0 l/m² 0,1 km/h (0 Bft) W-SW 254 ° 0 min 0 W/m² 1,7 °C 4,5 °C 1,6 km/h (1 Bft)
27.01.2024 17:04 21,8 °C 4,4 °C 49 % 82 % 1035,8 hPa 0,0 l/m² 1,7 km/h (1 Bft) W-SW 254 ° 0 min 0 W/m² 1,6 °C 4,4 °C 3,2 km/h (1 Bft)
27.01.2024 17:05 21,8 °C 4,4 °C 49 % 83 % 1035,7 hPa 0,0 l/m² 1,6 km/h (1 Bft) W-SW 254 ° 0 min 0 W/m² 1,8 °C 4,4 °C 1,6 km/h (1 Bft)
27.01.2024 17:07 21,8 °C 4,3 °C 49 % 83 % 1035,8 hPa 0,0 l/m² 1,4 km/h (1 Bft) W-SW 254 ° 0 min 0 W/m² 1,7 °C 4,3 °C 3,2 km/h (1 Bft)
27.01.2024 17:09 21,8 °C 4,2 °C 49 % 83 % 1035,8 hPa 0,0 l/m² 0,7 km/h (0 Bft) W-SW 254 ° 0 min 0 W/m² 1,6 °C 4,2 °C 3,2 km/h (1 Bft)
27.01.2024 17:10 21,8 °C 4,1 °C 49 % 83 % 1035,8 hPa 0,0 l/m² 0,4 km/h (0 Bft) W-SW 254 ° 0 min 0 W/m² 1,5 °C 4,1 °C 1,6 km/h (1 Bft)
27.01.2024 17:12 21,8 °C 4,1 °C 49 % 83 % 1035,7 hPa 0,0 l/m² 0,0 km/h (0 Bft) W-SW 254 ° 0 min 0 W/m² 1,5 °C 4,1 °C 1,6 km/h (1 Bft)
27.01.2024 17:14 21,8 °C 3,7 °C 49 % 83 % 1035,8 hPa 0,0 l/m² 0,6 km/h (0 Bft) W-SW 254 ° 0 min 0 W/m² 1,1 °C 3,7 °C 3,2 km/h (1 Bft)
27.01.2024 17:16 21,8 °C 3,3 °C 49 % 83 % 1035,7 hPa 0,0 l/m² 0,8 km/h (0 Bft) W-SW 254 ° 0 min 0 W/m² 0,7 °C 3,3 °C 3,2 km/h (1 Bft)
27.01.2024 17:18 21,8 °C 3,2 °C 49 % 84 % 1035,7 hPa 0,0 l/m² 0,0 km/h (0 Bft) W-SW 254 ° 0 min 0 W/m² 0,8 °C 3,2 °C 0,0 km/h (0 Bft)
27.01.2024 17:20 21,8 °C 3,2 °C 49 % 85 % 1035,7 hPa 0,0 l/m² 0,0 km/h (0 Bft) W-SW 254 ° 0 min 0 W/m² 0,9 °C 3,2 °C 0,0 km/h (0 Bft)
27.01.2024 17:21 21,8 °C 3,2 °C 49 % 85 % 1035,7 hPa 0,0 l/m² 0,7 km/h (0 Bft) W-SW 254 ° 0 min 0 W/m² 0,9 °C 3,2 °C 1,6 km/h (1 Bft)
27.01.2024 17:22 21,8 °C 3,2 °C 49 % 86 % 1035,7 hPa 0,0 l/m² 1,9 km/h (1 Bft) W-SW 254 ° 0 min 0 W/m² 1,1 °C 3,2 °C 3,2 km/h (1 Bft)
27.01.2024 17:23 21,8 °C 3,2 °C 49 % 86 % 1035,7 hPa 0,0 l/m² 2,3 km/h (1 Bft) W-SW 254 ° 0 min 0 W/m² 1,1 °C 3,2 °C 3,2 km/h (1 Bft)
27.01.2024 17:25 21,8 °C 3,3 °C 50 % 86 % 1035,8 hPa 0,0 l/m² 2,9 km/h (1 Bft) W-SW 254 ° 0 min 0 W/m² 1,2 °C 3,3 °C 3,2 km/h (1 Bft)
27.01.2024 17:27 21,8 °C 3,3 °C 49 % 86 % 1035,9 hPa 0,0 l/m² 2,9 km/h (1 Bft) W-SW 254 ° 0 min 0 W/m² 1,2 °C 3,3 °C 4,8 km/h (1 Bft)
27.01.2024 17:29 21,8 °C 3,3 °C 49 % 85 % 1035,9 hPa 0,0 l/m² 2,5 km/h (1 Bft) W-SW 254 ° 0 min 0 W/m² 1,0 °C 3,3 °C 3,2 km/h (1 Bft)
27.01.2024 17:30 21,8 °C 3,3 °C 49 % 85 % 1035,8 hPa 0,0 l/m² 2,5 km/h (1 Bft) W-SW 254 ° 0 min 0 W/m² 1,0 °C 3,3 °C 3,2 km/h (1 Bft)
27.01.2024 17:32 21,8 °C 3,3 °C 48 % 85 % 1035,9 hPa 0,0 l/m² 2,4 km/h (1 Bft) W-SW 254 ° 0 min 0 W/m² 1,0 °C 3,3 °C 3,2 km/h (1 Bft)
27.01.2024 17:34 21,8 °C 3,3 °C 48 % 85 % 1035,9 hPa 0,0 l/m² 2,0 km/h (1 Bft) W-SW 254 ° 0 min 0 W/m² 1,0 °C 3,3 °C 3,2 km/h (1 Bft)
27.01.2024 17:36 21,7 °C 3,2 °C 48 % 85 % 1036,0 hPa 0,0 l/m² 1,7 km/h (1 Bft) W-SW 254 ° 0 min 0 W/m² 0,9 °C 3,2 °C 3,2 km/h (1 Bft)
27.01.2024 17:38 21,7 °C 3,1 °C 48 % 84 % 1036,0 hPa 0,0 l/m² 1,2 km/h (1 Bft) W-SW 254 ° 0 min 0 W/m² 0,7 °C 3,1 °C 3,2 km/h (1 Bft)
27.01.2024 17:40 21,7 °C 2,8 °C 48 % 84 % 1036,0 hPa 0,0 l/m² 0,0 km/h (0 Bft) W-SW 254 ° 0 min 0 W/m² 0,4 °C 2,8 °C 1,6 km/h (1 Bft)
27.01.2024 17:41 21,7 °C 2,7 °C 48 % 84 % 1036,0 hPa 0,0 l/m² 0,0 km/h (0 Bft) W-SW 254 ° 0 min 0 W/m² 0,3 °C 2,7 °C 0,0 km/h (0 Bft)
27.01.2024 17:42 21,7 °C 2,6 °C 48 % 84 % 1036,0 hPa 0,0 l/m² 0,0 km/h (0 Bft) W-SW 254 ° 0 min 0 W/m² 0,2 °C 2,6 °C 0,0 km/h (0 Bft)
27.01.2024 17:43 21,7 °C 2,5 °C 48 % 85 % 1036,0 hPa 0,0 l/m² 0,0 km/h (0 Bft) W-SW 254 ° 0 min 0 W/m² 0,2 °C 2,5 °C 0,0 km/h (0 Bft)
27.01.2024 17:45 21,7 °C 2,6 °C 48 % 86 % 1035,9 hPa 0,0 l/m² 0,0 km/h (0 Bft) W-SW 254 ° 0 min 0 W/m² 0,5 °C 2,6 °C 0,0 km/h (0 Bft)
27.01.2024 17:47 21,7 °C 2,7 °C 48 % 86 % 1035,9 hPa 0,0 l/m² 0,0 km/h (0 Bft) W-SW 254 ° 0 min 0 W/m² 0,6 °C 2,7 °C 0,0 km/h (0 Bft)
27.01.2024 17:49 21,7 °C 2,8 °C 48 % 86 % 1036,0 hPa 0,0 l/m² 0,0 km/h (0 Bft) W-SW 254 ° 0 min 0 W/m² 0,7 °C 2,8 °C 0,0 km/h (0 Bft)
27.01.2024 17:50 21,7 °C 2,9 °C 48 % 86 % 1035,9 hPa 0,0 l/m² 0,0 km/h (0 Bft) W-SW 254 ° 0 min 0 W/m² 0,8 °C 2,9 °C 0,0 km/h (0 Bft)
27.01.2024 17:51 21,7 °C 2,9 °C 48 % 86 % 1035,9 hPa 0,0 l/m² 0,1 km/h (0 Bft) W-SW 254 ° 0 min 0 W/m² 0,8 °C 2,9 °C 1,6 km/h (1 Bft)
27.01.2024 17:52 21,7 °C 3,0 °C 49 % 86 % 1036,1 hPa 0,0 l/m² 1,5 km/h (1 Bft) W-SW 254 ° 0 min 0 W/m² 0,9 °C 3,0 °C 4,8 km/h (1 Bft)
27.01.2024 17:54 21,7 °C 3,1 °C 49 % 86 % 1036,1 hPa 0,0 l/m² 3,1 km/h (1 Bft) W-SW 254 ° 0 min 0 W/m² 1,0 °C 3,1 °C 4,8 km/h (1 Bft)
27.01.2024 17:55 21,7 °C 3,1 °C 49 % 86 % 1036,1 hPa 0,0 l/m² 2,9 km/h (1 Bft) W-SW 254 ° 0 min 0 W/m² 1,0 °C 3,1 °C 4,8 km/h (1 Bft)
27.01.2024 17:56 21,7 °C 3,2 °C 49 % 86 % 1036,1 hPa 0,0 l/m² 1,2 km/h (1 Bft) W-SW 254 ° 0 min 0 W/m² 1,1 °C 3,2 °C 1,6 km/h (1 Bft)
27.01.2024 17:57 21,7 °C 3,1 °C 49 % 85 % 1036,1 hPa 0,0 l/m² 1,6 km/h (1 Bft) W-SW 254 ° 0 min 0 W/m² 0,8 °C 3,1 °C 3,2 km/h (1 Bft)
27.01.2024 17:59 21,7 °C 3,1 °C 49 % 85 % 1036,1 hPa 0,0 l/m² 0,4 km/h (0 Bft) W-SW 254 ° 0 min 0 W/m² 0,8 °C 3,1 °C 3,2 km/h (1 Bft)
27.01.2024 18:00 21,7 °C 2,9 °C 49 % 85 % 1036,1 hPa 0,0 l/m² 0,0 km/h (0 Bft) W-SW 254 ° 0 min 0 W/m² 0,6 °C 2,9 °C 0,0 km/h (0 Bft)
27.01.2024 18:01 21,7 °C 2,8 °C 49 % 85 % 1036,1 hPa 0,0 l/m² 0,0 km/h (0 Bft) W-SW 254 ° 0 min 0 W/m² 0,5 °C 2,8 °C 0,0 km/h (0 Bft)
27.01.2024 18:02 21,7 °C 2,8 °C 49 % 85 % 1036,2 hPa 0,0 l/m² 0,0 km/h (0 Bft) W-SW 254 ° 0 min 0 W/m² 0,5 °C 2,8 °C 0,0 km/h (0 Bft)
27.01.2024 18:04 21,7 °C 2,7 °C 49 % 85 % 1036,1 hPa 0,0 l/m² 1,3 km/h (1 Bft) W-SW 254 ° 0 min 0 W/m² 0,4 °C 2,7 °C 3,2 km/h (1 Bft)
27.01.2024 18:06 21,7 °C 2,6 °C 49 % 85 % 1036,1 hPa 0,0 l/m² 1,5 km/h (1 Bft) W-SW 254 ° 0 min 0 W/m² 0,3 °C 2,6 °C 3,2 km/h (1 Bft)
27.01.2024 18:08 21,7 °C 2,4 °C 49 % 85 % 1036,1 hPa 0,0 l/m² 3,4 km/h (1 Bft) W-SW 254 ° 0 min 0 W/m² 0,1 °C 2,4 °C 4,8 km/h (1 Bft)
27.01.2024 18:10 21,7 °C 2,3 °C 49 % 85 % 1036,1 hPa 0,0 l/m² 6,2 km/h (2 Bft) S-SW 205 ° 0 min 0 W/m² 0,0 °C 2,3 °C 8,0 km/h (2 Bft)
27.01.2024 18:11 21,7 °C 2,2 °C 49 % 85 % 1036,1 hPa 0,0 l/m² 5,1 km/h (1 Bft) S-SW 205 ° 0 min 0 W/m² -0,1 °C 2,2 °C 8,0 km/h (2 Bft)
27.01.2024 18:12 21,7 °C 2,3 °C 49 % 86 % 1036,1 hPa 0,0 l/m² 4,6 km/h (1 Bft) S-SW 205 ° 0 min 0 W/m² 0,2 °C 2,3 °C 4,8 km/h (1 Bft)
27.01.2024 18:13 21,7 °C 2,3 °C 49 % 86 % 1036,1 hPa 0,0 l/m² 5,1 km/h (1 Bft) S-SW 212 ° 0 min 0 W/m² 0,2 °C 2,3 °C 6,4 km/h (2 Bft)
27.01.2024 18:15 21,7 °C 2,6 °C 49 % 87 % 1036,2 hPa 0,0 l/m² 2,8 km/h (1 Bft) S-SW 211 ° 0 min 0 W/m² 0,7 °C 2,6 °C 6,4 km/h (2 Bft)
27.01.2024 18:17 21,7 °C 2,8 °C 49 % 87 % 1036,1 hPa 0,0 l/m² 3,1 km/h (1 Bft) S-SW 206 ° 0 min 0 W/m² 0,9 °C 2,8 °C 6,4 km/h (2 Bft)
27.01.2024 18:19 21,7 °C 3,0 °C 49 % 86 % 1036,2 hPa 0,0 l/m² 4,3 km/h (1 Bft) S-SW 205 ° 0 min 0 W/m² 0,9 °C 3,0 °C 6,4 km/h (2 Bft)
27.01.2024 18:21 21,7 °C 3,1 °C 49 % 86 % 1036,2 hPa 0,0 l/m² 5,2 km/h (1 Bft) S-SW 207 ° 0 min 0 W/m² 1,0 °C 3,1 °C 8,0 km/h (2 Bft)
27.01.2024 18:22 21,7 °C 3,2 °C 49 % 86 % 1036,2 hPa 0,0 l/m² 6,7 km/h (2 Bft) W 260 ° 0 min 0 W/m² 1,1 °C 2,9 °C 8,0 km/h (2 Bft)
27.01.2024 18:23 21,7 °C 3,3 °C 49 % 85 % 1036,2 hPa 0,0 l/m² 3,6 km/h (1 Bft) W 260 ° 0 min 0 W/m² 1,0 °C 3,3 °C 4,8 km/h (1 Bft)
27.01.2024 18:24 21,7 °C 3,3 °C 49 % 85 % 1036,1 hPa 0,0 l/m² 3,4 km/h (1 Bft) W 261 ° 0 min 0 W/m² 1,0 °C 3,3 °C 6,4 km/h (2 Bft)
27.01.2024 18:26 21,7 °C 3,3 °C 49 % 85 % 1036,2 hPa 0,0 l/m² 3,4 km/h (1 Bft) W 261 ° 0 min 0 W/m² 1,0 °C 3,3 °C 6,4 km/h (2 Bft)
27.01.2024 18:28 21,7 °C 3,4 °C 49 % 84 % 1036,2 hPa 0,0 l/m² 3,5 km/h (1 Bft) W 261 ° 0 min 0 W/m² 1,0 °C 3,4 °C 6,4 km/h (2 Bft)
27.01.2024 18:30 21,7 °C 3,4 °C 49 % 84 % 1036,2 hPa 0,0 l/m² 3,8 km/h (1 Bft) W 259 ° 0 min 0 W/m² 1,0 °C 3,4 °C 9,7 km/h (2 Bft)
27.01.2024 18:31 21,7 °C 3,6 °C 49 % 84 % 1036,1 hPa 0,0 l/m² 4,8 km/h (1 Bft) W 262 ° 0 min 0 W/m² 1,2 °C 3,6 °C 6,4 km/h (2 Bft)
27.01.2024 18:32 21,7 °C 3,6 °C 49 % 84 % 1036,1 hPa 0,0 l/m² 5,5 km/h (2 Bft) W 262 ° 0 min 0 W/m² 1,2 °C 3,6 °C 6,4 km/h (2 Bft)
27.01.2024 18:33 21,7 °C 3,6 °C 49 % 84 % 1036,1 hPa 0,0 l/m² 5,0 km/h (1 Bft) W 262 ° 0 min 0 W/m² 1,2 °C 3,6 °C 6,4 km/h (2 Bft)
27.01.2024 18:35 21,7 °C 3,5 °C 49 % 83 % 1036,1 hPa 0,0 l/m² 3,5 km/h (1 Bft) W 262 ° 0 min 0 W/m² 0,9 °C 3,5 °C 4,8 km/h (1 Bft)
27.01.2024 18:37 21,7 °C 3,4 °C 49 % 83 % 1036,1 hPa 0,0 l/m² 3,8 km/h (1 Bft) W-SW 257 ° 0 min 0 W/m² 0,8 °C 3,4 °C 6,4 km/h (2 Bft)
27.01.2024 18:39 21,7 °C 2,9 °C 49 % 82 % 1036,1 hPa 0,0 l/m² 1,3 km/h (1 Bft) W-SW 257 ° 0 min 0 W/m² 0,1 °C 2,9 °C 4,8 km/h (1 Bft)
27.01.2024 18:41 21,7 °C 2,4 °C 49 % 82 % 1036,2 hPa 0,0 l/m² 2,7 km/h (1 Bft) W-SW 254 ° 0 min 0 W/m² -0,4 °C 2,4 °C 3,2 km/h (1 Bft)
27.01.2024 18:42 21,7 °C 2,3 °C 49 % 83 % 1036,3 hPa 0,0 l/m² 4,7 km/h (1 Bft) S-SW 198 ° 0 min 0 W/m² -0,3 °C 2,3 °C 6,4 km/h (2 Bft)
27.01.2024 18:43 21,7 °C 2,2 °C 49 % 84 % 1036,3 hPa 0,0 l/m² 4,3 km/h (1 Bft) S-SW 194 ° 0 min 0 W/m² -0,2 °C 2,2 °C 6,4 km/h (2 Bft)
27.01.2024 18:44 21,7 °C 2,2 °C 49 % 84 % 1036,3 hPa 0,0 l/m² 4,0 km/h (1 Bft) S-SW 194 ° 0 min 0 W/m² -0,2 °C 2,2 °C 4,8 km/h (1 Bft)
27.01.2024 18:46 21,7 °C 2,0 °C 49 % 85 % 1036,3 hPa 0,0 l/m² 4,7 km/h (1 Bft) S 188 ° 0 min 0 W/m² -0,3 °C 2,0 °C 8,0 km/h (2 Bft)
27.01.2024 18:48 21,7 °C 1,9 °C 49 % 85 % 1036,4 hPa 0,0 l/m² 3,0 km/h (1 Bft) S 188 ° 0 min 0 W/m² -0,3 °C 1,9 °C 4,8 km/h (1 Bft)
27.01.2024 18:50 21,7 °C 2,0 °C 49 % 86 % 1036,3 hPa 0,0 l/m² 3,9 km/h (1 Bft) S 188 ° 0 min 0 W/m² -0,1 °C 2,0 °C 4,8 km/h (1 Bft)
27.01.2024 18:51 21,7 °C 2,0 °C 49 % 86 % 1036,4 hPa 0,0 l/m² 4,0 km/h (1 Bft) S 188 ° 0 min 0 W/m² -0,1 °C 2,0 °C 4,8 km/h (1 Bft)
27.01.2024 18:54 21,7 °C 2,1 °C 49 % 86 % 1036,3 hPa 0,0 l/m² 2,3 km/h (1 Bft) S 188 ° 0 min 0 W/m² 0,0 °C 2,1 °C 4,8 km/h (1 Bft)
27.01.2024 18:56 21,7 °C 2,1 °C 49 % 86 % 1036,2 hPa 0,0 l/m² 1,8 km/h (1 Bft) S 188 ° 0 min 0 W/m² 0,0 °C 2,1 °C 3,2 km/h (1 Bft)
27.01.2024 18:58 21,7 °C 2,1 °C 49 % 87 % 1036,2 hPa 0,0 l/m² 0,8 km/h (0 Bft) S 188 ° 0 min 0 W/m² 0,2 °C 2,1 °C 3,2 km/h (1 Bft)
27.01.2024 19:00 21,7 °C 2,1 °C 49 % 86 % 1036,2 hPa 0,0 l/m² 0,3 km/h (0 Bft) S 188 ° 0 min 0 W/m² 0,0 °C 2,1 °C 1,6 km/h (1 Bft)
27.01.2024 19:01 21,7 °C 2,0 °C 50 % 86 % 1036,3 hPa 0,0 l/m² 0,0 km/h (0 Bft) S 188 ° 0 min 0 W/m² -0,1 °C 2,0 °C 0,0 km/h (0 Bft)
27.01.2024 19:02 21,7 °C 2,0 °C 50 % 87 % 1036,3 hPa 0,0 l/m² 0,0 km/h (0 Bft) S 188 ° 0 min 0 W/m² 0,1 °C 2,0 °C 0,0 km/h (0 Bft)
27.01.2024 19:03 21,8 °C 2,0 °C 50 % 87 % 1036,3 hPa 0,0 l/m² 0,0 km/h (0 Bft) S 188 ° 0 min 0 W/m² 0,1 °C 2,0 °C 0,0 km/h (0 Bft)
27.01.2024 19:05 21,8 °C 2,1 °C 50 % 87 % 1036,4 hPa 0,0 l/m² 0,0 km/h (0 Bft) S 188 ° 0 min 0 W/m² 0,2 °C 2,1 °C 0,0 km/h (0 Bft)
27.01.2024 19:07 21,8 °C 1,9 °C 50 % 86 % 1036,3 hPa 0,0 l/m² 0,0 km/h (0 Bft) S 188 ° 0 min 0 W/m² -0,2 °C 1,9 °C 0,0 km/h (0 Bft)
27.01.2024 19:09 21,8 °C 1,7 °C 50 % 86 % 1036,4 hPa 0,0 l/m² 0,0 km/h (0 Bft) S 188 ° 0 min 0 W/m² -0,4 °C 1,7 °C 0,0 km/h (0 Bft)
27.01.2024 19:11 21,8 °C 1,5 °C 50 % 87 % 1036,4 hPa 0,0 l/m² 0,0 km/h (0 Bft) S 188 ° 0 min 0 W/m² -0,4 °C 1,5 °C 0,0 km/h (0 Bft)
27.01.2024 19:12 21,8 °C 1,4 °C 50 % 87 % 1036,3 hPa 0,0 l/m² 0,0 km/h (0 Bft) S 188 ° 0 min 0 W/m² -0,5 °C 1,4 °C 0,0 km/h (0 Bft)
27.01.2024 19:13 21,8 °C 1,4 °C 50 % 87 % 1036,3 hPa 0,0 l/m² 0,0 km/h (0 Bft) S 188 ° 0 min 0 W/m² -0,5 °C 1,4 °C 0,0 km/h (0 Bft)
27.01.2024 19:14 21,8 °C 1,4 °C 50 % 88 % 1036,4 hPa 0,0 l/m² 0,0 km/h (0 Bft) S 188 ° 0 min 0 W/m² -0,4 °C 1,4 °C 0,0 km/h (0 Bft)
27.01.2024 19:16 21,8 °C 1,5 °C 50 % 88 % 1036,5 hPa 0,0 l/m² 0,0 km/h (0 Bft) S 188 ° 0 min 0 W/m² -0,3 °C 1,5 °C 0,0 km/h (0 Bft)
27.01.2024 19:18 21,8 °C 1,6 °C 50 % 88 % 1036,4 hPa 0,0 l/m² 0,0 km/h (0 Bft) S 188 ° 0 min 0 W/m² -0,2 °C 1,6 °C 0,0 km/h (0 Bft)
27.01.2024 19:20 21,8 °C 1,6 °C 50 % 88 % 1036,4 hPa 0,0 l/m² 0,0 km/h (0 Bft) S 188 ° 0 min 0 W/m² -0,2 °C 1,6 °C 1,6 km/h (1 Bft)
27.01.2024 19:21 21,8 °C 1,6 °C 50 % 88 % 1036,4 hPa 0,0 l/m² 0,0 km/h (0 Bft) S 188 ° 0 min 0 W/m² -0,2 °C 1,6 °C 0,0 km/h (0 Bft)
27.01.2024 19:22 21,8 °C 1,6 °C 50 % 88 % 1036,4 hPa 0,0 l/m² 0,0 km/h (0 Bft) S 188 ° 0 min 0 W/m² -0,2 °C 1,6 °C 0,0 km/h (0 Bft)
27.01.2024 19:23 21,8 °C 1,6 °C 50 % 88 % 1036,5 hPa 0,0 l/m² 1,9 km/h (1 Bft) S 188 ° 0 min 0 W/m² -0,2 °C 1,6 °C 3,2 km/h (1 Bft)
27.01.2024 19:25 21,8 °C 1,7 °C 50 % 88 % 1036,4 hPa 0,0 l/m² 2,6 km/h (1 Bft) S 188 ° 0 min 0 W/m² -0,1 °C 1,7 °C 4,8 km/h (1 Bft)
27.01.2024 19:26 21,8 °C 1,7 °C 50 % 88 % 1036,4 hPa 0,0 l/m² 2,6 km/h (1 Bft) S 188 ° 0 min 0 W/m² -0,1 °C 1,7 °C 3,2 km/h (1 Bft)
27.01.2024 19:27 21,8 °C 1,7 °C 50 % 88 % 1036,4 hPa 0,0 l/m² 2,8 km/h (1 Bft) S 188 ° 0 min 0 W/m² -0,1 °C 1,7 °C 3,2 km/h (1 Bft)
27.01.2024 19:29 21,8 °C 1,7 °C 50 % 88 % 1036,3 hPa 0,0 l/m² 2,1 km/h (1 Bft) S 188 ° 0 min 0 W/m² -0,1 °C 1,7 °C 3,2 km/h (1 Bft)
27.01.2024 19:30 21,8 °C 1,8 °C 50 % 88 % 1036,4 hPa 0,0 l/m² 2,5 km/h (1 Bft) S 188 ° 0 min 0 W/m² 0,0 °C 1,8 °C 3,2 km/h (1 Bft)
27.01.2024 19:31 21,8 °C 1,8 °C 50 % 88 % 1036,4 hPa 0,0 l/m² 1,1 km/h (1 Bft) S 188 ° 0 min 0 W/m² 0,0 °C 1,8 °C 3,2 km/h (1 Bft)
27.01.2024 19:32 21,8 °C 1,8 °C 50 % 88 % 1036,4 hPa 0,0 l/m² 0,1 km/h (0 Bft) S 188 ° 0 min 0 W/m² 0,0 °C 1,8 °C 1,6 km/h (1 Bft)
27.01.2024 19:34 21,8 °C 1,9 °C 50 % 88 % 1036,4 hPa 0,0 l/m² 0,5 km/h (0 Bft) S 188 ° 0 min 0 W/m² 0,1 °C 1,9 °C 1,6 km/h (1 Bft)
27.01.2024 19:36 21,8 °C 1,9 °C 50 % 88 % 1036,5 hPa 0,0 l/m² 0,0 km/h (0 Bft) S 188 ° 0 min 0 W/m² 0,1 °C 1,9 °C 0,0 km/h (0 Bft)
27.01.2024 19:37 21,8 °C 1,8 °C 50 % 88 % 1036,5 hPa 0,0 l/m² 0,1 km/h (0 Bft) S 188 ° 0 min 0 W/m² 0,0 °C 1,8 °C 1,6 km/h (1 Bft)
27.01.2024 19:38 21,8 °C 1,8 °C 50 % 88 % 1036,5 hPa 0,0 l/m² 1,9 km/h (1 Bft) S 188 ° 0 min 0 W/m² 0,0 °C 1,8 °C 3,2 km/h (1 Bft)
27.01.2024 19:40 21,8 °C 1,8 °C 50 % 88 % 1036,5 hPa 0,0 l/m² 0,9 km/h (0 Bft) S 188 ° 0 min 0 W/m² 0,0 °C 1,8 °C 3,2 km/h (1 Bft)
27.01.2024 19:41 21,8 °C 1,8 °C 50 % 87 % 1036,5 hPa 0,0 l/m² 0,7 km/h (0 Bft) S 188 ° 0 min 0 W/m² -0,1 °C 1,8 °C 3,2 km/h (1 Bft)
27.01.2024 19:42 21,8 °C 1,7 °C 50 % 87 % 1036,5 hPa 0,0 l/m² 0,0 km/h (0 Bft) S 188 ° 0 min 0 W/m² -0,2 °C 1,7 °C 0,0 km/h (0 Bft)
27.01.2024 19:43 21,8 °C 1,6 °C 50 % 87 % 1036,5 hPa 0,0 l/m² 0,0 km/h (0 Bft) S 188 ° 0 min 0 W/m² -0,3 °C 1,6 °C 0,0 km/h (0 Bft)
27.01.2024 19:45 21,8 °C 1,6 °C 50 % 88 % 1036,5 hPa 0,0 l/m² 0,0 km/h (0 Bft) S 188 ° 0 min 0 W/m² -0,2 °C 1,6 °C 0,0 km/h (0 Bft)
27.01.2024 19:47 21,8 °C 1,6 °C 50 % 87 % 1036,6 hPa 0,0 l/m² 0,0 km/h (0 Bft) S 188 ° 0 min 0 W/m² -0,3 °C 1,6 °C 0,0 km/h (0 Bft)
27.01.2024 19:49 21,8 °C 1,6 °C 50 % 88 % 1036,6 hPa 0,0 l/m² 2,3 km/h (1 Bft) S 188 ° 0 min 0 W/m² -0,2 °C 1,6 °C 4,8 km/h (1 Bft)
27.01.2024 19:50 21,8 °C 1,7 °C 50 % 88 % 1036,5 hPa 0,0 l/m² 0,8 km/h (0 Bft) S 188 ° 0 min 0 W/m² -0,1 °C 1,7 °C 3,2 km/h (1 Bft)
27.01.2024 19:51 21,8 °C 1,7 °C 50 % 88 % 1036,5 hPa 0,0 l/m² 0,7 km/h (0 Bft) S 188 ° 0 min 0 W/m² -0,1 °C 1,7 °C 1,6 km/h (1 Bft)
27.01.2024 19:52 21,8 °C 1,8 °C 50 % 88 % 1036,6 hPa 0,0 l/m² 2,4 km/h (1 Bft) S 188 ° 0 min 0 W/m² 0,0 °C 1,8 °C 3,2 km/h (1 Bft)
27.01.2024 19:54 21,8 °C 1,8 °C 50 % 88 % 1036,5 hPa 0,0 l/m² 2,5 km/h (1 Bft) S 188 ° 0 min 0 W/m² 0,0 °C 1,8 °C 4,8 km/h (1 Bft)
27.01.2024 19:56 21,8 °C 1,9 °C 50 % 88 % 1036,5 hPa 0,0 l/m² 1,1 km/h (1 Bft) S 188 ° 0 min 0 W/m² 0,1 °C 1,9 °C 3,2 km/h (1 Bft)
27.01.2024 19:58 21,8 °C 1,9 °C 50 % 88 % 1036,5 hPa 0,0 l/m² 0,0 km/h (0 Bft) S 188 ° 0 min 0 W/m² 0,1 °C 1,9 °C 0,0 km/h (0 Bft)
27.01.2024 20:00 21,9 °C 1,9 °C 50 % 88 % 1036,6 hPa 0,0 l/m² 0,0 km/h (0 Bft) S 188 ° 0 min 0 W/m² 0,1 °C 1,9 °C 0,0 km/h (0 Bft)
27.01.2024 20:01 21,9 °C 1,8 °C 50 % 87 % 1036,6 hPa 0,0 l/m² 0,4 km/h (0 Bft) S 188 ° 0 min 0 W/m² -0,1 °C 1,8 °C 1,6 km/h (1 Bft)
27.01.2024 20:02 21,9 °C 1,7 °C 50 % 87 % 1036,6 hPa 0,0 l/m² 1,9 km/h (1 Bft) S 188 ° 0 min 0 W/m² -0,2 °C 1,7 °C 3,2 km/h (1 Bft)
27.01.2024 20:03 21,8 °C 1,5 °C 50 % 87 % 1036,6 hPa 0,0 l/m² 0,7 km/h (0 Bft) S 188 ° 0 min 0 W/m² -0,4 °C 1,5 °C 3,2 km/h (1 Bft)
27.01.2024 20:05 21,9 °C 1,3 °C 50 % 87 % 1036,6 hPa 0,0 l/m² 1,6 km/h (1 Bft) S 188 ° 0 min 0 W/m² -0,6 °C 1,3 °C 3,2 km/h (1 Bft)
27.01.2024 20:07 21,9 °C 1,0 °C 50 % 87 % 1036,8 hPa 0,0 l/m² 2,1 km/h (1 Bft) S 188 ° 0 min 0 W/m² -0,9 °C 1,0 °C 3,2 km/h (1 Bft)
27.01.2024 20:09 21,9 °C 0,9 °C 50 % 87 % 1036,7 hPa 0,0 l/m² 1,2 km/h (1 Bft) S 188 ° 0 min 0 W/m² -1,0 °C 0,9 °C 1,6 km/h (1 Bft)
27.01.2024 20:10 21,9 °C 0,9 °C 50 % 88 % 1036,8 hPa 0,0 l/m² 0,0 km/h (0 Bft) S 188 ° 0 min 0 W/m² -0,9 °C 0,9 °C 0,0 km/h (0 Bft)
27.01.2024 20:11 21,9 °C 0,8 °C 50 % 88 % 1036,8 hPa 0,0 l/m² 0,0 km/h (0 Bft) S 188 ° 0 min 0 W/m² -1,0 °C 0,8 °C 0,0 km/h (0 Bft)
27.01.2024 20:12 21,9 °C 0,9 °C 50 % 88 % 1036,8 hPa 0,0 l/m² 0,0 km/h (0 Bft) S 188 ° 0 min 0 W/m² -0,9 °C 0,9 °C 0,0 km/h (0 Bft)
27.01.2024 20:14 21,8 °C 0,9 °C 50 % 89 % 1036,8 hPa 0,0 l/m² 0,0 km/h (0 Bft) S 188 ° 0 min 0 W/m² -0,7 °C 0,9 °C 0,0 km/h (0 Bft)
27.01.2024 20:16 21,9 °C 1,0 °C 50 % 89 % 1036,8 hPa 0,0 l/m² 0,0 km/h (0 Bft) S 188 ° 0 min 0 W/m² -0,6 °C 1,0 °C 0,0 km/h (0 Bft)
27.01.2024 20:18 21,9 °C 1,0 °C 50 % 89 % 1036,9 hPa 0,0 l/m² 0,0 km/h (0 Bft) S 188 ° 0 min 0 W/m² -0,6 °C 1,0 °C 0,0 km/h (0 Bft)
27.01.2024 20:20 21,9 °C 0,9 °C 50 % 89 % 1036,9 hPa 0,0 l/m² 0,0 km/h (0 Bft) S 188 ° 0 min 0 W/m² -0,7 °C 0,9 °C 0,0 km/h (0 Bft)
27.01.2024 20:21 21,9 °C 0,9 °C 50 % 89 % 1036,8 hPa 0,0 l/m² 0,0 km/h (0 Bft) S 188 ° 0 min 0 W/m² -0,7 °C 0,9 °C 0,0 km/h (0 Bft)
27.01.2024 20:22 21,9 °C 0,9 °C 50 % 89 % 1036,8 hPa 0,0 l/m² 0,0 km/h (0 Bft) S 188 ° 0 min 0 W/m² -0,7 °C 0,9 °C 0,0 km/h (0 Bft)
27.01.2024 20:23 21,9 °C 0,8 °C 50 % 89 % 1036,9 hPa 0,0 l/m² 0,0 km/h (0 Bft) S 188 ° 0 min 0 W/m² -0,8 °C 0,8 °C 0,0 km/h (0 Bft)
27.01.2024 20:25 21,9 °C 0,8 °C 50 % 89 % 1036,9 hPa 0,0 l/m² 0,0 km/h (0 Bft) S 188 ° 0 min 0 W/m² -0,8 °C 0,8 °C 0,0 km/h (0 Bft)
27.01.2024 20:27 21,9 °C 0,8 °C 51 % 89 % 1036,8 hPa 0,0 l/m² 0,0 km/h (0 Bft) S 188 ° 0 min 0 W/m² -0,8 °C 0,8 °C 0,0 km/h (0 Bft)
27.01.2024 20:29 21,9 °C 0,8 °C 51 % 89 % 1036,8 hPa 0,0 l/m² 0,0 km/h (0 Bft) S 188 ° 0 min 0 W/m² -0,8 °C 0,8 °C 0,0 km/h (0 Bft)
27.01.2024 20:30 21,9 °C 0,7 °C 51 % 89 % 1036,8 hPa 0,0 l/m² 0,0 km/h (0 Bft) S 188 ° 0 min 0 W/m² -0,9 °C 0,7 °C 0,0 km/h (0 Bft)
27.01.2024 20:32 21,9 °C 0,7 °C 51 % 89 % 1036,8 hPa 0,0 l/m² 0,0 km/h (0 Bft) S 188 ° 0 min 0 W/m² -0,9 °C 0,7 °C 0,0 km/h (0 Bft)
27.01.2024 20:34 21,9 °C 0,6 °C 51 % 89 % 1036,8 hPa 0,0 l/m² 0,0 km/h (0 Bft) S 188 ° 0 min 0 W/m² -1,0 °C 0,6 °C 1,6 km/h (1 Bft)
27.01.2024 20:36 21,9 °C 0,6 °C 51 % 89 % 1036,9 hPa 0,0 l/m² 0,0 km/h (0 Bft) S 188 ° 0 min 0 W/m² -1,0 °C 0,6 °C 0,0 km/h (0 Bft)
27.01.2024 20:38 21,9 °C 0,4 °C 51 % 89 % 1037,0 hPa 0,0 l/m² 0,4 km/h (0 Bft) S 188 ° 0 min 0 W/m² -1,2 °C 0,4 °C 1,6 km/h (1 Bft)
27.01.2024 20:39 21,9 °C 0,3 °C 51 % 89 % 1036,9 hPa 0,0 l/m² 0,0 km/h (0 Bft) S 188 ° 0 min 0 W/m² -1,3 °C 0,3 °C 0,0 km/h (0 Bft)
27.01.2024 20:40 21,9 °C 0,2 °C 51 % 89 % 1037,0 hPa 0,0 l/m² 0,0 km/h (0 Bft) S 188 ° 0 min 0 W/m² -1,4 °C 0,2 °C 0,0 km/h (0 Bft)
27.01.2024 20:42 21,9 °C 0,2 °C 51 % 89 % 1037,0 hPa 0,0 l/m² 0,0 km/h (0 Bft) S 188 ° 0 min 0 W/m² -1,4 °C 0,2 °C 0,0 km/h (0 Bft)
27.01.2024 20:43 21,9 °C 0,1 °C 51 % 89 % 1037,0 hPa 0,0 l/m² 0,0 km/h (0 Bft) S 188 ° 0 min 0 W/m² -1,5 °C 0,1 °C 0,0 km/h (0 Bft)
27.01.2024 20:45 21,9 °C 0,2 °C 51 % 89 % 1037,0 hPa 0,0 l/m² 0,0 km/h (0 Bft) S 188 ° 0 min 0 W/m² -1,4 °C 0,2 °C 0,0 km/h (0 Bft)
27.01.2024 20:47 21,9 °C 0,2 °C 51 % 90 % 1037,0 hPa 0,0 l/m² 0,0 km/h (0 Bft) S 188 ° 0 min 0 W/m² -1,2 °C 0,2 °C 0,0 km/h (0 Bft)
27.01.2024 20:49 21,9 °C 0,3 °C 51 % 90 % 1037,0 hPa 0,0 l/m² 0,0 km/h (0 Bft) S 188 ° 0 min 0 W/m² -1,1 °C 0,3 °C 0,0 km/h (0 Bft)
27.01.2024 20:50 21,9 °C 0,3 °C 51 % 90 % 1037,0 hPa 0,0 l/m² 0,0 km/h (0 Bft) S 188 ° 0 min 0 W/m² -1,1 °C 0,3 °C 0,0 km/h (0 Bft)
27.01.2024 20:51 21,9 °C 0,3 °C 51 % 90 % 1037,0 hPa 0,0 l/m² 0,0 km/h (0 Bft) S 188 ° 0 min 0 W/m² -1,1 °C 0,3 °C 0,0 km/h (0 Bft)
27.01.2024 20:52 21,9 °C 0,3 °C 51 % 90 % 1037,0 hPa 0,0 l/m² 0,0 km/h (0 Bft) S 188 ° 0 min 0 W/m² -1,1 °C 0,3 °C 0,0 km/h (0 Bft)
27.01.2024 20:54 21,9 °C 0,3 °C 51 % 90 % 1037,0 hPa 0,0 l/m² 0,0 km/h (0 Bft) S 188 ° 0 min 0 W/m² -1,1 °C 0,3 °C 0,0 km/h (0 Bft)
27.01.2024 20:56 21,9 °C 0,3 °C 51 % 90 % 1037,0 hPa 0,0 l/m² 0,0 km/h (0 Bft) S 188 ° 0 min 0 W/m² -1,1 °C 0,3 °C 0,0 km/h (0 Bft)
27.01.2024 20:58 21,9 °C 0,3 °C 51 % 90 % 1037,1 hPa 0,0 l/m² 0,5 km/h (0 Bft) S 188 ° 0 min 0 W/m² -1,1 °C 0,3 °C 3,2 km/h (1 Bft)
27.01.2024 21:00 21,9 °C 0,2 °C 51 % 90 % 1037,1 hPa 0,0 l/m² 1,6 km/h (1 Bft) S 188 ° 0 min 0 W/m² -1,2 °C 0,2 °C 3,2 km/h (1 Bft)
27.01.2024 21:01 21,9 °C 0,2 °C 51 % 90 % 1037,2 hPa 0,0 l/m² 2,0 km/h (1 Bft) S 188 ° 0 min 0 W/m² -1,2 °C 0,2 °C 3,2 km/h (1 Bft)
27.01.2024 21:02 21,9 °C 0,2 °C 51 % 90 % 1037,2 hPa 0,0 l/m² 2,4 km/h (1 Bft) S 188 ° 0 min 0 W/m² -1,2 °C 0,2 °C 3,2 km/h (1 Bft)
27.01.2024 21:03 21,9 °C 0,2 °C 51 % 90 % 1037,1 hPa 0,0 l/m² 1,9 km/h (1 Bft) S 188 ° 0 min 0 W/m² -1,2 °C 0,2 °C 3,2 km/h (1 Bft)
27.01.2024 21:05 21,9 °C 0,1 °C 51 % 90 % 1037,1 hPa 0,0 l/m² 1,2 km/h (1 Bft) S 188 ° 0 min 0 W/m² -1,3 °C 0,1 °C 3,2 km/h (1 Bft)
27.01.2024 21:07 21,9 °C 0,1 °C 51 % 90 % 1037,2 hPa 0,0 l/m² 2,3 km/h (1 Bft) S 188 ° 0 min 0 W/m² -1,3 °C 0,1 °C 3,2 km/h (1 Bft)
27.01.2024 21:09 21,9 °C 0,1 °C 51 % 90 % 1037,1 hPa 0,0 l/m² 1,9 km/h (1 Bft) S 188 ° 0 min 0 W/m² -1,3 °C 0,1 °C 3,2 km/h (1 Bft)
27.01.2024 21:10 21,9 °C 0,2 °C 51 % 90 % 1037,2 hPa 0,0 l/m² 0,8 km/h (0 Bft) S 188 ° 0 min 0 W/m² -1,2 °C 0,2 °C 1,6 km/h (1 Bft)
27.01.2024 21:11 21,9 °C 0,2 °C 51 % 91 % 1037,2 hPa 0,0 l/m² 2,4 km/h (1 Bft) S 188 ° 0 min 0 W/m² -1,1 °C 0,2 °C 3,2 km/h (1 Bft)
27.01.2024 21:12 21,9 °C 0,2 °C 51 % 91 % 1037,2 hPa 0,0 l/m² 1,5 km/h (1 Bft) S 188 ° 0 min 0 W/m² -1,1 °C 0,2 °C 3,2 km/h (1 Bft)
27.01.2024 21:14 21,9 °C 0,3 °C 51 % 91 % 1037,1 hPa 0,0 l/m² 0,2 km/h (0 Bft) S 188 ° 0 min 0 W/m² -1,0 °C 0,3 °C 1,6 km/h (1 Bft)
27.01.2024 21:16 21,9 °C 0,3 °C 51 % 91 % 1037,3 hPa 0,0 l/m² 0,0 km/h (0 Bft) S 188 ° 0 min 0 W/m² -1,0 °C 0,3 °C 0,0 km/h (0 Bft)
27.01.2024 21:18 21,9 °C 0,3 °C 51 % 91 % 1037,3 hPa 0,0 l/m² 0,0 km/h (0 Bft) S 188 ° 0 min 0 W/m² -1,0 °C 0,3 °C 0,0 km/h (0 Bft)
27.01.2024 21:20 21,9 °C 0,3 °C 51 % 91 % 1037,3 hPa 0,0 l/m² 0,0 km/h (0 Bft) S 188 ° 0 min 0 W/m² -1,0 °C 0,3 °C 0,0 km/h (0 Bft)
27.01.2024 21:21 22,0 °C 0,3 °C 51 % 91 % 1037,2 hPa 0,0 l/m² 0,0 km/h (0 Bft) S 188 ° 0 min 0 W/m² -1,0 °C 0,3 °C 0,0 km/h (0 Bft)
27.01.2024 21:22 22,0 °C 0,2 °C 51 % 91 % 1037,2 hPa 0,0 l/m² 0,0 km/h (0 Bft) S 188 ° 0 min 0 W/m² -1,1 °C 0,2 °C 0,0 km/h (0 Bft)
27.01.2024 21:23 21,9 °C 0,3 °C 51 % 91 % 1037,2 hPa 0,0 l/m² 0,0 km/h (0 Bft) S 188 ° 0 min 0 W/m² -1,0 °C 0,3 °C 0,0 km/h (0 Bft)
27.01.2024 21:25 22,0 °C 0,2 °C 51 % 90 % 1037,3 hPa 0,0 l/m² 0,0 km/h (0 Bft) S 188 ° 0 min 0 W/m² -1,2 °C 0,2 °C 0,0 km/h (0 Bft)
27.01.2024 21:26 21,9 °C 0,1 °C 51 % 90 % 1037,2 hPa 0,0 l/m² 0,0 km/h (0 Bft) S 188 ° 0 min 0 W/m² -1,3 °C 0,1 °C 0,0 km/h (0 Bft)
27.01.2024 21:27 21,9 °C 0,2 °C 51 % 91 % 1037,2 hPa 0,0 l/m² 0,0 km/h (0 Bft) S 188 ° 0 min 0 W/m² -1,1 °C 0,2 °C 0,0 km/h (0 Bft)
27.01.2024 21:29 22,0 °C 0,2 °C 51 % 91 % 1037,3 hPa 0,0 l/m² 0,0 km/h (0 Bft) S 188 ° 0 min 0 W/m² -1,1 °C 0,2 °C 0,0 km/h (0 Bft)
27.01.2024 21:30 21,9 °C 0,2 °C 51 % 91 % 1037,3 hPa 0,0 l/m² 0,0 km/h (0 Bft) S 188 ° 0 min 0 W/m² -1,1 °C 0,2 °C 0,0 km/h (0 Bft)
27.01.2024 21:32 22,0 °C 0,1 °C 51 % 90 % 1037,3 hPa 0,0 l/m² 0,0 km/h (0 Bft) S 188 ° 0 min 0 W/m² -1,3 °C 0,1 °C 0,0 km/h (0 Bft)
27.01.2024 21:34 22,0 °C -0,1 °C 51 % 90 % 1037,3 hPa 0,0 l/m² 0,0 km/h (0 Bft) S 188 ° 0 min 0 W/m² -1,5 °C -0,1 °C 0,0 km/h (0 Bft)
27.01.2024 21:36 21,9 °C -0,1 °C 51 % 91 % 1037,2 hPa 0,0 l/m² 0,0 km/h (0 Bft) S 188 ° 0 min 0 W/m² -1,4 °C -0,1 °C 0,0 km/h (0 Bft)
27.01.2024 21:38 21,9 °C -0,2 °C 51 % 91 % 1037,2 hPa 0,0 l/m² 0,0 km/h (0 Bft) S 188 ° 0 min 0 W/m² -1,5 °C -0,2 °C 0,0 km/h (0 Bft)
27.01.2024 21:40 21,9 °C -0,3 °C 50 % 90 % 1037,2 hPa 0,0 l/m² 0,1 km/h (0 Bft) S 188 ° 0 min 0 W/m² -1,7 °C -0,3 °C 1,6 km/h (1 Bft)
27.01.2024 21:41 21,9 °C -0,2 °C 51 % 91 % 1037,2 hPa 0,0 l/m² 1,2 km/h (1 Bft) S 188 ° 0 min 0 W/m² -1,5 °C -0,2 °C 1,6 km/h (1 Bft)
27.01.2024 21:42 21,9 °C -0,2 °C 51 % 91 % 1037,2 hPa 0,0 l/m² 1,4 km/h (1 Bft) S 188 ° 0 min 0 W/m² -1,5 °C -0,2 °C 3,2 km/h (1 Bft)
27.01.2024 21:43 21,9 °C -0,2 °C 51 % 91 % 1037,1 hPa 0,0 l/m² 1,7 km/h (1 Bft) S 188 ° 0 min 0 W/m² -1,5 °C -0,2 °C 3,2 km/h (1 Bft)
27.01.2024 21:45 21,9 °C -0,2 °C 51 % 91 % 1037,1 hPa 0,0 l/m² 1,9 km/h (1 Bft) S 188 ° 0 min 0 W/m² -1,5 °C -0,2 °C 3,2 km/h (1 Bft)
27.01.2024 21:46 22,0 °C -0,2 °C 51 % 91 % 1037,2 hPa 0,0 l/m² 1,9 km/h (1 Bft) S 188 ° 0 min 0 W/m² -1,5 °C -0,2 °C 3,2 km/h (1 Bft)
27.01.2024 21:47 22,0 °C -0,2 °C 51 % 91 % 1037,2 hPa 0,0 l/m² 2,7 km/h (1 Bft) S 188 ° 0 min 0 W/m² -1,5 °C -0,2 °C 3,2 km/h (1 Bft)
27.01.2024 21:48 22,0 °C -0,2 °C 51 % 91 % 1037,1 hPa 0,0 l/m² 2,9 km/h (1 Bft) S 188 ° 0 min 0 W/m² -1,5 °C -0,2 °C 3,2 km/h (1 Bft)
27.01.2024 21:50 22,0 °C -0,2 °C 51 % 91 % 1037,1 hPa 0,0 l/m² 2,8 km/h (1 Bft) S 188 ° 0 min 0 W/m² -1,5 °C -0,2 °C 4,8 km/h (1 Bft)
27.01.2024 21:51 22,0 °C -0,2 °C 51 % 91 % 1037,1 hPa 0,0 l/m² 2,4 km/h (1 Bft) S 188 ° 0 min 0 W/m² -1,5 °C -0,2 °C 3,2 km/h (1 Bft)
27.01.2024 21:52 22,0 °C -0,2 °C 51 % 91 % 1037,1 hPa 0,0 l/m² 3,3 km/h (1 Bft) S 188 ° 0 min 0 W/m² -1,5 °C -0,2 °C 4,8 km/h (1 Bft)
27.01.2024 21:53 22,0 °C -0,1 °C 51 % 91 % 1037,0 hPa 0,0 l/m² 3,0 km/h (1 Bft) S 188 ° 0 min 0 W/m² -1,4 °C -0,1 °C 4,8 km/h (1 Bft)
27.01.2024 21:55 22,0 °C 0,0 °C 51 % 91 % 1036,9 hPa 0,0 l/m² 3,5 km/h (1 Bft) S 188 ° 0 min 0 W/m² -1,3 °C 0,0 °C 6,4 km/h (2 Bft)
27.01.2024 21:57 22,0 °C -0,1 °C 51 % 91 % 1036,9 hPa 0,0 l/m² 3,1 km/h (1 Bft) S 188 ° 0 min 0 W/m² -1,4 °C -0,1 °C 4,8 km/h (1 Bft)
27.01.2024 21:59 22,0 °C 0,0 °C 51 % 91 % 1036,9 hPa 0,0 l/m² 0,7 km/h (0 Bft) S 188 ° 0 min 0 W/m² -1,3 °C 0,0 °C 3,2 km/h (1 Bft)
27.01.2024 22:00 22,0 °C -0,1 °C 51 % 91 % 1036,9 hPa 0,0 l/m² 0,0 km/h (0 Bft) S 188 ° 0 min 0 W/m² -1,4 °C -0,1 °C 0,0 km/h (0 Bft)
27.01.2024 22:01 22,0 °C -0,2 °C 51 % 90 % 1036,9 hPa 0,0 l/m² 0,0 km/h (0 Bft) S 188 ° 0 min 0 W/m² -1,6 °C -0,2 °C 0,0 km/h (0 Bft)
27.01.2024 22:02 22,1 °C -0,2 °C 51 % 90 % 1037,0 hPa 0,0 l/m² 0,0 km/h (0 Bft) S 188 ° 0 min 0 W/m² -1,6 °C -0,2 °C 0,0 km/h (0 Bft)
27.01.2024 22:04 22,1 °C -0,3 °C 51 % 90 % 1037,0 hPa 0,0 l/m² 0,0 km/h (0 Bft) S 188 ° 0 min 0 W/m² -1,7 °C -0,3 °C 0,0 km/h (0 Bft)
27.01.2024 22:06 22,0 °C -0,4 °C 51 % 91 % 1037,0 hPa 0,0 l/m² 0,0 km/h (0 Bft) S 188 ° 0 min 0 W/m² -1,7 °C -0,4 °C 0,0 km/h (0 Bft)
27.01.2024 22:08 22,1 °C -0,4 °C 51 % 91 % 1037,1 hPa 0,0 l/m² 2,3 km/h (1 Bft) S 188 ° 0 min 0 W/m² -1,7 °C -0,4 °C 4,8 km/h (1 Bft)
27.01.2024 22:10 22,1 °C -0,6 °C 51 % 90 % 1037,2 hPa 0,0 l/m² 4,7 km/h (1 Bft) S 188 ° 0 min 0 W/m² -2,0 °C -0,6 °C 6,4 km/h (2 Bft)
27.01.2024 22:11 22,1 °C -0,6 °C 51 % 90 % 1037,1 hPa 0,0 l/m² 3,1 km/h (1 Bft) S 188 ° 0 min 0 W/m² -2,0 °C -0,6 °C 4,8 km/h (1 Bft)
27.01.2024 22:12 22,1 °C -0,6 °C 51 % 90 % 1037,1 hPa 0,0 l/m² 0,8 km/h (0 Bft) S 188 ° 0 min 0 W/m² -2,0 °C -0,6 °C 1,6 km/h (1 Bft)
27.01.2024 22:13 22,1 °C -0,6 °C 51 % 91 % 1037,2 hPa 0,0 l/m² 0,5 km/h (0 Bft) S 188 ° 0 min 0 W/m² -1,9 °C -0,6 °C 1,6 km/h (1 Bft)
27.01.2024 22:15 22,1 °C -0,3 °C 51 % 91 % 1037,2 hPa 0,0 l/m² 0,6 km/h (0 Bft) S 188 ° 0 min 0 W/m² -1,6 °C -0,3 °C 3,2 km/h (1 Bft)
27.01.2024 22:17 22,1 °C -0,2 °C 51 % 92 % 1037,1 hPa 0,0 l/m² 1,9 km/h (1 Bft) S 188 ° 0 min 0 W/m² -1,3 °C -0,2 °C 4,8 km/h (1 Bft)
27.01.2024 22:19 22,1 °C 0,0 °C 51 % 92 % 1037,1 hPa 0,0 l/m² 1,3 km/h (1 Bft) S 188 ° 0 min 0 W/m² -1,1 °C 0,0 °C 3,2 km/h (1 Bft)
27.01.2024 22:20 22,1 °C 0,1 °C 49 % 92 % 1037,1 hPa 0,0 l/m² 1,7 km/h (1 Bft) S 188 ° 0 min 0 W/m² -1,0 °C 0,1 °C 3,2 km/h (1 Bft)
27.01.2024 22:22 22,1 °C 0,1 °C 46 % 91 % 1037,1 hPa 0,0 l/m² 2,4 km/h (1 Bft) S 188 ° 0 min 0 W/m² -1,2 °C 0,1 °C 3,2 km/h (1 Bft)
27.01.2024 22:24 22,0 °C 0,2 °C 44 % 91 % 1037,1 hPa 0,0 l/m² 0,2 km/h (0 Bft) S 188 ° 0 min 0 W/m² -1,1 °C 0,2 °C 1,6 km/h (1 Bft)
27.01.2024 22:26 21,9 °C 0,2 °C 44 % 91 % 1037,1 hPa 0,0 l/m² 0,0 km/h (0 Bft) S 188 ° 0 min 0 W/m² -1,1 °C 0,2 °C 0,0 km/h (0 Bft)
27.01.2024 22:28 21,9 °C 0,1 °C 45 % 91 % 1037,1 hPa 0,0 l/m² 0,0 km/h (0 Bft) S 188 ° 0 min 0 W/m² -1,2 °C 0,1 °C 0,0 km/h (0 Bft)
27.01.2024 22:30 21,8 °C 0,1 °C 46 % 91 % 1037,1 hPa 0,0 l/m² 0,0 km/h (0 Bft) S 188 ° 0 min 0 W/m² -1,2 °C 0,1 °C 0,0 km/h (0 Bft)
27.01.2024 22:31 21,8 °C 0,1 °C 46 % 91 % 1037,0 hPa 0,0 l/m² 0,0 km/h (0 Bft) S 188 ° 0 min 0 W/m² -1,2 °C 0,1 °C 0,0 km/h (0 Bft)
27.01.2024 22:32 21,8 °C 0,1 °C 46 % 91 % 1037,0 hPa 0,0 l/m² 0,0 km/h (0 Bft) S 188 ° 0 min 0 W/m² -1,2 °C 0,1 °C 0,0 km/h (0 Bft)
27.01.2024 22:33 21,8 °C 0,1 °C 47 % 91 % 1037,0 hPa 0,0 l/m² 0,0 km/h (0 Bft) S 188 ° 0 min 0 W/m² -1,2 °C 0,1 °C 0,0 km/h (0 Bft)
27.01.2024 22:35 21,8 °C 0,1 °C 47 % 91 % 1037,0 hPa 0,0 l/m² 0,0 km/h (0 Bft) S 188 ° 0 min 0 W/m² -1,2 °C 0,1 °C 0,0 km/h (0 Bft)
27.01.2024 22:37 21,8 °C 0,1 °C 47 % 91 % 1036,9 hPa 0,0 l/m² 0,0 km/h (0 Bft) S 188 ° 0 min 0 W/m² -1,2 °C 0,1 °C 1,6 km/h (1 Bft)
27.01.2024 22:39 21,8 °C -0,1 °C 47 % 91 % 1036,8 hPa 0,0 l/m² 0,0 km/h (0 Bft) S 188 ° 0 min 0 W/m² -1,4 °C -0,1 °C 0,0 km/h (0 Bft)
27.01.2024 22:40 21,8 °C -0,2 °C 48 % 91 % 1036,9 hPa 0,0 l/m² 0,0 km/h (0 Bft) S 188 ° 0 min 0 W/m² -1,5 °C -0,2 °C 0,0 km/h (0 Bft)
27.01.2024 22:41 21,8 °C -0,2 °C 48 % 91 % 1036,9 hPa 0,0 l/m² 0,0 km/h (0 Bft) S 188 ° 0 min 0 W/m² -1,5 °C -0,2 °C 0,0 km/h (0 Bft)
27.01.2024 22:42 21,8 °C -0,3 °C 48 % 91 % 1037,0 hPa 0,0 l/m² 0,0 km/h (0 Bft) S 188 ° 0 min 0 W/m² -1,6 °C -0,3 °C 0,0 km/h (0 Bft)
27.01.2024 22:44 21,8 °C -0,6 °C 48 % 90 % 1037,0 hPa 0,0 l/m² 0,0 km/h (0 Bft) S 188 ° 0 min 0 W/m² -2,0 °C -0,6 °C 0,0 km/h (0 Bft)
27.01.2024 22:46 21,8 °C -0,7 °C 48 % 91 % 1037,0 hPa 0,0 l/m² 0,0 km/h (0 Bft) S 188 ° 0 min 0 W/m² -2,0 °C -0,7 °C 0,0 km/h (0 Bft)
27.01.2024 22:48 21,8 °C -0,7 °C 48 % 91 % 1037,0 hPa 0,0 l/m² 0,0 km/h (0 Bft) S 188 ° 0 min 0 W/m² -2,0 °C -0,7 °C 0,0 km/h (0 Bft)
27.01.2024 22:50 21,8 °C -0,6 °C 48 % 91 % 1037,0 hPa 0,0 l/m² 0,0 km/h (0 Bft) S 188 ° 0 min 0 W/m² -1,9 °C -0,6 °C 0,0 km/h (0 Bft)
27.01.2024 22:51 21,8 °C -0,6 °C 48 % 91 % 1036,9 hPa 0,0 l/m² 0,7 km/h (0 Bft) S 188 ° 0 min 0 W/m² -1,9 °C -0,6 °C 1,6 km/h (1 Bft)
27.01.2024 22:52 21,8 °C -0,6 °C 48 % 91 % 1036,9 hPa 0,0 l/m² 1,2 km/h (1 Bft) S 188 ° 0 min 0 W/m² -1,9 °C -0,6 °C 3,2 km/h (1 Bft)
27.01.2024 22:53 21,8 °C -0,5 °C 48 % 91 % 1036,9 hPa 0,0 l/m² 2,2 km/h (1 Bft) S 188 ° 0 min 0 W/m² -1,8 °C -0,5 °C 3,2 km/h (1 Bft)
27.01.2024 22:55 21,8 °C -0,5 °C 48 % 91 % 1037,0 hPa 0,0 l/m² 3,0 km/h (1 Bft) S 188 ° 0 min 0 W/m² -1,8 °C -0,5 °C 4,8 km/h (1 Bft)
27.01.2024 22:57 21,8 °C -0,6 °C 48 % 91 % 1037,1 hPa 0,0 l/m² 2,4 km/h (1 Bft) S 188 ° 0 min 0 W/m² -1,9 °C -0,6 °C 3,2 km/h (1 Bft)
27.01.2024 22:59 21,8 °C -0,6 °C 48 % 91 % 1037,0 hPa 0,0 l/m² 2,7 km/h (1 Bft) S 188 ° 0 min 0 W/m² -1,9 °C -0,6 °C 3,2 km/h (1 Bft)
27.01.2024 23:00 21,8 °C -0,7 °C 49 % 91 % 1037,0 hPa 0,0 l/m² 3,4 km/h (1 Bft) S 188 ° 0 min 0 W/m² -2,0 °C -0,7 °C 4,8 km/h (1 Bft)
27.01.2024 23:01 21,8 °C -0,7 °C 49 % 91 % 1037,0 hPa 0,0 l/m² 2,7 km/h (1 Bft) S 188 ° 0 min 0 W/m² -2,0 °C -0,7 °C 4,8 km/h (1 Bft)
27.01.2024 23:02 21,8 °C -0,7 °C 49 % 91 % 1037,0 hPa 0,0 l/m² 1,6 km/h (1 Bft) S 188 ° 0 min 0 W/m² -2,0 °C -0,7 °C 3,2 km/h (1 Bft)
27.01.2024 23:04 21,8 °C -0,6 °C 49 % 91 % 1036,9 hPa 0,0 l/m² 0,4 km/h (0 Bft) S 188 ° 0 min 0 W/m² -1,9 °C -0,6 °C 1,6 km/h (1 Bft)
27.01.2024 23:06 21,8 °C -0,6 °C 49 % 91 % 1037,0 hPa 0,0 l/m² 0,0 km/h (0 Bft) S 188 ° 0 min 0 W/m² -1,9 °C -0,6 °C 0,0 km/h (0 Bft)
27.01.2024 23:08 21,8 °C -0,4 °C 49 % 92 % 1036,9 hPa 0,0 l/m² 0,0 km/h (0 Bft) S 188 ° 0 min 0 W/m² -1,5 °C -0,4 °C 0,0 km/h (0 Bft)
27.01.2024 23:10 21,8 °C -0,4 °C 49 % 92 % 1036,9 hPa 0,0 l/m² 0,0 km/h (0 Bft) S 188 ° 0 min 0 W/m² -1,5 °C -0,4 °C 0,0 km/h (0 Bft)
27.01.2024 23:11 21,8 °C -0,3 °C 49 % 92 % 1037,0 hPa 0,0 l/m² 0,0 km/h (0 Bft) S 188 ° 0 min 0 W/m² -1,4 °C -0,3 °C 0,0 km/h (0 Bft)
27.01.2024 23:12 21,8 °C -0,3 °C 49 % 92 % 1037,0 hPa 0,0 l/m² 0,0 km/h (0 Bft) S 188 ° 0 min 0 W/m² -1,4 °C -0,3 °C 0,0 km/h (0 Bft)
27.01.2024 23:13 21,8 °C -0,3 °C 49 % 92 % 1036,9 hPa 0,0 l/m² 0,1 km/h (0 Bft) S 188 ° 0 min 0 W/m² -1,4 °C -0,3 °C 1,6 km/h (1 Bft)
27.01.2024 23:15 21,8 °C -0,3 °C 49 % 92 % 1037,0 hPa 0,0 l/m² 0,0 km/h (0 Bft) S 188 ° 0 min 0 W/m² -1,4 °C -0,3 °C 0,0 km/h (0 Bft)
27.01.2024 23:16 21,8 °C -0,4 °C 49 % 91 % 1037,0 hPa 0,0 l/m² 0,0 km/h (0 Bft) N 0 ° 0 min 0 W/m² -1,7 °C -0,4 °C 0,0 km/h (0 Bft)
27.01.2024 23:17 21,8 °C -0,4 °C 49 % 91 % 1037,0 hPa 0,0 l/m² 0,0 km/h (0 Bft) N 0 ° 0 min 0 W/m² -1,7 °C -0,4 °C 0,0 km/h (0 Bft)
27.01.2024 23:22 21,7 °C -0,4 °C 49 % 92 % 1036,9 hPa 0,0 l/m² 0,0 km/h (0 Bft) S 188 ° 0 min 0 W/m² -1,5 °C -0,4 °C 0,0 km/h (0 Bft)
27.01.2024 23:24 21,7 °C -0,5 °C 49 % 91 % 1036,9 hPa 0,0 l/m² 0,0 km/h (0 Bft) S 188 ° 0 min 0 W/m² -1,8 °C -0,5 °C 0,0 km/h (0 Bft)
27.01.2024 23:25 21,7 °C -0,5 °C 49 % 91 % 1036,9 hPa 0,0 l/m² 0,0 km/h (0 Bft) S 188 ° 0 min 0 W/m² -1,8 °C -0,5 °C 0,0 km/h (0 Bft)
27.01.2024 23:27 21,8 °C -0,6 °C 49 % 91 % 1037,0 hPa 0,0 l/m² 0,0 km/h (0 Bft) S 188 ° 0 min 0 W/m² -1,9 °C -0,6 °C 0,0 km/h (0 Bft)
27.01.2024 23:28 21,8 °C -0,7 °C 49 % 91 % 1037,0 hPa 0,0 l/m² 0,0 km/h (0 Bft) S 188 ° 0 min 0 W/m² -2,0 °C -0,7 °C 0,0 km/h (0 Bft)
27.01.2024 23:29 21,8 °C -0,8 °C 49 % 91 % 1037,0 hPa 0,0 l/m² 0,0 km/h (0 Bft) S 188 ° 0 min 0 W/m² -2,1 °C -0,8 °C 0,0 km/h (0 Bft)
27.01.2024 23:30 21,8 °C -0,8 °C 49 % 91 % 1037,0 hPa 0,0 l/m² 0,1 km/h (0 Bft) S 188 ° 0 min 0 W/m² -2,1 °C -0,8 °C 1,6 km/h (1 Bft)
27.01.2024 23:31 21,8 °C -0,9 °C 49 % 91 % 1037,0 hPa 0,0 l/m² 0,0 km/h (0 Bft) S 180 ° 0 min 0 W/m² -2,2 °C -0,9 °C 1,6 km/h (1 Bft)
27.01.2024 23:32 21,8 °C -0,9 °C 49 % 91 % 1037,0 hPa 0,0 l/m² 1,6 km/h (1 Bft) S 180 ° 0 min 0 W/m² -2,2 °C -0,9 °C 1,6 km/h (1 Bft)
27.01.2024 23:37 21,8 °C -0,9 °C 49 % 91 % 1037,1 hPa 0,0 l/m² 1,5 km/h (1 Bft) S 188 ° 0 min 0 W/m² -2,2 °C -0,9 °C 3,2 km/h (1 Bft)
27.01.2024 23:39 21,7 °C -1,1 °C 49 % 91 % 1037,1 hPa 0,0 l/m² 2,9 km/h (1 Bft) S 188 ° 0 min 0 W/m² -2,4 °C -1,1 °C 4,8 km/h (1 Bft)
27.01.2024 23:40 21,7 °C -1,0 °C 49 % 91 % 1037,1 hPa 0,0 l/m² 2,8 km/h (1 Bft) S 188 ° 0 min 0 W/m² -2,3 °C -1,0 °C 3,2 km/h (1 Bft)
27.01.2024 23:42 21,8 °C -0,9 °C 49 % 92 % 1037,0 hPa 0,0 l/m² 1,7 km/h (1 Bft) S 188 ° 0 min 0 W/m² -2,0 °C -0,9 °C 3,2 km/h (1 Bft)
27.01.2024 23:43 21,8 °C -0,9 °C 49 % 92 % 1037,0 hPa 0,0 l/m² 0,2 km/h (0 Bft) S 188 ° 0 min 0 W/m² -2,0 °C -0,9 °C 1,6 km/h (1 Bft)
27.01.2024 23:45 21,7 °C -0,9 °C 49 % 92 % 1037,0 hPa 0,0 l/m² 0,2 km/h (0 Bft) S 188 ° 0 min 0 W/m² -2,0 °C -0,9 °C 1,6 km/h (1 Bft)
27.01.2024 23:47 21,8 °C -0,9 °C 49 % 92 % 1037,1 hPa 0,0 l/m² 1,9 km/h (1 Bft) S 188 ° 0 min 0 W/m² -2,0 °C -0,9 °C 3,2 km/h (1 Bft)
27.01.2024 23:49 21,8 °C -0,9 °C 49 % 92 % 1037,0 hPa 0,0 l/m² 3,1 km/h (1 Bft) S 188 ° 0 min 0 W/m² -2,0 °C -0,9 °C 4,8 km/h (1 Bft)
27.01.2024 23:50 21,8 °C -0,9 °C 49 % 91 % 1037,0 hPa 0,0 l/m² 4,0 km/h (1 Bft) S 188 ° 0 min 0 W/m² -2,2 °C -0,9 °C 4,8 km/h (1 Bft)
27.01.2024 23:52 21,8 °C -0,9 °C 49 % 91 % 1037,0 hPa 0,0 l/m² 3,0 km/h (1 Bft) S 188 ° 0 min 0 W/m² -2,2 °C -0,9 °C 4,8 km/h (1 Bft)
27.01.2024 23:53 21,8 °C -1,0 °C 49 % 91 % 1037,0 hPa 0,0 l/m² 0,8 km/h (0 Bft) S 188 ° 0 min 0 W/m² -2,3 °C -1,0 °C 1,6 km/h (1 Bft)
27.01.2024 23:55 21,8 °C -1,1 °C 49 % 91 % 1036,9 hPa 0,0 l/m² 0,0 km/h (0 Bft) S 188 ° 0 min 0 W/m² -2,4 °C -1,1 °C 0,0 km/h (0 Bft)
27.01.2024 23:57 21,8 °C -1,1 °C 49 % 91 % 1036,9 hPa 0,0 l/m² 0,0 km/h (0 Bft) S 188 ° 0 min 0 W/m² -2,4 °C -1,1 °C 0,0 km/h (0 Bft)
27.01.2024 23:59 21,8 °C -1,2 °C 49 % 91 % 1036,9 hPa 0,0 l/m² 0,0 km/h (0 Bft) S 188 ° 0 min 0 W/m² -2,5 °C -1,2 °C 0,0 km/h (0 Bft)
_ Min-Zeit 08:55 23:59 22:26 14:09 00:10 - 23:59 - - - - 23:59 04:38 23:59
Minimum _ 21,0 °C -1,2 °C 44 % 59 % 1029,5 hPa - 0,0 km/h (0 Bft) - - - - -2,5 °C -4,3 °C 0,0 km/h (0 Bft)
_ Max-Zeit 22:22 13:50 22:19 23:49 21:34 23:59 14:43 - - 14:28 12:36 13:21 13:43 14:23
Maximum _ 22,1 °C 9,4 °C 51 % 92 % 1037,3 hPa 0,0 l/m² 20,2 km/h
W-SW (4 Bft)
- - 5 min 364 W/m² 4,7 °C 9,3 °C 25,7 km/h
W (4 Bft)
Durchschnitt _ 21,7 °C 3,9 °C 49 % 83 % 1033,9 hPa #0,0 l/m² 8,1 km/h (2 Bft) W-SW - #7:17 h 76 W/m² 1,2 °C 1,4 °C 11,5 km/h (2 Bft)
© 2009 Mathias Hoßbach